Time,TemperatureF,DewpointF,PressureIn,WindDirection,WindDirectionDegrees,WindSpeedMPH,WindSpeedGustMPH,Humidity,HourlyPrecipIn,Conditions,Clouds,dailyrainin,SolarRadiationWatts/m^2,SoftwareType,DateUTC
2013-01-03 00:00:00,60.1,58.1,30.08,ENE,68,4.0,6.0,93,0.00,,---,0.05,0.00,VWS V14.00,2013-01-03 05:00:00,
2013-01-03 00:01:00,60.1,58.1,30.08,ENE,68,3.0,4.0,93,0.00,,---,0.00,0.00,VWS V14.00,2013-01-03 05:01:00,
2013-01-03 00:02:00,60.1,58.1,30.08,ENE,68,3.0,4.0,93,0.00,,---,0.00,0.00,VWS V14.00,2013-01-03 05:02:00,
2013-01-03 00:03:00,60.1,58.1,30.08,ENE,68,4.0,4.0,93,0.00,,---,0.00,0.00,VWS V14.00,2013-01-03 05:03:00,
2013-01-03 00:04:00,60.1,58.1,30.08,ENE,68,4.0,4.0,93,0.00,,---,0.00,0.00,VWS V14.00,2013-01-03 05:04:00,
2013-01-03 00:05:00,60.1,58.1,30.07,ENE,68,4.0,5.0,93,0.00,,---,0.00,0.00,VWS V14.00,2013-01-03 05:05:00,
2013-01-03 00:06:00,60.1,58.1,30.07,ENE,68,4.0,5.0,93,0.00,,---,0.00,0.00,VWS V14.00,2013-01-03 05:06:00,
2013-01-03 00:07:00,60.1,58.1,30.07,ENE,68,4.0,5.0,93,0.00,,---,0.00,0.00,VWS V14.00,2013-01-03 05:07:00,
2013-01-03 00:08:00,60.1,58.1,30.08,ENE,68,4.0,5.0,93,0.00,,---,0.00,0.00,VWS V14.00,2013-01-03 05:08:00,
2013-01-03 00:09:00,60.1,58.1,30.08,ENE,68,3.0,5.0,93,0.00,,---,0.00,0.00,VWS V14.00,2013-01-03 05:09:00,
2013-01-03 00:10:00,60.0,58.0,30.07,ENE,68,3.0,5.0,93,0.00,,---,0.00,0.00,VWS V14.00,2013-01-03 05:10:00,
2013-01-03 00:11:00,60.0,58.0,30.07,ENE,68,3.0,5.0,93,0.00,,---,0.00,0.00,VWS V14.00,2013-01-03 05:11:00,
2013-01-03 00:12:00,60.0,58.0,30.07,ENE,68,2.0,5.0,93,0.00,,---,0.00,0.00,VWS V14.00,2013-01-03 05:12:00,
2013-01-03 00:13:00,60.0,58.0,30.07,ENE,68,4.0,5.0,93,0.00,,---,0.00,0.00,VWS V14.00,2013-01-03 05:13:00,
2013-01-03 00:14:00,60.0,58.0,30.07,ENE,68,3.0,5.0,93,0.00,,---,0.00,0.00,VWS V14.00,2013-01-03 05:14:00,
2013-01-03 00:15:00,60.0,58.0,30.07,ENE,68,3.0,5.0,93,0.00,,---,0.00,0.00,VWS V14.00,2013-01-03 05:15:00,
2013-01-03 00:16:00,60.0,58.0,30.07,ENE,68,4.0,5.0,93,0.00,,---,0.00,0.00,VWS V14.00,2013-01-03 05:16:00,
2013-01-03 00:17:00,60.0,58.0,30.07,ENE,68,2.0,5.0,93,0.00,,---,0.00,0.00,VWS V14.00,2013-01-03 05:17:00,
2013-01-03 00:18:00,60.0,58.0,30.07,ENE,68,4.0,5.0,93,0.00,,---,0.00,0.00,VWS V14.00,2013-01-03 05:18:00,
2013-01-03 00:19:00,60.0,58.0,30.07,ENE,68,4.0,5.0,93,0.00,,---,0.00,0.00,VWS V14.00,2013-01-03 05:19:00,
2013-01-03 00:20:00,60.0,58.0,30.07,ENE,68,5.0,5.0,93,0.00,,---,0.00,0.00,VWS V14.00,2013-01-03 05:20:00,
2013-01-03 00:21:00,60.0,58.0,30.07,ENE,68,5.0,6.0,93,0.00,,---,0.00,0.00,VWS V14.00,2013-01-03 05:21:00,
2013-01-03 00:22:00,60.0,58.0,30.07,ENE,68,3.0,6.0,93,0.00,,---,0.00,0.00,VWS V14.00,2013-01-03 05:22:00,
2013-01-03 00:23:00,60.0,58.0,30.07,ENE,68,4.0,6.0,93,0.00,,---,0.00,0.00,VWS V14.00,2013-01-03 05:23:00,
2013-01-03 00:24:00,60.0,58.0,30.07,ENE,68,4.0,6.0,93,0.00,,---,0.00,0.00,VWS V14.00,2013-01-03 05:24:00,
2013-01-03 00:25:00,59.9,57.9,30.07,ENE,67,4.0,6.0,93,0.00,,---,0.00,0.00,VWS V14.00,2013-01-03 05:25:00,
2013-01-03 00:26:00,59.9,57.9,30.07,NNE,16,7.0,7.0,93,0.00,,---,0.00,0.00,VWS V14.00,2013-01-03 05:26:00,
2013-01-03 00:27:00,59.9,57.9,30.07,North,11,5.0,7.0,93,0.00,,---,0.00,0.00,VWS V14.00,2013-01-03 05:27:00,
2013-01-03 00:28:00,59.9,57.6,30.07,NNE,12,7.0,8.0,92,0.00,,---,0.00,0.00,VWS V14.00,2013-01-03 05:28:00,
2013-01-03 00:29:00,59.9,57.6,30.08,North,10,7.0,8.0,92,0.00,,---,0.00,0.00,VWS V14.00,2013-01-03 05:29:00,
2013-01-03 00:30:00,59.8,57.5,30.08,North,358,6.0,8.0,92,0.00,,---,0.00,0.00,VWS V14.00,2013-01-03 05:30:00,
2013-01-03 00:31:00,59.8,57.5,30.08,NNW,347,6.0,7.0,92,0.00,,---,0.00,0.00,VWS V14.00,2013-01-03 05:31:00,
2013-01-03 00:32:00,59.8,57.5,30.08,NNW,345,6.0,7.0,92,0.00,,---,0.00,0.00,VWS V14.00,2013-01-03 05:32:00,
2013-01-03 00:33:00,59.8,57.5,30.08,NNW,337,7.0,9.0,92,0.00,,---,0.00,0.00,VWS V14.00,2013-01-03 05:33:00,
2013-01-03 00:34:00,59.8,57.5,30.08,NNW,330,8.0,9.0,92,0.00,,---,0.00,0.00,VWS V14.00,2013-01-03 05:34:00,
2013-01-03 00:35:00,59.7,57.4,30.08,North,351,6.0,9.0,92,0.00,,---,0.00,0.00,VWS V14.00,2013-01-03 05:35:00,
2013-01-03 00:36:00,59.7,57.4,30.08,North,7,8.0,9.0,92,0.00,,---,0.00,0.00,VWS V14.00,2013-01-03 05:36:00,
2013-01-03 00:37:00,59.7,57.4,30.08,NNE,12,7.0,9.0,92,0.00,,---,0.00,0.00,VWS V14.00,2013-01-03 05:37:00,
2013-01-03 00:38:00,59.7,57.4,30.08,NNE,16,7.0,9.0,92,0.00,,---,0.00,0.00,VWS V14.00,2013-01-03 05:38:00,
2013-01-03 00:39:00,59.7,57.4,30.08,NNE,17,6.0,9.0,92,0.00,,---,0.00,0.00,VWS V14.00,2013-01-03 05:39:00,
2013-01-03 00:40:00,59.7,57.4,30.07,NNE,17,6.0,9.0,92,0.00,,---,0.00,0.00,VWS V14.00,2013-01-03 05:40:00,
2013-01-03 00:41:00,59.7,57.4,30.07,NNE,15,7.0,9.0,92,0.00,,---,0.00,0.00,VWS V14.00,2013-01-03 05:41:00,
2013-01-03 00:42:00,59.7,57.4,30.07,NNE,15,5.0,9.0,92,0.00,,---,0.00,0.00,VWS V14.00,2013-01-03 05:42:00,
2013-01-03 00:43:00,59.7,57.4,30.08,NNE,14,4.0,9.0,92,0.00,,---,0.00,0.00,VWS V14.00,2013-01-03 05:43:00,
2013-01-03 00:44:00,59.7,57.4,30.08,NNE,14,6.0,9.0,92,0.00,,---,0.00,0.00,VWS V14.00,2013-01-03 05:44:00,
2013-01-03 00:45:00,59.7,57.4,30.08,North,10,9.0,9.0,92,0.00,,---,0.00,0.00,VWS V14.00,2013-01-03 05:45:00,
2013-01-03 00:46:00,59.7,57.4,30.08,NNE,13,5.0,9.0,92,0.00,,---,0.00,0.00,VWS V14.00,2013-01-03 05:46:00,
2013-01-03 00:47:00,59.7,57.4,30.08,NNE,12,6.0,9.0,92,0.00,,---,0.00,0.00,VWS V14.00,2013-01-03 05:47:00,
2013-01-03 00:48:00,59.7,57.4,30.08,North,11,5.0,9.0,92,0.00,,---,0.00,0.00,VWS V14.00,2013-01-03 05:48:00,
2013-01-03 00:49:00,59.6,57.3,30.08,North,352,6.0,9.0,92,0.00,,---,0.00,0.00,VWS V14.00,2013-01-03 05:49:00,
2013-01-03 00:50:00,59.6,57.3,30.08,North,9,7.0,9.0,92,0.00,,---,0.00,0.00,VWS V14.00,2013-01-03 05:50:00,
2013-01-03 00:51:00,59.7,57.4,30.08,NE,36,5.0,9.0,92,0.00,,---,0.00,0.00,VWS V14.00,2013-01-03 05:51:00,
2013-01-03 00:52:00,59.6,57.3,30.08,NE,36,3.0,9.0,92,0.00,,---,0.00,0.00,VWS V14.00,2013-01-03 05:52:00,
2013-01-03 00:53:00,59.6,57.3,30.07,NE,35,4.0,9.0,92,0.00,,---,0.00,0.00,VWS V14.00,2013-01-03 05:53:00,
2013-01-03 00:54:00,59.6,57.3,30.07,NE,35,5.0,9.0,92,0.00,,---,0.00,0.00,VWS V14.00,2013-01-03 05:54:00,
2013-01-03 00:55:00,59.6,57.3,30.07,NE,35,6.0,9.0,92,0.00,,---,0.00,0.00,VWS V14.00,2013-01-03 05:55:00,
2013-01-03 00:56:00,59.6,57.3,30.07,NE,35,4.0,9.0,92,0.00,,---,0.00,0.00,VWS V14.00,2013-01-03 05:56:00,
2013-01-03 00:57:00,59.6,57.3,30.08,NE,35,3.0,9.0,92,0.00,,---,0.00,0.00,VWS V14.00,2013-01-03 05:57:00,
2013-01-03 00:58:00,59.6,57.3,30.08,NE,35,4.0,9.0,92,0.00,,---,0.00,0.00,VWS V14.00,2013-01-03 05:58:00,
2013-01-03 00:59:00,59.6,57.3,30.08,NNE,17,5.0,9.0,92,0.00,,---,0.00,0.00,VWS V14.00,2013-01-03 05:59:00,
2013-01-03 01:00:00,59.6,57.3,30.08,NNE,17,4.0,9.0,92,0.00,,---,0.00,0.00,VWS V14.00,2013-01-03 06:00:00,
2013-01-03 01:01:00,59.6,57.3,30.08,NNE,17,3.0,5.0,92,0.00,,---,0.00,0.00,VWS V14.00,2013-01-03 06:01:00,
2013-01-03 01:02:00,59.6,57.3,30.08,NNE,17,3.0,5.0,92,0.00,,---,0.00,0.00,VWS V14.00,2013-01-03 06:02:00,
2013-01-03 01:03:00,59.6,57.3,30.07,NNE,17,4.0,5.0,92,0.00,,---,0.00,0.00,VWS V14.00,2013-01-03 06:03:00,
2013-01-03 01:04:00,59.6,57.3,30.07,NNE,17,5.0,5.0,92,0.00,,---,0.00,0.00,VWS V14.00,2013-01-03 06:04:00,
2013-01-03 01:05:00,59.6,57.3,30.07,NNE,17,4.0,5.0,92,0.00,,---,0.00,0.00,VWS V14.00,2013-01-03 06:05:00,
2013-01-03 01:06:00,59.6,57.3,30.07,NNE,17,4.0,6.0,92,0.00,,---,0.00,0.00,VWS V14.00,2013-01-03 06:06:00,
2013-01-03 01:07:00,59.6,57.3,30.07,NNE,17,4.0,6.0,92,0.00,,---,0.00,0.00,VWS V14.00,2013-01-03 06:07:00,
2013-01-03 01:08:00,59.6,57.3,30.07,NNE,17,4.0,6.0,92,0.00,,---,0.00,0.00,VWS V14.00,2013-01-03 06:08:00,
2013-01-03 01:09:00,59.6,57.3,30.07,NNE,17,5.0,6.0,92,0.00,,---,0.00,0.00,VWS V14.00,2013-01-03 06:09:00,
2013-01-03 01:10:00,59.6,57.3,30.07,NNE,17,5.0,6.0,92,0.00,,---,0.00,0.00,VWS V14.00,2013-01-03 06:10:00,
2013-01-03 01:11:00,59.6,57.3,30.07,NNE,18,7.0,7.0,92,0.00,,---,0.00,0.00,VWS V14.00,2013-01-03 06:11:00,
2013-01-03 01:12:00,59.5,57.5,30.07,NNE,25,7.0,8.0,93,0.00,,---,0.00,0.00,VWS V14.00,2013-01-03 06:12:00,
2013-01-03 01:13:00,59.5,57.5,30.07,NNE,21,7.0,8.0,93,0.00,,---,0.00,0.00,VWS V14.00,2013-01-03 06:13:00,
2013-01-03 01:14:00,59.5,57.5,30.07,NNE,32,8.0,8.0,93,0.00,,---,0.00,0.00,VWS V14.00,2013-01-03 06:14:00,
2013-01-03 01:15:00,59.4,57.4,30.07,NNE,25,7.0,8.0,93,0.00,,---,0.00,0.00,VWS V14.00,2013-01-03 06:15:00,
2013-01-03 01:16:00,59.4,57.4,30.07,NNE,19,5.0,8.0,93,0.00,,---,0.00,0.00,VWS V14.00,2013-01-03 06:16:00,
2013-01-03 01:17:00,59.4,57.4,30.07,NNE,18,5.0,8.0,93,0.00,,---,0.00,0.00,VWS V14.00,2013-01-03 06:17:00,
2013-01-03 01:18:00,59.4,57.4,30.07,NNE,19,6.0,8.0,93,0.00,,---,0.00,0.00,VWS V14.00,2013-01-03 06:18:00,
2013-01-03 01:19:00,59.4,57.4,30.07,NNE,19,3.0,8.0,93,0.00,,---,0.00,0.00,VWS V14.00,2013-01-03 06:19:00,
2013-01-03 01:20:00,59.4,57.4,30.07,NNE,19,4.0,8.0,93,0.00,,---,0.00,0.00,VWS V14.00,2013-01-03 06:20:00,
2013-01-03 01:21:00,59.3,57.3,30.07,NNE,18,4.0,8.0,93,0.00,,---,0.00,0.00,VWS V14.00,2013-01-03 06:21:00,
2013-01-03 01:22:00,59.3,57.3,30.07,NNE,14,6.0,8.0,93,0.00,,---,0.00,0.00,VWS V14.00,2013-01-03 06:22:00,
2013-01-03 01:23:00,59.3,57.3,30.07,NNE,13,6.0,8.0,93,0.00,,---,0.00,0.00,VWS V14.00,2013-01-03 06:23:00,
2013-01-03 01:24:00,59.3,57.3,30.07,North,353,7.0,8.0,93,0.00,,---,0.00,0.00,VWS V14.00,2013-01-03 06:24:00,
2013-01-03 01:25:00,59.3,57.3,30.07,NNE,16,6.0,8.0,93,0.00,,---,0.00,0.00,VWS V14.00,2013-01-03 06:25:00,
2013-01-03 01:26:00,59.3,57.3,30.08,NNE,13,5.0,8.0,93,0.00,,---,0.00,0.00,VWS V14.00,2013-01-03 06:26:00,
2013-01-03 01:27:00,59.2,56.9,30.08,NNE,12,7.0,9.0,92,0.00,,---,0.00,0.00,VWS V14.00,2013-01-03 06:27:00,
2013-01-03 01:28:00,59.2,57.2,30.07,NNE,14,6.0,9.0,93,0.00,,---,0.00,0.00,VWS V14.00,2013-01-03 06:28:00,
2013-01-03 01:29:00,59.2,56.9,30.07,NNE,12,7.0,9.0,92,0.00,,---,0.00,0.00,VWS V14.00,2013-01-03 06:29:00,
2013-01-03 01:30:00,59.2,56.9,30.07,NNE,23,7.0,9.0,92,0.00,,---,0.00,0.00,VWS V14.00,2013-01-03 06:30:00,
2013-01-03 01:31:00,59.2,57.2,30.07,NNE,19,7.0,10.0,93,0.00,,---,0.00,0.00,VWS V14.00,2013-01-03 06:31:00,
2013-01-03 01:32:00,59.2,56.9,30.07,North,4,6.0,10.0,92,0.00,,---,0.00,0.00,VWS V14.00,2013-01-03 06:32:00,
2013-01-03 01:33:00,59.2,56.9,30.08,North,5,4.0,10.0,92,0.00,,---,0.00,0.00,VWS V14.00,2013-01-03 06:33:00,
2013-01-03 01:34:00,59.1,56.8,30.08,North,5,6.0,10.0,92,0.00,,---,0.00,0.00,VWS V14.00,2013-01-03 06:34:00,
2013-01-03 01:35:00,59.1,56.8,30.07,North,5,5.0,10.0,92,0.00,,---,0.00,0.00,VWS V14.00,2013-01-03 06:35:00,
2013-01-03 01:36:00,59.1,56.8,30.07,North,5,6.0,10.0,92,0.00,,---,0.00,0.00,VWS V14.00,2013-01-03 06:36:00,
2013-01-03 01:37:00,59.1,56.8,30.07,North,6,5.0,10.0,92,0.00,,---,0.00,0.00,VWS V14.00,2013-01-03 06:37:00,
2013-01-03 01:38:00,59.1,56.8,30.07,North,6,3.0,10.0,92,0.00,,---,0.00,0.00,VWS V14.00,2013-01-03 06:38:00,
2013-01-03 01:39:00,59.1,56.8,30.07,North,6,5.0,10.0,92,0.00,,---,0.00,0.00,VWS V14.00,2013-01-03 06:39:00,
2013-01-03 01:40:00,59.0,56.7,30.07,NNE,16,4.0,10.0,92,0.00,,---,0.01,0.00,VWS V14.00,2013-01-03 06:40:00,
2013-01-03 01:41:00,59.0,56.7,30.07,NNE,16,5.0,10.0,92,0.00,,---,0.01,0.00,VWS V14.00,2013-01-03 06:41:00,
2013-01-03 01:42:00,59.0,56.7,30.08,NNE,21,4.0,10.0,92,0.00,,---,0.01,0.00,VWS V14.00,2013-01-03 06:42:00,
2013-01-03 01:43:00,59.0,56.7,30.08,North,8,6.0,10.0,92,0.00,,---,0.01,0.00,VWS V14.00,2013-01-03 06:43:00,
2013-01-03 01:44:00,59.0,56.7,30.08,North,9,6.0,10.0,92,0.00,,---,0.01,0.00,VWS V14.00,2013-01-03 06:44:00,
2013-01-03 01:45:00,59.0,56.7,30.08,North,9,4.0,10.0,92,0.00,,---,0.01,0.00,VWS V14.00,2013-01-03 06:45:00,
2013-01-03 01:46:00,59.0,56.7,30.08,North,9,5.0,10.0,92,0.00,,---,0.01,0.00,VWS V14.00,2013-01-03 06:46:00,
2013-01-03 01:47:00,58.9,56.6,30.08,North,9,6.0,10.0,92,0.00,,---,0.01,0.00,VWS V14.00,2013-01-03 06:47:00,
2013-01-03 01:48:00,58.9,56.6,30.08,NNE,27,7.0,10.0,92,0.00,,---,0.01,0.00,VWS V14.00,2013-01-03 06:48:00,
2013-01-03 01:49:00,58.9,56.6,30.07,NNE,13,6.0,10.0,92,0.00,,---,0.01,0.00,VWS V14.00,2013-01-03 06:49:00,
2013-01-03 01:50:00,58.9,56.6,30.07,NNE,20,5.0,10.0,92,0.00,,---,0.01,0.00,VWS V14.00,2013-01-03 06:50:00,
2013-01-03 01:51:00,58.9,56.6,30.07,NNE,20,5.0,10.0,92,0.00,,---,0.01,0.00,VWS V14.00,2013-01-03 06:51:00,
2013-01-03 01:52:00,58.9,56.6,30.07,NNE,18,7.0,10.0,92,0.00,,---,0.01,0.00,VWS V14.00,2013-01-03 06:52:00,
2013-01-03 01:53:00,58.9,56.6,30.07,NNE,31,6.0,10.0,92,0.00,,---,0.01,0.00,VWS V14.00,2013-01-03 06:53:00,
2013-01-03 01:54:00,58.8,56.5,30.07,NNE,31,5.0,10.0,92,0.00,,---,0.01,0.00,VWS V14.00,2013-01-03 06:54:00,
2013-01-03 01:55:00,58.8,56.5,30.07,NNE,31,5.0,10.0,92,0.00,,---,0.01,0.00,VWS V14.00,2013-01-03 06:55:00,
2013-01-03 01:56:00,58.8,56.5,30.07,NNE,31,4.0,10.0,92,0.00,,---,0.01,0.00,VWS V14.00,2013-01-03 06:56:00,
2013-01-03 01:57:00,58.8,56.5,30.07,NNE,31,6.0,10.0,92,0.00,,---,0.01,0.00,VWS V14.00,2013-01-03 06:57:00,
2013-01-03 01:58:00,58.8,56.5,30.07,NNE,31,5.0,10.0,92,0.00,,---,0.01,0.00,VWS V14.00,2013-01-03 06:58:00,
2013-01-03 01:59:00,58.8,56.5,30.07,NNE,31,4.0,10.0,92,0.00,,---,0.01,0.00,VWS V14.00,2013-01-03 06:59:00,
2013-01-03 02:00:00,58.8,56.5,30.07,NNE,32,2.0,10.0,92,0.00,,---,0.01,0.00,VWS V14.00,2013-01-03 07:00:00,
2013-01-03 02:01:00,58.8,56.5,30.07,NNE,32,4.0,4.0,92,0.00,,---,0.01,0.00,VWS V14.00,2013-01-03 07:01:00,
2013-01-03 02:02:00,58.8,56.5,30.07,NNE,32,3.0,5.0,92,0.00,,---,0.01,0.00,VWS V14.00,2013-01-03 07:02:00,
2013-01-03 02:03:00,58.8,56.5,30.07,NNE,33,6.0,6.0,92,0.00,,---,0.01,0.00,VWS V14.00,2013-01-03 07:03:00,
2013-01-03 02:04:00,58.8,56.5,30.07,ENE,68,3.0,7.0,92,0.00,,---,0.01,0.00,VWS V14.00,2013-01-03 07:04:00,
2013-01-03 02:05:00,58.8,56.5,30.07,ENE,68,2.0,7.0,92,0.00,,---,0.01,0.00,VWS V14.00,2013-01-03 07:05:00,
2013-01-03 02:06:00,58.8,56.5,30.07,ENE,68,2.0,7.0,92,0.00,,---,0.01,0.00,VWS V14.00,2013-01-03 07:06:00,
2013-01-03 02:07:00,58.8,56.5,30.07,ENE,68,2.0,7.0,92,0.00,,---,0.01,0.00,VWS V14.00,2013-01-03 07:07:00,
2013-01-03 02:08:00,58.8,56.5,30.07,ENE,69,4.0,7.0,92,0.00,,---,0.01,0.00,VWS V14.00,2013-01-03 07:08:00,
2013-01-03 02:09:00,58.8,56.5,30.07,ENE,69,4.0,7.0,92,0.00,,---,0.01,0.00,VWS V14.00,2013-01-03 07:09:00,
2013-01-03 02:10:00,58.8,56.5,30.07,ENE,69,5.0,7.0,92,0.00,,---,0.01,0.00,VWS V14.00,2013-01-03 07:10:00,
2013-01-03 02:11:00,58.8,56.5,30.07,ENE,69,6.0,7.0,92,0.00,,---,0.01,0.00,VWS V14.00,2013-01-03 07:11:00,
2013-01-03 02:12:00,58.7,56.4,30.07,ENE,69,6.0,7.0,92,0.00,,---,0.01,0.00,VWS V14.00,2013-01-03 07:12:00,
2013-01-03 02:13:00,58.7,56.4,30.07,ENE,69,5.0,7.0,92,0.00,,---,0.01,0.00,VWS V14.00,2013-01-03 07:13:00,
2013-01-03 02:14:00,58.7,56.4,30.07,ENE,69,4.0,7.0,92,0.00,,---,0.01,0.00,VWS V14.00,2013-01-03 07:14:00,
2013-01-03 02:15:00,58.7,56.4,30.07,ENE,69,5.0,7.0,92,0.00,,---,0.01,0.00,VWS V14.00,2013-01-03 07:15:00,
2013-01-03 02:16:00,58.7,56.4,30.07,ENE,69,4.0,7.0,92,0.00,,---,0.01,0.00,VWS V14.00,2013-01-03 07:16:00,
2013-01-03 02:17:00,58.7,56.4,30.06,ENE,69,3.0,7.0,92,0.00,,---,0.01,0.00,VWS V14.00,2013-01-03 07:17:00,
2013-01-03 02:18:00,58.7,56.4,30.07,ENE,68,4.0,7.0,92,0.00,,---,0.01,0.00,VWS V14.00,2013-01-03 07:18:00,
2013-01-03 02:19:00,58.7,56.4,30.06,ENE,68,3.0,7.0,92,0.00,,---,0.01,0.00,VWS V14.00,2013-01-03 07:19:00,
2013-01-03 02:20:00,58.7,56.4,30.06,ENE,69,5.0,7.0,92,0.00,,---,0.01,0.00,VWS V14.00,2013-01-03 07:20:00,
2013-01-03 02:21:00,58.7,56.4,30.07,ENE,68,3.0,7.0,92,0.00,,---,0.01,0.00,VWS V14.00,2013-01-03 07:21:00,
2013-01-03 02:22:00,58.6,56.3,30.06,ENE,76,6.0,7.0,92,0.00,,---,0.01,0.00,VWS V14.00,2013-01-03 07:22:00,
2013-01-03 02:23:00,58.6,56.3,30.06,ENE,78,4.0,8.0,92,0.00,,---,0.01,0.00,VWS V14.00,2013-01-03 07:23:00,
2013-01-03 02:24:00,58.6,56.3,30.07,ENE,58,5.0,8.0,92,0.00,,---,0.01,0.00,VWS V14.00,2013-01-03 07:24:00,
2013-01-03 02:25:00,58.6,56.3,30.06,ENE,58,4.0,8.0,92,0.00,,---,0.01,0.00,VWS V14.00,2013-01-03 07:25:00,
2013-01-03 02:26:00,58.6,56.3,30.06,ENE,58,4.0,8.0,92,0.00,,---,0.01,0.00,VWS V14.00,2013-01-03 07:26:00,
2013-01-03 02:27:00,58.6,56.3,30.06,ENE,60,5.0,8.0,92,0.00,,---,0.01,0.00,VWS V14.00,2013-01-03 07:27:00,
2013-01-03 02:28:00,58.5,56.2,30.06,ENE,60,6.0,8.0,92,0.00,,---,0.01,0.00,VWS V14.00,2013-01-03 07:28:00,
2013-01-03 02:29:00,58.5,56.2,30.06,ENE,60,3.0,8.0,92,0.00,,---,0.01,0.00,VWS V14.00,2013-01-03 07:29:00,
2013-01-03 02:30:00,58.5,56.2,30.06,ENE,60,4.0,8.0,92,0.00,,---,0.01,0.00,VWS V14.00,2013-01-03 07:30:00,
2013-01-03 02:31:00,58.5,56.2,30.07,ENE,60,4.0,6.0,92,0.00,,---,0.01,0.00,VWS V14.00,2013-01-03 07:31:00,
2013-01-03 02:32:00,58.5,56.2,30.06,ENE,60,4.0,6.0,92,0.00,,---,0.01,0.00,VWS V14.00,2013-01-03 07:32:00,
2013-01-03 02:33:00,58.5,56.2,30.07,ENE,60,4.0,6.0,92,0.00,,---,0.01,0.00,VWS V14.00,2013-01-03 07:33:00,
2013-01-03 02:34:00,58.5,56.2,30.07,ENE,60,4.0,6.0,92,0.00,,---,0.01,0.00,VWS V14.00,2013-01-03 07:34:00,
2013-01-03 02:35:00,58.4,56.1,30.07,ENE,60,4.0,6.0,92,0.00,,---,0.01,0.00,VWS V14.00,2013-01-03 07:35:00,
2013-01-03 02:36:00,58.4,56.1,30.07,ENE,60,2.0,6.0,92,0.00,,---,0.01,0.00,VWS V14.00,2013-01-03 07:36:00,
2013-01-03 02:37:00,58.4,56.1,30.07,ENE,60,3.0,6.0,92,0.00,,---,0.01,0.00,VWS V14.00,2013-01-03 07:37:00,
2013-01-03 02:38:00,58.4,56.1,30.07,ENE,60,1.0,6.0,92,0.00,,---,0.01,0.00,VWS V14.00,2013-01-03 07:38:00,
2013-01-03 02:39:00,58.4,56.1,30.07,ENE,60,4.0,6.0,92,0.00,,---,0.01,0.00,VWS V14.00,2013-01-03 07:39:00,
2013-01-03 02:40:00,58.3,56.0,30.07,ENE,60,3.0,6.0,92,0.00,,---,0.01,0.00,VWS V14.00,2013-01-03 07:40:00,
2013-01-03 02:41:00,58.3,56.0,30.07,ENE,60,4.0,6.0,92,0.00,,---,0.01,0.00,VWS V14.00,2013-01-03 07:41:00,
2013-01-03 02:42:00,58.3,56.0,30.06,ENE,60,3.0,6.0,92,0.00,,---,0.01,0.00,VWS V14.00,2013-01-03 07:42:00,
2013-01-03 02:43:00,58.3,56.0,30.06,ENE,60,5.0,6.0,92,0.00,,---,0.01,0.00,VWS V14.00,2013-01-03 07:43:00,
2013-01-03 02:44:00,58.3,56.0,30.07,ENE,60,3.0,6.0,92,0.00,,---,0.01,0.00,VWS V14.00,2013-01-03 07:44:00,
2013-01-03 02:45:00,58.3,56.0,30.06,ENE,60,3.0,6.0,92,0.00,,---,0.01,0.00,VWS V14.00,2013-01-03 07:45:00,
2013-01-03 02:46:00,58.3,56.0,30.07,ENE,60,5.0,6.0,92,0.00,,---,0.01,0.00,VWS V14.00,2013-01-03 07:46:00,
2013-01-03 02:47:00,58.3,56.0,30.07,ENE,60,5.0,6.0,92,0.00,,---,0.01,0.00,VWS V14.00,2013-01-03 07:47:00,
2013-01-03 02:48:00,58.2,55.9,30.07,ENE,60,5.0,6.0,92,0.00,,---,0.01,0.00,VWS V14.00,2013-01-03 07:48:00,
2013-01-03 02:49:00,58.3,56.0,30.06,ENE,58,6.0,6.0,92,0.00,,---,0.01,0.00,VWS V14.00,2013-01-03 07:49:00,
2013-01-03 02:50:00,58.3,56.0,30.06,ENE,58,7.0,7.0,92,0.00,,---,0.01,0.00,VWS V14.00,2013-01-03 07:50:00,
2013-01-03 02:51:00,58.2,55.9,30.06,NE,56,5.0,7.0,92,0.00,,---,0.01,0.00,VWS V14.00,2013-01-03 07:51:00,
2013-01-03 02:52:00,58.2,55.9,30.06,NE,56,4.0,7.0,92,0.00,,---,0.01,0.00,VWS V14.00,2013-01-03 07:52:00,
2013-01-03 02:53:00,58.2,55.9,30.06,NE,56,5.0,7.0,92,0.00,,---,0.01,0.00,VWS V14.00,2013-01-03 07:53:00,
2013-01-03 02:54:00,58.2,55.9,30.06,NE,56,4.0,7.0,92,0.00,,---,0.01,0.00,VWS V14.00,2013-01-03 07:54:00,
2013-01-03 02:55:00,58.2,55.9,30.07,NE,52,5.0,7.0,92,0.00,,---,0.01,0.00,VWS V14.00,2013-01-03 07:55:00,
2013-01-03 02:56:00,58.2,55.9,30.07,NE,52,4.0,7.0,92,0.00,,---,0.01,0.00,VWS V14.00,2013-01-03 07:56:00,
2013-01-03 02:57:00,58.2,55.9,30.07,NE,52,4.0,7.0,92,0.00,,---,0.01,0.00,VWS V14.00,2013-01-03 07:57:00,
2013-01-03 02:58:00,58.1,55.8,30.07,NE,52,3.0,7.0,92,0.00,,---,0.01,0.00,VWS V14.00,2013-01-03 07:58:00,
2013-01-03 02:59:00,58.1,55.8,30.07,NE,52,4.0,7.0,92,0.00,,---,0.01,0.00,VWS V14.00,2013-01-03 07:59:00,
2013-01-03 03:00:00,58.1,55.8,30.07,ENE,72,6.0,7.0,92,0.00,,---,0.01,0.00,VWS V14.00,2013-01-03 08:00:00,
2013-01-03 03:01:00,58.1,55.8,30.06,ENE,72,7.0,7.0,92,0.00,,---,0.01,0.00,VWS V14.00,2013-01-03 08:01:00,
2013-01-03 03:02:00,58.0,55.7,30.06,ENE,76,4.0,8.0,92,0.00,,---,0.01,0.00,VWS V14.00,2013-01-03 08:02:00,
2013-01-03 03:03:00,58.0,55.7,30.06,ENE,77,5.0,8.0,92,0.00,,---,0.01,0.00,VWS V14.00,2013-01-03 08:03:00,
2013-01-03 03:04:00,58.0,55.7,30.06,ENE,78,5.0,8.0,92,0.00,,---,0.01,0.00,VWS V14.00,2013-01-03 08:04:00,
2013-01-03 03:05:00,57.9,55.6,30.06,ENE,76,3.0,8.0,92,0.00,,---,0.01,0.00,VWS V14.00,2013-01-03 08:05:00,
2013-01-03 03:06:00,57.9,55.6,30.06,ENE,76,6.0,8.0,92,0.00,,---,0.01,0.00,VWS V14.00,2013-01-03 08:06:00,
2013-01-03 03:07:00,57.9,55.6,30.06,ENE,76,5.0,8.0,92,0.00,,---,0.01,0.00,VWS V14.00,2013-01-03 08:07:00,
2013-01-03 03:08:00,57.9,55.6,30.06,ENE,76,4.0,8.0,92,0.00,,---,0.01,0.00,VWS V14.00,2013-01-03 08:08:00,
2013-01-03 03:09:00,57.9,55.6,30.06,ENE,76,5.0,8.0,92,0.00,,---,0.01,0.00,VWS V14.00,2013-01-03 08:09:00,
2013-01-03 03:10:00,57.8,55.5,30.06,ENE,63,5.0,8.0,92,0.00,,---,0.01,0.00,VWS V14.00,2013-01-03 08:10:00,
2013-01-03 03:11:00,57.8,55.5,30.06,ENE,63,3.0,8.0,92,0.00,,---,0.01,0.00,VWS V14.00,2013-01-03 08:11:00,
2013-01-03 03:12:00,57.8,55.5,30.06,ENE,60,3.0,8.0,92,0.00,,---,0.01,0.00,VWS V14.00,2013-01-03 08:12:00,
2013-01-03 03:13:00,57.8,55.5,30.06,ENE,60,5.0,8.0,92,0.00,,---,0.01,0.00,VWS V14.00,2013-01-03 08:13:00,
2013-01-03 03:14:00,57.8,55.5,30.07,ENE,60,3.0,8.0,92,0.00,,---,0.01,0.00,VWS V14.00,2013-01-03 08:14:00,
2013-01-03 03:15:00,57.8,55.5,30.06,ENE,60,3.0,8.0,92,0.00,,---,0.01,0.00,VWS V14.00,2013-01-03 08:15:00,
2013-01-03 03:16:00,57.8,55.5,30.06,ENE,60,2.0,8.0,92,0.00,,---,0.01,0.00,VWS V14.00,2013-01-03 08:16:00,
2013-01-03 03:17:00,57.8,55.5,30.07,NE,44,5.0,8.0,92,0.00,,---,0.01,0.00,VWS V14.00,2013-01-03 08:17:00,
2013-01-03 03:18:00,57.8,55.5,30.06,NE,44,3.0,8.0,92,0.00,,---,0.01,0.00,VWS V14.00,2013-01-03 08:18:00,
2013-01-03 03:19:00,57.8,55.5,30.07,NE,44,3.0,8.0,92,0.00,,---,0.01,0.00,VWS V14.00,2013-01-03 08:19:00,
2013-01-03 03:20:00,57.8,55.5,30.07,NE,44,2.0,8.0,92,0.00,,---,0.01,0.00,VWS V14.00,2013-01-03 08:20:00,
2013-01-03 03:21:00,57.8,55.5,30.07,NE,44,3.0,8.0,92,0.00,,---,0.01,0.00,VWS V14.00,2013-01-03 08:21:00,
2013-01-03 03:22:00,57.8,55.5,30.07,NE,44,2.0,8.0,92,0.00,,---,0.01,0.00,VWS V14.00,2013-01-03 08:22:00,
2013-01-03 03:23:00,57.8,55.5,30.07,NE,44,2.0,8.0,92,0.00,,---,0.01,0.00,VWS V14.00,2013-01-03 08:23:00,
2013-01-03 03:24:00,57.8,55.5,30.07,NE,44,2.0,8.0,92,0.00,,---,0.01,0.00,VWS V14.00,2013-01-03 08:24:00,
2013-01-03 03:25:00,57.8,55.5,30.07,NE,44,2.0,8.0,92,0.00,,---,0.01,0.00,VWS V14.00,2013-01-03 08:25:00,
2013-01-03 03:26:00,57.8,55.5,30.07,NE,44,2.0,8.0,92,0.00,,---,0.01,0.00,VWS V14.00,2013-01-03 08:26:00,
2013-01-03 03:27:00,57.8,55.5,30.07,NE,44,2.0,8.0,92,0.00,,---,0.01,0.00,VWS V14.00,2013-01-03 08:27:00,
2013-01-03 03:28:00,57.8,55.5,30.07,NE,44,3.0,8.0,92,0.00,,---,0.01,0.00,VWS V14.00,2013-01-03 08:28:00,
2013-01-03 03:29:00,57.8,55.5,30.07,NE,44,4.0,8.0,92,0.00,,---,0.01,0.00,VWS V14.00,2013-01-03 08:29:00,
2013-01-03 03:30:00,57.8,55.5,30.07,NE,44,2.0,8.0,92,0.00,,---,0.01,0.00,VWS V14.00,2013-01-03 08:30:00,
2013-01-03 03:31:00,57.8,55.5,30.07,NE,42,6.0,6.0,92,0.00,,---,0.01,0.00,VWS V14.00,2013-01-03 08:31:00,
2013-01-03 03:32:00,57.8,55.5,30.07,NE,41,4.0,6.0,92,0.00,,---,0.01,0.00,VWS V14.00,2013-01-03 08:32:00,
2013-01-03 03:33:00,57.8,55.5,30.07,NE,41,2.0,6.0,92,0.00,,---,0.01,0.00,VWS V14.00,2013-01-03 08:33:00,
2013-01-03 03:34:00,57.8,55.5,30.07,NE,41,5.0,6.0,92,0.00,,---,0.01,0.00,VWS V14.00,2013-01-03 08:34:00,
2013-01-03 03:35:00,57.8,55.5,30.07,NE,42,6.0,8.0,92,0.00,,---,0.01,0.00,VWS V14.00,2013-01-03 08:35:00,
2013-01-03 03:36:00,57.8,55.5,30.07,NE,45,6.0,9.0,92,0.00,,---,0.01,0.00,VWS V14.00,2013-01-03 08:36:00,
2013-01-03 03:37:00,57.8,55.5,30.07,NE,45,4.0,9.0,92,0.00,,---,0.01,0.00,VWS V14.00,2013-01-03 08:37:00,
2013-01-03 03:38:00,57.8,55.5,30.07,NE,45,6.0,9.0,92,0.00,,---,0.01,0.00,VWS V14.00,2013-01-03 08:38:00,
2013-01-03 03:39:00,57.8,55.5,30.07,NE,47,7.0,9.0,92,0.00,,---,0.01,0.00,VWS V14.00,2013-01-03 08:39:00,
2013-01-03 03:40:00,57.8,55.5,30.07,NE,47,3.0,9.0,92,0.00,,---,0.01,0.00,VWS V14.00,2013-01-03 08:40:00,
2013-01-03 03:41:00,57.8,55.5,30.07,NE,47,4.0,9.0,92,0.00,,---,0.01,0.00,VWS V14.00,2013-01-03 08:41:00,
2013-01-03 03:42:00,57.8,55.5,30.07,NE,47,3.0,9.0,92,0.00,,---,0.01,0.00,VWS V14.00,2013-01-03 08:42:00,
2013-01-03 03:43:00,57.8,55.5,30.07,NE,47,3.0,9.0,92,0.00,,---,0.01,0.00,VWS V14.00,2013-01-03 08:43:00,
2013-01-03 03:44:00,57.8,55.5,30.07,NE,47,3.0,9.0,92,0.00,,---,0.01,0.00,VWS V14.00,2013-01-03 08:44:00,
2013-01-03 03:45:00,57.8,55.5,30.07,NE,47,3.0,9.0,92,0.00,,---,0.01,0.00,VWS V14.00,2013-01-03 08:45:00,
2013-01-03 03:46:00,57.8,55.5,30.07,NE,46,4.0,9.0,92,0.00,,---,0.01,0.00,VWS V14.00,2013-01-03 08:46:00,
2013-01-03 03:47:00,57.8,55.5,30.07,NE,46,4.0,9.0,92,0.00,,---,0.01,0.00,VWS V14.00,2013-01-03 08:47:00,
2013-01-03 03:48:00,57.8,55.5,30.07,NE,46,4.0,9.0,92,0.00,,---,0.01,0.00,VWS V14.00,2013-01-03 08:48:00,
2013-01-03 03:49:00,57.8,55.5,30.07,NE,46,4.0,9.0,92,0.00,,---,0.01,0.00,VWS V14.00,2013-01-03 08:49:00,
2013-01-03 03:50:00,57.8,55.5,30.07,NE,46,5.0,9.0,92,0.00,,---,0.01,0.00,VWS V14.00,2013-01-03 08:50:00,
2013-01-03 03:51:00,57.8,55.5,30.07,NE,46,3.0,9.0,92,0.00,,---,0.01,0.00,VWS V14.00,2013-01-03 08:51:00,
2013-01-03 03:52:00,57.8,55.5,30.07,NE,45,4.0,9.0,92,0.00,,---,0.01,0.00,VWS V14.00,2013-01-03 08:52:00,
2013-01-03 03:53:00,57.8,55.5,30.07,NE,45,3.0,9.0,92,0.00,,---,0.01,0.00,VWS V14.00,2013-01-03 08:53:00,
2013-01-03 03:54:00,57.8,55.5,30.07,NE,41,5.0,9.0,92,0.00,,---,0.01,0.00,VWS V14.00,2013-01-03 08:54:00,
2013-01-03 03:55:00,57.8,55.5,30.07,NE,40,6.0,9.0,92,0.00,,---,0.01,0.00,VWS V14.00,2013-01-03 08:55:00,
2013-01-03 03:56:00,57.8,55.5,30.07,NE,39,6.0,9.0,92,0.00,,---,0.01,0.00,VWS V14.00,2013-01-03 08:56:00,
2013-01-03 03:57:00,57.8,55.5,30.07,NE,36,5.0,9.0,92,0.00,,---,0.01,0.00,VWS V14.00,2013-01-03 08:57:00,
2013-01-03 03:58:00,57.8,55.5,30.07,NE,36,5.0,9.0,92,0.00,,---,0.01,0.00,VWS V14.00,2013-01-03 08:58:00,
2013-01-03 03:59:00,57.8,55.5,30.07,NE,35,5.0,9.0,92,0.00,,---,0.01,0.00,VWS V14.00,2013-01-03 08:59:00,
2013-01-03 04:00:00,57.8,55.5,30.07,NE,35,5.0,9.0,92,0.00,,---,0.01,0.00,VWS V14.00,2013-01-03 09:00:00,
2013-01-03 04:01:00,57.8,55.5,30.07,NE,35,4.0,6.0,92,0.00,,---,0.01,0.00,VWS V14.00,2013-01-03 09:01:00,
2013-01-03 04:02:00,57.8,55.5,30.07,NE,35,5.0,6.0,92,0.00,,---,0.01,0.00,VWS V14.00,2013-01-03 09:02:00,
2013-01-03 04:03:00,57.8,55.5,30.07,NE,35,5.0,6.0,92,0.00,,---,0.01,0.00,VWS V14.00,2013-01-03 09:03:00,
2013-01-03 04:04:00,57.8,55.5,30.07,NE,34,6.0,7.0,92,0.00,,---,0.01,0.00,VWS V14.00,2013-01-03 09:04:00,
2013-01-03 04:05:00,57.8,55.5,30.07,NNE,32,5.0,7.0,92,0.00,,---,0.01,0.00,VWS V14.00,2013-01-03 09:05:00,
2013-01-03 04:06:00,57.8,55.5,30.07,NNE,32,4.0,7.0,92,0.00,,---,0.01,0.00,VWS V14.00,2013-01-03 09:06:00,
2013-01-03 04:07:00,57.8,55.5,30.08,NNE,32,3.0,7.0,92,0.00,,---,0.01,0.00,VWS V14.00,2013-01-03 09:07:00,
2013-01-03 04:08:00,57.8,55.5,30.08,NNE,32,4.0,7.0,92,0.00,,---,0.01,0.00,VWS V14.00,2013-01-03 09:08:00,
2013-01-03 04:09:00,57.8,55.5,30.08,NNE,32,5.0,7.0,92,0.00,,---,0.01,0.00,VWS V14.00,2013-01-03 09:09:00,
2013-01-03 04:10:00,57.8,55.5,30.08,NNE,31,6.0,7.0,92,0.00,,---,0.01,0.00,VWS V14.00,2013-01-03 09:10:00,
2013-01-03 04:11:00,57.8,55.5,30.08,NNE,31,5.0,7.0,92,0.00,,---,0.01,0.00,VWS V14.00,2013-01-03 09:11:00,
2013-01-03 04:12:00,57.8,55.5,30.08,NNE,31,3.0,7.0,92,0.00,,---,0.01,0.00,VWS V14.00,2013-01-03 09:12:00,
2013-01-03 04:13:00,57.8,55.5,30.08,NNE,31,3.0,7.0,92,0.00,,---,0.01,0.00,VWS V14.00,2013-01-03 09:13:00,
2013-01-03 04:14:00,57.8,55.5,30.08,NNE,31,5.0,7.0,92,0.00,,---,0.01,0.00,VWS V14.00,2013-01-03 09:14:00,
2013-01-03 04:15:00,57.8,55.5,30.08,NNE,31,4.0,7.0,92,0.00,,---,0.01,0.00,VWS V14.00,2013-01-03 09:15:00,
2013-01-03 04:16:00,57.8,55.5,30.08,NNE,31,2.0,7.0,92,0.00,,---,0.01,0.00,VWS V14.00,2013-01-03 09:16:00,
2013-01-03 04:17:00,57.8,55.5,30.07,NNE,31,3.0,7.0,92,0.00,,---,0.01,0.00,VWS V14.00,2013-01-03 09:17:00,
2013-01-03 04:18:00,57.8,55.5,30.07,NNE,31,5.0,7.0,92,0.00,,---,0.01,0.00,VWS V14.00,2013-01-03 09:18:00,
2013-01-03 04:19:00,57.8,55.5,30.07,NNE,31,2.0,7.0,92,0.00,,---,0.01,0.00,VWS V14.00,2013-01-03 09:19:00,
2013-01-03 04:20:00,57.8,55.5,30.07,NNE,12,5.0,7.0,92,0.00,,---,0.01,0.00,VWS V14.00,2013-01-03 09:20:00,
2013-01-03 04:21:00,57.8,55.5,30.08,NNE,12,4.0,7.0,92,0.00,,---,0.01,0.00,VWS V14.00,2013-01-03 09:21:00,
2013-01-03 04:22:00,57.8,55.5,30.08,NNE,12,6.0,7.0,92,0.00,,---,0.01,0.00,VWS V14.00,2013-01-03 09:22:00,
2013-01-03 04:23:00,57.7,55.4,30.08,NNE,12,6.0,7.0,92,0.00,,---,0.01,0.00,VWS V14.00,2013-01-03 09:23:00,
2013-01-03 04:24:00,57.7,55.4,30.07,NNE,12,5.0,7.0,92,0.00,,---,0.01,0.00,VWS V14.00,2013-01-03 09:24:00,
2013-01-03 04:25:00,57.7,55.4,30.07,NNE,12,3.0,7.0,92,0.00,,---,0.01,0.00,VWS V14.00,2013-01-03 09:25:00,
2013-01-03 04:26:00,57.7,55.4,30.07,NNE,12,4.0,7.0,92,0.00,,---,0.01,0.00,VWS V14.00,2013-01-03 09:26:00,
2013-01-03 04:27:00,57.7,55.4,30.07,NNE,12,3.0,7.0,92,0.00,,---,0.01,0.00,VWS V14.00,2013-01-03 09:27:00,
2013-01-03 04:28:00,57.7,55.4,30.07,NNE,12,4.0,7.0,92,0.00,,---,0.01,0.00,VWS V14.00,2013-01-03 09:28:00,
2013-01-03 04:29:00,57.7,55.4,30.07,NNE,13,4.0,7.0,92,0.00,,---,0.01,0.00,VWS V14.00,2013-01-03 09:29:00,
2013-01-03 04:30:00,57.7,55.4,30.07,NNE,14,4.0,7.0,92,0.00,,---,0.01,0.00,VWS V14.00,2013-01-03 09:30:00,
2013-01-03 04:31:00,57.7,55.4,30.07,NE,39,6.0,7.0,92,0.00,,---,0.01,0.00,VWS V14.00,2013-01-03 09:31:00,
2013-01-03 04:32:00,57.7,55.4,30.07,NE,38,7.0,8.0,92,0.00,,---,0.01,0.00,VWS V14.00,2013-01-03 09:32:00,
2013-01-03 04:33:00,57.6,55.3,30.07,NNE,25,7.0,8.0,92,0.00,,---,0.01,0.00,VWS V14.00,2013-01-03 09:33:00,
2013-01-03 04:34:00,57.6,55.3,30.07,NNE,33,6.0,8.0,92,0.00,,---,0.01,0.00,VWS V14.00,2013-01-03 09:34:00,
2013-01-03 04:35:00,57.6,55.3,30.07,NNE,33,5.0,8.0,92,0.00,,---,0.01,0.00,VWS V14.00,2013-01-03 09:35:00,
2013-01-03 04:36:00,57.6,55.3,30.07,NE,38,6.0,8.0,92,0.00,,---,0.01,0.00,VWS V14.00,2013-01-03 09:36:00,
2013-01-03 04:37:00,57.6,55.3,30.07,NE,47,7.0,8.0,92,0.00,,---,0.01,0.00,VWS V14.00,2013-01-03 09:37:00,
2013-01-03 04:38:00,57.6,55.3,30.08,NE,45,6.0,8.0,92,0.00,,---,0.01,0.00,VWS V14.00,2013-01-03 09:38:00,
2013-01-03 04:39:00,57.6,55.3,30.08,NE,42,5.0,8.0,92,0.00,,---,0.01,0.00,VWS V14.00,2013-01-03 09:39:00,
2013-01-03 04:40:00,57.6,55.3,30.07,NE,42,3.0,8.0,92,0.00,,---,0.01,0.00,VWS V14.00,2013-01-03 09:40:00,
2013-01-03 04:41:00,57.6,55.3,30.08,NE,42,3.0,8.0,92,0.00,,---,0.01,0.00,VWS V14.00,2013-01-03 09:41:00,
2013-01-03 04:42:00,57.6,55.3,30.08,NE,43,3.0,8.0,92,0.00,,---,0.01,0.00,VWS V14.00,2013-01-03 09:42:00,
2013-01-03 04:43:00,57.6,55.3,30.08,NE,43,4.0,8.0,92,0.00,,---,0.01,0.00,VWS V14.00,2013-01-03 09:43:00,
2013-01-03 04:44:00,57.6,55.3,30.08,NE,43,4.0,8.0,92,0.00,,---,0.01,0.00,VWS V14.00,2013-01-03 09:44:00,
2013-01-03 04:45:00,57.6,55.3,30.08,NE,43,6.0,8.0,92,0.00,,---,0.01,0.00,VWS V14.00,2013-01-03 09:45:00,
2013-01-03 04:46:00,57.5,55.2,30.08,NE,43,4.0,8.0,92,0.00,,---,0.01,0.00,VWS V14.00,2013-01-03 09:46:00,
2013-01-03 04:47:00,57.5,55.2,30.08,NE,42,5.0,8.0,92,0.00,,---,0.01,0.00,VWS V14.00,2013-01-03 09:47:00,
2013-01-03 04:48:00,57.5,55.2,30.08,NE,43,6.0,8.0,92,0.00,,---,0.01,0.00,VWS V14.00,2013-01-03 09:48:00,
2013-01-03 04:49:00,57.5,55.2,30.08,NE,44,6.0,8.0,92,0.00,,---,0.01,0.00,VWS V14.00,2013-01-03 09:49:00,
2013-01-03 04:50:00,57.5,55.2,30.08,ENE,60,6.0,8.0,92,0.00,,---,0.01,0.00,VWS V14.00,2013-01-03 09:50:00,
2013-01-03 04:51:00,57.5,55.2,30.07,NE,55,7.0,9.0,92,0.00,,---,0.01,0.00,VWS V14.00,2013-01-03 09:51:00,
2013-01-03 04:52:00,57.5,55.2,30.07,NE,53,7.0,9.0,92,0.00,,---,0.01,0.00,VWS V14.00,2013-01-03 09:52:00,
2013-01-03 04:53:00,57.5,55.2,30.08,NE,53,4.0,9.0,92,0.00,,---,0.01,0.00,VWS V14.00,2013-01-03 09:53:00,
2013-01-03 04:54:00,57.5,55.2,30.08,NE,52,5.0,9.0,92,0.00,,---,0.01,0.00,VWS V14.00,2013-01-03 09:54:00,
2013-01-03 04:55:00,57.5,55.2,30.08,NE,52,4.0,9.0,92,0.00,,---,0.01,0.00,VWS V14.00,2013-01-03 09:55:00,
2013-01-03 04:56:00,57.5,55.2,30.08,NNE,29,5.0,9.0,92,0.00,,---,0.01,0.00,VWS V14.00,2013-01-03 09:56:00,
2013-01-03 04:57:00,57.5,55.2,30.08,NNE,29,5.0,9.0,92,0.00,,---,0.01,0.00,VWS V14.00,2013-01-03 09:57:00,
2013-01-03 04:58:00,57.4,55.1,30.07,NNE,29,4.0,9.0,92,0.00,,---,0.01,0.00,VWS V14.00,2013-01-03 09:58:00,
2013-01-03 04:59:00,57.4,55.1,30.07,NNE,29,4.0,9.0,92,0.00,,---,0.01,0.00,VWS V14.00,2013-01-03 09:59:00,
2013-01-03 05:00:00,57.4,55.1,30.07,NNE,23,6.0,9.0,92,0.00,,---,0.01,0.00,VWS V14.00,2013-01-03 10:00:00,
2013-01-03 05:01:00,57.4,55.1,30.07,NNE,23,6.0,7.0,92,0.00,,---,0.01,0.00,VWS V14.00,2013-01-03 10:01:00,
2013-01-03 05:02:00,57.4,55.1,30.08,NNE,25,7.0,7.0,92,0.00,,---,0.01,0.00,VWS V14.00,2013-01-03 10:02:00,
2013-01-03 05:03:00,57.4,55.1,30.08,NNE,27,4.0,7.0,92,0.00,,---,0.01,0.00,VWS V14.00,2013-01-03 10:03:00,
2013-01-03 05:04:00,57.3,55.0,30.07,NE,36,5.0,7.0,92,0.00,,---,0.01,0.00,VWS V14.00,2013-01-03 10:04:00,
2013-01-03 05:05:00,57.3,55.0,30.07,NNE,32,7.0,7.0,92,0.00,,---,0.01,0.00,VWS V14.00,2013-01-03 10:05:00,
2013-01-03 05:06:00,57.3,55.0,30.07,NNE,31,6.0,7.0,92,0.00,,---,0.01,0.00,VWS V14.00,2013-01-03 10:06:00,
2013-01-03 05:07:00,57.3,55.0,30.07,NE,40,6.0,9.0,92,0.00,,---,0.01,0.00,VWS V14.00,2013-01-03 10:07:00,
2013-01-03 05:08:00,57.2,54.9,30.07,NE,36,7.0,9.0,92,0.00,,---,0.01,0.00,VWS V14.00,2013-01-03 10:08:00,
2013-01-03 05:09:00,57.2,54.9,30.07,NE,35,7.0,10.0,92,0.00,,---,0.01,0.00,VWS V14.00,2013-01-03 10:09:00,
2013-01-03 05:10:00,57.1,54.8,30.07,NNE,23,7.0,10.0,92,0.00,,---,0.01,0.00,VWS V14.00,2013-01-03 10:10:00,
2013-01-03 05:11:00,57.0,54.7,30.07,NNE,23,7.0,10.0,92,0.00,,---,0.01,0.00,VWS V14.00,2013-01-03 10:11:00,
2013-01-03 05:12:00,57.0,54.7,30.07,NNE,22,8.0,10.0,92,0.00,,---,0.01,0.00,VWS V14.00,2013-01-03 10:12:00,
2013-01-03 05:13:00,57.0,54.7,30.08,NE,37,8.0,10.0,92,0.00,,---,0.01,0.00,VWS V14.00,2013-01-03 10:13:00,
2013-01-03 05:14:00,56.9,54.6,30.08,NE,38,9.0,10.0,92,0.00,,---,0.01,0.00,VWS V14.00,2013-01-03 10:14:00,
2013-01-03 05:15:00,56.9,54.6,30.08,NNE,25,6.0,10.0,92,0.00,,---,0.01,0.00,VWS V14.00,2013-01-03 10:15:00,
2013-01-03 05:16:00,56.9,54.6,30.08,NNE,21,8.0,10.0,92,0.00,,---,0.01,0.00,VWS V14.00,2013-01-03 10:16:00,
2013-01-03 05:17:00,56.9,54.6,30.08,NNE,33,7.0,10.0,92,0.00,,---,0.01,0.00,VWS V14.00,2013-01-03 10:17:00,
2013-01-03 05:18:00,56.9,54.6,30.08,NNE,31,7.0,10.0,92,0.00,,---,0.01,0.00,VWS V14.00,2013-01-03 10:18:00,
2013-01-03 05:19:00,56.9,54.6,30.08,NNE,30,7.0,10.0,92,0.00,,---,0.01,0.00,VWS V14.00,2013-01-03 10:19:00,
2013-01-03 05:20:00,56.9,54.6,30.08,NE,37,6.0,10.0,92,0.00,,---,0.01,0.00,VWS V14.00,2013-01-03 10:20:00,
2013-01-03 05:21:00,56.9,54.6,30.08,NE,35,6.0,10.0,92,0.00,,---,0.01,0.00,VWS V14.00,2013-01-03 10:21:00,
2013-01-03 05:22:00,56.9,54.6,30.08,NNE,33,7.0,10.0,92,0.00,,---,0.01,0.00,VWS V14.00,2013-01-03 10:22:00,
2013-01-03 05:23:00,56.9,54.6,30.08,NNE,31,4.0,10.0,92,0.00,,---,0.01,0.00,VWS V14.00,2013-01-03 10:23:00,
2013-01-03 05:24:00,56.9,54.6,30.08,NNE,31,5.0,10.0,92,0.00,,---,0.01,0.00,VWS V14.00,2013-01-03 10:24:00,
2013-01-03 05:25:00,56.9,54.6,30.08,NE,35,6.0,10.0,92,0.00,,---,0.01,0.00,VWS V14.00,2013-01-03 10:25:00,
2013-01-03 05:26:00,56.9,54.6,30.08,NNE,28,6.0,10.0,92,0.00,,---,0.01,0.00,VWS V14.00,2013-01-03 10:26:00,
2013-01-03 05:27:00,56.8,54.5,30.08,NNE,28,5.0,10.0,92,0.00,,---,0.01,0.00,VWS V14.00,2013-01-03 10:27:00,
2013-01-03 05:28:00,56.8,54.5,30.08,NNE,28,4.0,10.0,92,0.00,,---,0.01,0.00,VWS V14.00,2013-01-03 10:28:00,
2013-01-03 05:29:00,56.9,54.6,30.08,NNE,28,6.0,10.0,92,0.00,,---,0.01,0.00,VWS V14.00,2013-01-03 10:29:00,
2013-01-03 05:30:00,56.8,54.5,30.08,NNE,28,4.0,10.0,92,0.00,,---,0.01,0.00,VWS V14.00,2013-01-03 10:30:00,
2013-01-03 05:31:00,56.9,54.6,30.09,NNE,28,7.0,7.0,92,0.00,,---,0.01,0.00,VWS V14.00,2013-01-03 10:31:00,
2013-01-03 05:32:00,56.9,54.6,30.09,NNE,27,5.0,7.0,92,0.00,,---,0.01,0.00,VWS V14.00,2013-01-03 10:32:00,
2013-01-03 05:33:00,56.9,54.6,30.09,NNE,27,6.0,7.0,92,0.00,,---,0.01,0.00,VWS V14.00,2013-01-03 10:33:00,
2013-01-03 05:34:00,56.9,54.6,30.09,NNE,27,5.0,7.0,92,0.00,,---,0.01,0.00,VWS V14.00,2013-01-03 10:34:00,
2013-01-03 05:35:00,56.9,54.6,30.09,NNE,20,7.0,8.0,92,0.00,,---,0.01,0.00,VWS V14.00,2013-01-03 10:35:00,
2013-01-03 05:36:00,56.9,54.6,30.09,NNE,13,8.0,9.0,92,0.00,,---,0.01,0.00,VWS V14.00,2013-01-03 10:36:00,
2013-01-03 05:37:00,56.8,54.5,30.09,NNE,27,8.0,9.0,92,0.00,,---,0.01,0.00,VWS V14.00,2013-01-03 10:37:00,
2013-01-03 05:38:00,56.8,54.5,30.09,NNE,31,7.0,9.0,92,0.00,,---,0.01,0.00,VWS V14.00,2013-01-03 10:38:00,
2013-01-03 05:39:00,56.8,54.5,30.09,NNE,31,7.0,9.0,92,0.00,,---,0.01,0.00,VWS V14.00,2013-01-03 10:39:00,
2013-01-03 05:40:00,56.8,54.5,30.09,NNE,31,5.0,9.0,92,0.00,,---,0.01,0.00,VWS V14.00,2013-01-03 10:40:00,
2013-01-03 05:41:00,56.8,54.5,30.09,NNE,31,5.0,9.0,92,0.00,,---,0.01,0.00,VWS V14.00,2013-01-03 10:41:00,
2013-01-03 05:42:00,56.8,54.5,30.09,NNE,27,6.0,9.0,92,0.00,,---,0.01,0.00,VWS V14.00,2013-01-03 10:42:00,
2013-01-03 05:43:00,56.8,54.5,30.09,NNE,26,7.0,9.0,92,0.00,,---,0.01,0.00,VWS V14.00,2013-01-03 10:43:00,
2013-01-03 05:44:00,56.8,54.5,30.09,NNE,26,7.0,9.0,92,0.00,,---,0.01,0.00,VWS V14.00,2013-01-03 10:44:00,
2013-01-03 05:45:00,56.8,54.5,30.09,NNE,25,7.0,9.0,92,0.00,,---,0.01,0.00,VWS V14.00,2013-01-03 10:45:00,
2013-01-03 05:46:00,56.8,54.5,30.10,North,349,5.0,9.0,92,0.00,,---,0.01,0.00,VWS V14.00,2013-01-03 10:46:00,
2013-01-03 05:47:00,56.9,54.6,30.10,North,3,6.0,9.0,92,0.00,,---,0.01,0.00,VWS V14.00,2013-01-03 10:47:00,
2013-01-03 05:48:00,56.9,54.6,30.10,North,2,4.0,9.0,92,0.00,,---,0.01,0.00,VWS V14.00,2013-01-03 10:48:00,
2013-01-03 05:49:00,56.9,54.6,30.10,North,360,7.0,9.0,92,0.00,,---,0.01,0.00,VWS V14.00,2013-01-03 10:49:00,
2013-01-03 05:50:00,56.9,54.6,30.10,North,360,8.0,9.0,92,0.00,,---,0.01,0.00,VWS V14.00,2013-01-03 10:50:00,
2013-01-03 05:51:00,56.8,54.5,30.10,NNE,14,7.0,9.0,92,0.00,,---,0.01,0.00,VWS V14.00,2013-01-03 10:51:00,
2013-01-03 05:52:00,56.8,54.5,30.10,North,358,6.0,9.0,92,0.00,,---,0.01,0.00,VWS V14.00,2013-01-03 10:52:00,
2013-01-03 05:53:00,56.8,54.5,30.10,NNE,12,6.0,9.0,92,0.00,,---,0.01,0.00,VWS V14.00,2013-01-03 10:53:00,
2013-01-03 05:54:00,56.8,54.5,30.10,North,7,5.0,9.0,92,0.00,,---,0.01,0.00,VWS V14.00,2013-01-03 10:54:00,
2013-01-03 05:55:00,56.8,54.5,30.10,NNE,20,7.0,9.0,92,0.00,,---,0.01,0.00,VWS V14.00,2013-01-03 10:55:00,
2013-01-03 05:56:00,56.8,54.5,30.10,NNE,22,6.0,9.0,92,0.00,,---,0.01,0.00,VWS V14.00,2013-01-03 10:56:00,
2013-01-03 05:57:00,56.8,54.5,30.10,NNE,23,6.0,9.0,92,0.00,,---,0.01,0.00,VWS V14.00,2013-01-03 10:57:00,
2013-01-03 05:58:00,56.8,54.5,30.10,NNE,31,5.0,9.0,92,0.00,,---,0.01,0.00,VWS V14.00,2013-01-03 10:58:00,
2013-01-03 05:59:00,56.8,54.5,30.10,NNE,31,5.0,9.0,92,0.00,,---,0.01,0.00,VWS V14.00,2013-01-03 10:59:00,
2013-01-03 06:00:00,56.8,54.5,30.10,NNE,31,5.0,9.0,92,0.00,,---,0.01,0.00,VWS V14.00,2013-01-03 11:00:00,
2013-01-03 06:01:00,56.8,54.5,30.10,NNE,31,5.0,6.0,92,0.00,,---,0.01,0.00,VWS V14.00,2013-01-03 11:01:00,
2013-01-03 06:02:00,56.9,54.6,30.10,NE,50,8.0,8.0,92,0.00,,---,0.01,0.00,VWS V14.00,2013-01-03 11:02:00,
2013-01-03 06:03:00,56.8,54.5,30.10,NNE,32,6.0,8.0,92,0.00,,---,0.01,0.00,VWS V14.00,2013-01-03 11:03:00,
2013-01-03 06:04:00,56.8,54.5,30.10,NNE,32,5.0,8.0,92,0.00,,---,0.01,0.00,VWS V14.00,2013-01-03 11:04:00,
2013-01-03 06:05:00,56.8,54.5,30.09,NNE,32,5.0,8.0,92,0.00,,---,0.01,0.00,VWS V14.00,2013-01-03 11:05:00,
2013-01-03 06:06:00,56.8,54.5,30.09,NNE,32,4.0,8.0,92,0.00,,---,0.01,0.00,VWS V14.00,2013-01-03 11:06:00,
2013-01-03 06:07:00,56.8,54.5,30.09,NNE,32,3.0,8.0,92,0.00,,---,0.01,0.00,VWS V14.00,2013-01-03 11:07:00,
2013-01-03 06:08:00,56.9,54.6,30.09,NNE,32,4.0,8.0,92,0.00,,---,0.01,0.00,VWS V14.00,2013-01-03 11:08:00,
2013-01-03 06:09:00,56.9,54.6,30.09,NNE,32,4.0,8.0,92,0.00,,---,0.01,0.00,VWS V14.00,2013-01-03 11:09:00,
2013-01-03 06:10:00,56.9,54.6,30.09,NNE,33,4.0,8.0,92,0.00,,---,0.01,0.00,VWS V14.00,2013-01-03 11:10:00,
2013-01-03 06:11:00,56.8,54.5,30.09,NNE,33,4.0,8.0,92,0.00,,---,0.01,0.00,VWS V14.00,2013-01-03 11:11:00,
2013-01-03 06:12:00,56.8,54.5,30.09,NE,52,5.0,8.0,92,0.00,,---,0.01,0.00,VWS V14.00,2013-01-03 11:12:00,
2013-01-03 06:13:00,56.8,54.5,30.09,NE,52,4.0,8.0,92,0.00,,---,0.01,0.00,VWS V14.00,2013-01-03 11:13:00,
2013-01-03 06:14:00,56.9,54.6,30.09,NE,53,4.0,8.0,92,0.00,,---,0.01,0.00,VWS V14.00,2013-01-03 11:14:00,
2013-01-03 06:15:00,56.8,54.5,30.08,ENE,62,5.0,8.0,92,0.00,,---,0.01,0.00,VWS V14.00,2013-01-03 11:15:00,
2013-01-03 06:16:00,56.8,54.5,30.09,ENE,62,4.0,8.0,92,0.00,,---,0.01,0.00,VWS V14.00,2013-01-03 11:16:00,
2013-01-03 06:17:00,56.8,54.5,30.08,ENE,62,5.0,8.0,92,0.00,,---,0.01,0.00,VWS V14.00,2013-01-03 11:17:00,
2013-01-03 06:18:00,56.8,54.5,30.08,ENE,63,3.0,8.0,92,0.00,,---,0.01,0.00,VWS V14.00,2013-01-03 11:18:00,
2013-01-03 06:19:00,56.8,54.5,30.08,ENE,64,3.0,8.0,92,0.00,,---,0.01,0.00,VWS V14.00,2013-01-03 11:19:00,
2013-01-03 06:20:00,56.9,54.6,30.08,ENE,60,5.0,8.0,92,0.00,,---,0.01,0.00,VWS V14.00,2013-01-03 11:20:00,
2013-01-03 06:21:00,56.8,54.5,30.08,ENE,61,5.0,8.0,92,0.00,,---,0.01,0.00,VWS V14.00,2013-01-03 11:21:00,
2013-01-03 06:22:00,56.8,54.5,30.08,ENE,61,4.0,8.0,92,0.00,,---,0.01,0.00,VWS V14.00,2013-01-03 11:22:00,
2013-01-03 06:23:00,56.8,54.5,30.08,ENE,61,5.0,8.0,92,0.00,,---,0.01,0.00,VWS V14.00,2013-01-03 11:23:00,
2013-01-03 06:24:00,56.8,54.5,30.08,ENE,61,5.0,8.0,92,0.00,,---,0.01,0.00,VWS V14.00,2013-01-03 11:24:00,
2013-01-03 06:25:00,56.8,54.5,30.09,ENE,61,3.0,8.0,92,0.00,,---,0.01,0.00,VWS V14.00,2013-01-03 11:25:00,
2013-01-03 06:26:00,56.8,54.5,30.09,ENE,61,5.0,8.0,92,0.00,,---,0.01,0.00,VWS V14.00,2013-01-03 11:26:00,
2013-01-03 06:27:00,56.8,54.5,30.09,ENE,60,3.0,8.0,92,0.00,,---,0.01,0.00,VWS V14.00,2013-01-03 11:27:00,
2013-01-03 06:28:00,56.8,54.5,30.09,ENE,60,2.0,8.0,92,0.00,,---,0.01,0.00,VWS V14.00,2013-01-03 11:28:00,
2013-01-03 06:29:00,56.8,54.5,30.09,ENE,60,1.0,8.0,92,0.00,,---,0.01,0.00,VWS V14.00,2013-01-03 11:29:00,
2013-01-03 06:30:00,56.8,54.5,30.09,ENE,60,4.0,8.0,92,0.00,,---,0.01,0.00,VWS V14.00,2013-01-03 11:30:00,
2013-01-03 06:31:00,56.8,54.5,30.09,ENE,60,4.0,5.0,92,0.00,,---,0.01,0.00,VWS V14.00,2013-01-03 11:31:00,
2013-01-03 06:32:00,56.7,54.4,30.09,ENE,60,2.0,5.0,92,0.00,,---,0.01,0.00,VWS V14.00,2013-01-03 11:32:00,
2013-01-03 06:33:00,56.8,54.5,30.09,ENE,60,3.0,5.0,92,0.00,,---,0.01,0.00,VWS V14.00,2013-01-03 11:33:00,
2013-01-03 06:34:00,56.7,54.4,30.09,ENE,60,3.0,5.0,92,0.00,,---,0.01,0.00,VWS V14.00,2013-01-03 11:34:00,
2013-01-03 06:35:00,56.7,54.4,30.09,ENE,60,2.0,5.0,92,0.00,,---,0.01,0.00,VWS V14.00,2013-01-03 11:35:00,
2013-01-03 06:36:00,56.7,54.4,30.09,ENE,60,3.0,5.0,92,0.00,,---,0.01,0.00,VWS V14.00,2013-01-03 11:36:00,
2013-01-03 06:37:00,56.8,54.5,30.09,ENE,60,3.0,5.0,92,0.00,,---,0.01,0.00,VWS V14.00,2013-01-03 11:37:00,
2013-01-03 06:38:00,56.7,54.4,30.09,ENE,60,2.0,5.0,92,0.00,,---,0.01,0.00,VWS V14.00,2013-01-03 11:38:00,
2013-01-03 06:39:00,56.7,54.4,30.09,ENE,60,2.0,5.0,92,0.00,,---,0.01,0.00,VWS V14.00,2013-01-03 11:39:00,
2013-01-03 06:40:00,56.8,54.5,30.09,ENE,60,5.0,5.0,92,0.00,,---,0.01,0.00,VWS V14.00,2013-01-03 11:40:00,
2013-01-03 06:41:00,56.8,54.5,30.09,ENE,60,3.0,5.0,92,0.00,,---,0.01,0.00,VWS V14.00,2013-01-03 11:41:00,
2013-01-03 06:42:00,56.8,54.5,30.09,ENE,60,4.0,5.0,92,0.00,,---,0.01,0.00,VWS V14.00,2013-01-03 11:42:00,
2013-01-03 06:43:00,56.8,54.5,30.09,ENE,60,3.0,5.0,92,0.00,,---,0.01,0.00,VWS V14.00,2013-01-03 11:43:00,
2013-01-03 06:44:00,56.7,54.4,30.09,ENE,60,3.0,5.0,92,0.00,,---,0.01,0.00,VWS V14.00,2013-01-03 11:44:00,
2013-01-03 06:45:00,56.7,54.4,30.10,ENE,58,4.0,5.0,92,0.00,,---,0.01,0.00,VWS V14.00,2013-01-03 11:45:00,
2013-01-03 06:46:00,56.7,54.4,30.10,ENE,58,3.0,5.0,92,0.00,,---,0.01,0.00,VWS V14.00,2013-01-03 11:46:00,
2013-01-03 06:47:00,56.7,54.4,30.10,ENE,58,3.0,5.0,92,0.00,,---,0.01,0.00,VWS V14.00,2013-01-03 11:47:00,
2013-01-03 06:48:00,56.8,54.5,30.10,ENE,57,4.0,5.0,92,0.00,,---,0.01,0.00,VWS V14.00,2013-01-03 11:48:00,
2013-01-03 06:49:00,56.8,54.5,30.10,ENE,57,4.0,5.0,92,0.00,,---,0.01,0.00,VWS V14.00,2013-01-03 11:49:00,
2013-01-03 06:50:00,56.8,54.5,30.10,ENE,57,4.0,5.0,92,0.00,,---,0.01,0.00,VWS V14.00,2013-01-03 11:50:00,
2013-01-03 06:51:00,56.8,54.5,30.10,ENE,57,3.0,5.0,92,0.00,,---,0.01,0.00,VWS V14.00,2013-01-03 11:51:00,
2013-01-03 06:52:00,56.8,54.5,30.10,NE,56,5.0,6.0,92,0.00,,---,0.01,0.00,VWS V14.00,2013-01-03 11:52:00,
2013-01-03 06:53:00,56.8,54.5,30.10,NNE,31,4.0,6.0,92,0.00,,---,0.01,0.00,VWS V14.00,2013-01-03 11:53:00,
2013-01-03 06:54:00,56.8,54.5,30.10,NNE,31,5.0,6.0,92,0.00,,---,0.01,0.00,VWS V14.00,2013-01-03 11:54:00,
2013-01-03 06:55:00,56.8,54.5,30.10,NNE,31,3.0,6.0,92,0.00,,---,0.01,0.00,VWS V14.00,2013-01-03 11:55:00,
2013-01-03 06:56:00,56.8,54.5,30.10,NNE,31,5.0,6.0,92,0.00,,---,0.01,0.00,VWS V14.00,2013-01-03 11:56:00,
2013-01-03 06:57:00,56.8,54.5,30.10,North,353,4.0,8.0,92,0.00,,---,0.01,0.00,VWS V14.00,2013-01-03 11:57:00,
2013-01-03 06:58:00,56.8,54.5,30.11,North,353,4.0,8.0,92,0.00,,---,0.01,0.00,VWS V14.00,2013-01-03 11:58:00,
2013-01-03 06:59:00,56.9,54.6,30.11,North,353,4.0,8.0,92,0.00,,---,0.01,0.00,VWS V14.00,2013-01-03 11:59:00,
2013-01-03 07:00:00,56.9,54.6,30.11,North,353,4.0,8.0,92,0.00,,---,0.01,0.00,VWS V14.00,2013-01-03 12:00:00,
2013-01-03 07:01:00,56.9,54.6,30.11,North,353,4.0,5.0,92,0.00,,---,0.01,0.00,VWS V14.00,2013-01-03 12:01:00,
2013-01-03 07:02:00,56.9,54.6,30.11,North,353,5.0,6.0,92,0.00,,---,0.01,0.00,VWS V14.00,2013-01-03 12:02:00,
2013-01-03 07:03:00,56.9,54.6,30.11,North,352,4.0,7.0,92,0.00,,---,0.01,0.00,VWS V14.00,2013-01-03 12:03:00,
2013-01-03 07:04:00,56.9,54.6,30.11,North,352,4.0,7.0,92,0.00,,---,0.01,0.00,VWS V14.00,2013-01-03 12:04:00,
2013-01-03 07:05:00,56.9,54.6,30.11,North,352,4.0,7.0,92,0.00,,---,0.01,0.00,VWS V14.00,2013-01-03 12:05:00,
2013-01-03 07:06:00,56.9,54.6,30.11,North,352,6.0,7.0,92,0.00,,---,0.01,0.00,VWS V14.00,2013-01-03 12:06:00,
2013-01-03 07:07:00,56.9,54.6,30.11,North,351,6.0,7.0,92,0.00,,---,0.01,0.00,VWS V14.00,2013-01-03 12:07:00,
2013-01-03 07:08:00,56.9,54.6,30.11,North,351,5.0,7.0,92,0.00,,---,0.01,0.00,VWS V14.00,2013-01-03 12:08:00,
2013-01-03 07:09:00,56.9,54.6,30.11,North,351,4.0,7.0,92,0.00,,---,0.01,0.00,VWS V14.00,2013-01-03 12:09:00,
2013-01-03 07:10:00,56.9,54.6,30.11,NNW,343,6.0,7.0,92,0.00,,---,0.01,0.00,VWS V14.00,2013-01-03 12:10:00,
2013-01-03 07:11:00,56.9,54.6,30.11,NNW,343,5.0,7.0,92,0.00,,---,0.01,0.00,VWS V14.00,2013-01-03 12:11:00,
2013-01-03 07:12:00,56.9,54.6,30.11,NNW,343,4.0,7.0,92,0.00,,---,0.01,0.00,VWS V14.00,2013-01-03 12:12:00,
2013-01-03 07:13:00,56.9,54.6,30.11,NNW,343,7.0,7.0,92,0.00,,---,0.01,0.00,VWS V14.00,2013-01-03 12:13:00,
2013-01-03 07:14:00,56.9,54.6,30.12,North,358,6.0,8.0,92,0.00,,---,0.01,0.00,VWS V14.00,2013-01-03 12:14:00,
2013-01-03 07:15:00,56.9,54.6,30.12,North,352,6.0,8.0,92,0.00,,---,0.01,0.00,VWS V14.00,2013-01-03 12:15:00,
2013-01-03 07:16:00,56.9,54.6,30.12,North,352,5.0,8.0,92,0.00,,---,0.01,0.00,VWS V14.00,2013-01-03 12:16:00,
2013-01-03 07:17:00,56.9,54.6,30.12,North,352,5.0,8.0,92,0.00,,---,0.01,0.00,VWS V14.00,2013-01-03 12:17:00,
2013-01-03 07:18:00,56.9,54.6,30.12,North,349,6.0,8.0,92,0.00,,---,0.01,0.00,VWS V14.00,2013-01-03 12:18:00,
2013-01-03 07:19:00,56.9,54.6,30.12,North,4,7.0,8.0,92,0.00,,---,0.01,0.00,VWS V14.00,2013-01-03 12:19:00,
2013-01-03 07:20:00,56.9,54.6,30.12,North,2,6.0,8.0,92,0.00,,---,0.01,0.00,VWS V14.00,2013-01-03 12:20:00,
2013-01-03 07:21:00,56.9,54.6,30.12,North,2,5.0,8.0,92,0.00,,---,0.01,0.00,VWS V14.00,2013-01-03 12:21:00,
2013-01-03 07:22:00,56.9,54.6,30.12,North,360,6.0,8.0,92,0.00,,---,0.01,0.00,VWS V14.00,2013-01-03 12:22:00,
2013-01-03 07:23:00,56.9,54.6,30.12,North,349,6.0,8.0,92,0.00,,---,0.01,0.00,VWS V14.00,2013-01-03 12:23:00,
2013-01-03 07:24:00,56.9,54.6,30.12,NNW,346,6.0,8.0,92,0.00,,---,0.01,0.00,VWS V14.00,2013-01-03 12:24:00,
2013-01-03 07:25:00,56.9,54.6,30.12,NNW,343,9.0,9.0,92,0.00,,---,0.01,0.00,VWS V14.00,2013-01-03 12:25:00,
2013-01-03 07:26:00,56.9,54.6,30.12,NNW,330,7.0,11.0,92,0.00,,---,0.01,0.00,VWS V14.00,2013-01-03 12:26:00,
2013-01-03 07:27:00,56.9,54.6,30.12,NNW,329,7.0,11.0,92,0.00,,---,0.01,0.00,VWS V14.00,2013-01-03 12:27:00,
2013-01-03 07:28:00,56.9,54.6,30.12,North,349,6.0,11.0,92,0.00,,---,0.01,0.00,VWS V14.00,2013-01-03 12:28:00,
2013-01-03 07:29:00,56.9,54.3,30.12,NNW,345,6.0,11.0,91,0.00,,---,0.01,0.00,VWS V14.00,2013-01-03 12:29:00,
2013-01-03 07:30:00,56.9,54.3,30.12,NNW,347,7.0,11.0,91,0.00,,---,0.01,0.00,VWS V14.00,2013-01-03 12:30:00,
2013-01-03 07:31:00,56.8,54.2,30.12,North,1,8.0,9.0,91,0.00,,---,0.01,0.00,VWS V14.00,2013-01-03 12:31:00,
2013-01-03 07:32:00,56.8,54.2,30.12,North,1,7.0,9.0,91,0.00,,---,0.01,0.00,VWS V14.00,2013-01-03 12:32:00,
2013-01-03 07:33:00,56.8,54.2,30.12,North,1,4.0,9.0,91,0.00,,---,0.01,0.00,VWS V14.00,2013-01-03 12:33:00,
2013-01-03 07:34:00,56.9,54.3,30.12,North,2,7.0,9.0,91,0.00,,---,0.01,0.00,VWS V14.00,2013-01-03 12:34:00,
2013-01-03 07:35:00,56.8,54.2,30.12,North,1,5.0,9.0,91,0.00,,---,0.01,0.00,VWS V14.00,2013-01-03 12:35:00,
2013-01-03 07:36:00,56.9,54.3,30.13,North,1,4.0,9.0,91,0.00,,---,0.01,0.00,VWS V14.00,2013-01-03 12:36:00,
2013-01-03 07:37:00,56.9,54.3,30.12,North,353,4.0,9.0,91,0.00,,---,0.01,5.00,VWS V14.00,2013-01-03 12:37:00,
2013-01-03 07:38:00,56.9,54.3,30.12,North,352,4.0,9.0,91,0.00,,---,0.01,5.00,VWS V14.00,2013-01-03 12:38:00,
2013-01-03 07:39:00,56.9,54.3,30.13,NNE,12,5.0,9.0,91,0.00,,---,0.01,5.00,VWS V14.00,2013-01-03 12:39:00,
2013-01-03 07:40:00,56.9,54.3,30.12,NNW,342,5.0,9.0,91,0.00,,---,0.01,7.00,VWS V14.00,2013-01-03 12:40:00,
2013-01-03 07:41:00,56.9,54.3,30.13,NNW,343,6.0,9.0,91,0.00,,---,0.01,7.00,VWS V14.00,2013-01-03 12:41:00,
2013-01-03 07:42:00,56.9,54.3,30.13,NNW,342,5.0,9.0,91,0.00,,---,0.01,7.00,VWS V14.00,2013-01-03 12:42:00,
2013-01-03 07:43:00,56.9,54.3,30.12,North,357,6.0,9.0,91,0.00,,---,0.01,7.00,VWS V14.00,2013-01-03 12:43:00,
2013-01-03 07:44:00,56.9,54.3,30.12,North,354,7.0,9.0,91,0.00,,---,0.01,9.00,VWS V14.00,2013-01-03 12:44:00,
2013-01-03 07:45:00,56.8,54.2,30.12,North,359,6.0,9.0,91,0.00,,---,0.01,9.00,VWS V14.00,2013-01-03 12:45:00,
2013-01-03 07:46:00,56.8,54.2,30.12,North,359,6.0,9.0,91,0.00,,---,0.01,11.00,VWS V14.00,2013-01-03 12:46:00,
2013-01-03 07:47:00,56.8,54.2,30.12,North,360,6.0,9.0,91,0.00,,---,0.01,11.00,VWS V14.00,2013-01-03 12:47:00,
2013-01-03 07:48:00,56.8,54.2,30.12,North,357,6.0,9.0,91,0.00,,---,0.01,11.00,VWS V14.00,2013-01-03 12:48:00,
2013-01-03 07:49:00,56.8,54.2,30.12,NNW,343,5.0,9.0,91,0.00,,---,0.01,11.00,VWS V14.00,2013-01-03 12:49:00,
2013-01-03 07:50:00,56.8,54.2,30.12,North,358,6.0,9.0,91,0.00,,---,0.01,11.00,VWS V14.00,2013-01-03 12:50:00,
2013-01-03 07:51:00,56.8,54.2,30.12,NNE,14,6.0,9.0,91,0.00,,---,0.01,12.00,VWS V14.00,2013-01-03 12:51:00,
2013-01-03 07:52:00,56.8,54.2,30.12,NNE,14,6.0,9.0,91,0.00,,---,0.01,12.00,VWS V14.00,2013-01-03 12:52:00,
2013-01-03 07:53:00,56.8,54.2,30.12,NNE,14,5.0,9.0,91,0.00,,---,0.01,12.00,VWS V14.00,2013-01-03 12:53:00,
2013-01-03 07:54:00,56.8,54.2,30.12,NNE,14,4.0,9.0,91,0.00,,---,0.01,12.00,VWS V14.00,2013-01-03 12:54:00,
2013-01-03 07:55:00,56.8,54.2,30.12,NNE,14,5.0,9.0,91,0.00,,---,0.01,14.00,VWS V14.00,2013-01-03 12:55:00,
2013-01-03 07:56:00,56.8,54.2,30.12,NNE,14,3.0,9.0,91,0.00,,---,0.01,16.00,VWS V14.00,2013-01-03 12:56:00,
2013-01-03 07:57:00,56.8,54.2,30.12,NNE,14,6.0,9.0,91,0.00,,---,0.01,16.00,VWS V14.00,2013-01-03 12:57:00,
2013-01-03 07:58:00,56.8,54.2,30.12,NNE,14,4.0,9.0,91,0.00,,---,0.01,14.00,VWS V14.00,2013-01-03 12:58:00,
2013-01-03 07:59:00,56.8,54.2,30.12,NNE,14,3.0,9.0,91,0.00,,---,0.01,14.00,VWS V14.00,2013-01-03 12:59:00,
2013-01-03 08:00:00,56.8,54.2,30.13,NNE,14,3.0,9.0,91,0.00,,---,0.01,14.00,VWS V14.00,2013-01-03 13:00:00,
2013-01-03 08:01:00,56.8,54.2,30.12,NNE,14,4.0,5.0,91,0.00,,---,0.01,14.00,VWS V14.00,2013-01-03 13:01:00,
2013-01-03 08:02:00,56.8,54.2,30.13,NNE,14,3.0,5.0,91,0.00,,---,0.01,14.00,VWS V14.00,2013-01-03 13:02:00,
2013-01-03 08:03:00,56.7,54.1,30.13,NNE,14,3.0,6.0,91,0.00,,---,0.01,16.00,VWS V14.00,2013-01-03 13:03:00,
2013-01-03 08:04:00,56.7,54.1,30.13,NNE,14,4.0,6.0,91,0.00,,---,0.01,16.00,VWS V14.00,2013-01-03 13:04:00,
2013-01-03 08:05:00,56.8,54.2,30.13,NNE,14,4.0,6.0,91,0.00,,---,0.01,16.00,VWS V14.00,2013-01-03 13:05:00,
2013-01-03 08:06:00,56.7,54.1,30.13,NNE,14,1.0,6.0,91,0.00,,---,0.01,16.00,VWS V14.00,2013-01-03 13:06:00,
2013-01-03 08:07:00,56.8,54.2,30.13,NNE,14,4.0,6.0,91,0.00,,---,0.01,18.00,VWS V14.00,2013-01-03 13:07:00,
2013-01-03 08:08:00,56.8,54.2,30.13,NNE,14,4.0,6.0,91,0.00,,---,0.01,19.00,VWS V14.00,2013-01-03 13:08:00,
2013-01-03 08:09:00,56.8,54.2,30.13,NNE,14,6.0,6.0,91,0.00,,---,0.01,19.00,VWS V14.00,2013-01-03 13:09:00,
2013-01-03 08:10:00,56.8,54.2,30.13,NNE,14,4.0,6.0,91,0.00,,---,0.01,19.00,VWS V14.00,2013-01-03 13:10:00,
2013-01-03 08:11:00,56.7,54.1,30.13,NNW,344,5.0,8.0,91,0.00,,---,0.01,19.00,VWS V14.00,2013-01-03 13:11:00,
2013-01-03 08:12:00,56.8,54.2,30.13,NNW,345,6.0,8.0,91,0.00,,---,0.01,21.00,VWS V14.00,2013-01-03 13:12:00,
2013-01-03 08:13:00,56.8,54.2,30.13,North,10,6.0,8.0,91,0.00,,---,0.01,25.00,VWS V14.00,2013-01-03 13:13:00,
2013-01-03 08:14:00,56.8,54.2,30.13,North,10,7.0,8.0,91,0.00,,---,0.01,25.00,VWS V14.00,2013-01-03 13:14:00,
2013-01-03 08:15:00,56.8,54.2,30.13,North,8,7.0,8.0,91,0.00,,---,0.01,26.00,VWS V14.00,2013-01-03 13:15:00,
2013-01-03 08:16:00,56.8,54.2,30.13,North,8,7.0,8.0,91,0.00,,---,0.01,28.00,VWS V14.00,2013-01-03 13:16:00,
2013-01-03 08:17:00,56.8,54.2,30.13,North,8,5.0,8.0,91,0.00,,---,0.01,30.00,VWS V14.00,2013-01-03 13:17:00,
2013-01-03 08:18:00,56.8,54.2,30.12,North,8,5.0,8.0,91,0.00,,---,0.01,40.00,VWS V14.00,2013-01-03 13:18:00,
2013-01-03 08:19:00,56.8,54.2,30.12,North,8,4.0,8.0,91,0.00,,---,0.01,44.00,VWS V14.00,2013-01-03 13:19:00,
2013-01-03 08:20:00,56.8,54.2,30.12,North,8,3.0,8.0,91,0.00,,---,0.01,44.00,VWS V14.00,2013-01-03 13:20:00,
2013-01-03 08:21:00,56.8,54.2,30.12,North,8,5.0,8.0,91,0.00,,---,0.01,47.00,VWS V14.00,2013-01-03 13:21:00,
2013-01-03 08:22:00,56.8,54.2,30.11,North,10,4.0,8.0,91,0.00,,---,0.01,56.00,VWS V14.00,2013-01-03 13:22:00,
2013-01-03 08:23:00,56.8,54.2,30.11,NNE,14,5.0,9.0,91,0.00,,---,0.01,67.00,VWS V14.00,2013-01-03 13:23:00,
2013-01-03 08:24:00,56.8,54.2,30.12,NNE,15,6.0,9.0,91,0.00,,---,0.01,97.00,VWS V14.00,2013-01-03 13:24:00,
2013-01-03 08:25:00,56.8,54.2,30.12,NNE,13,6.0,9.0,91,0.00,,---,0.01,97.00,VWS V14.00,2013-01-03 13:25:00,
2013-01-03 08:26:00,56.8,54.2,30.12,NNE,14,5.0,9.0,91,0.00,,---,0.01,97.00,VWS V14.00,2013-01-03 13:26:00,
2013-01-03 08:27:00,56.9,54.3,30.12,NNE,14,4.0,9.0,91,0.00,,---,0.01,91.00,VWS V14.00,2013-01-03 13:27:00,
2013-01-03 08:28:00,56.9,54.3,30.12,NNE,14,3.0,9.0,91,0.00,,---,0.01,86.00,VWS V14.00,2013-01-03 13:28:00,
2013-01-03 08:29:00,56.9,54.3,30.12,NNE,14,4.0,9.0,91,0.00,,---,0.01,91.00,VWS V14.00,2013-01-03 13:29:00,
2013-01-03 08:30:00,56.9,54.3,30.12,NNE,14,5.0,9.0,91,0.00,,---,0.01,100.00,VWS V14.00,2013-01-03 13:30:00,
2013-01-03 08:31:00,56.9,54.3,30.12,NNE,14,3.0,5.0,91,0.00,,---,0.01,98.00,VWS V14.00,2013-01-03 13:31:00,
2013-01-03 08:32:00,56.9,54.3,30.12,NNE,14,2.0,5.0,91,0.00,,---,0.01,100.00,VWS V14.00,2013-01-03 13:32:00,
2013-01-03 08:33:00,56.9,54.3,30.12,NNE,14,2.0,5.0,91,0.00,,---,0.01,91.00,VWS V14.00,2013-01-03 13:33:00,
2013-01-03 08:34:00,56.9,54.3,30.13,NNE,14,0.0,5.0,91,0.00,,---,0.01,91.00,VWS V14.00,2013-01-03 13:34:00,
2013-01-03 08:35:00,56.9,54.3,30.13,NNE,14,0.0,5.0,91,0.00,,---,0.01,81.00,VWS V14.00,2013-01-03 13:35:00,
2013-01-03 08:36:00,56.9,54.3,30.13,NNE,14,0.0,5.0,91,0.00,,---,0.01,70.00,VWS V14.00,2013-01-03 13:36:00,
2013-01-03 08:37:00,57.0,54.4,30.13,NNE,14,1.0,5.0,91,0.00,,---,0.01,70.00,VWS V14.00,2013-01-03 13:37:00,
2013-01-03 08:38:00,57.0,54.4,30.14,NNE,14,2.0,5.0,91,0.00,,---,0.01,65.00,VWS V14.00,2013-01-03 13:38:00,
2013-01-03 08:39:00,57.0,54.4,30.14,NNE,14,2.0,5.0,91,0.00,,---,0.01,65.00,VWS V14.00,2013-01-03 13:39:00,
2013-01-03 08:40:00,57.0,54.4,30.14,NNE,14,0.0,5.0,91,0.00,,---,0.01,65.00,VWS V14.00,2013-01-03 13:40:00,
2013-01-03 08:41:00,57.0,54.4,30.14,NNE,14,2.0,5.0,91,0.00,,---,0.01,67.00,VWS V14.00,2013-01-03 13:41:00,
2013-01-03 08:42:00,57.0,54.4,30.14,NNE,13,6.0,7.0,91,0.00,,---,0.01,74.00,VWS V14.00,2013-01-03 13:42:00,
2013-01-03 08:43:00,57.1,54.5,30.14,NNE,12,3.0,7.0,91,0.00,,---,0.01,74.00,VWS V14.00,2013-01-03 13:43:00,
2013-01-03 08:44:00,57.0,54.4,30.14,NNE,12,2.0,7.0,91,0.00,,---,0.01,65.00,VWS V14.00,2013-01-03 13:44:00,
2013-01-03 08:45:00,57.1,54.5,30.14,NNE,12,2.0,7.0,91,0.00,,---,0.01,58.00,VWS V14.00,2013-01-03 13:45:00,
2013-01-03 08:46:00,57.1,54.5,30.15,NNE,12,4.0,7.0,91,0.00,,---,0.01,53.00,VWS V14.00,2013-01-03 13:46:00,
2013-01-03 08:47:00,57.1,54.5,30.15,NNE,12,3.0,7.0,91,0.00,,---,0.01,51.00,VWS V14.00,2013-01-03 13:47:00,
2013-01-03 08:48:00,57.1,54.5,30.15,NNE,12,6.0,7.0,91,0.00,,---,0.01,44.00,VWS V14.00,2013-01-03 13:48:00,
2013-01-03 08:49:00,57.2,54.3,30.15,NNE,12,4.0,7.0,90,0.00,,---,0.01,42.00,VWS V14.00,2013-01-03 13:49:00,
2013-01-03 08:50:00,57.2,54.3,30.15,NNE,12,2.0,7.0,90,0.00,,---,0.01,42.00,VWS V14.00,2013-01-03 13:50:00,
2013-01-03 08:51:00,57.2,54.3,30.15,NNE,12,2.0,7.0,90,0.00,,---,0.01,37.00,VWS V14.00,2013-01-03 13:51:00,
2013-01-03 08:52:00,57.2,54.3,30.15,NNE,12,5.0,7.0,90,0.00,,---,0.01,37.00,VWS V14.00,2013-01-03 13:52:00,
2013-01-03 08:53:00,57.2,54.3,30.15,NNE,12,4.0,7.0,90,0.00,,---,0.01,42.00,VWS V14.00,2013-01-03 13:53:00,
2013-01-03 08:54:00,57.3,54.4,30.15,NNE,12,4.0,7.0,90,0.00,,---,0.01,40.00,VWS V14.00,2013-01-03 13:54:00,
2013-01-03 08:55:00,57.3,54.4,30.15,NNW,337,6.0,8.0,90,0.00,,---,0.01,42.00,VWS V14.00,2013-01-03 13:55:00,
2013-01-03 08:56:00,57.3,54.4,30.15,NNW,337,4.0,8.0,90,0.00,,---,0.01,44.00,VWS V14.00,2013-01-03 13:56:00,
2013-01-03 08:57:00,57.3,54.4,30.15,NNW,337,3.0,8.0,90,0.00,,---,0.01,44.00,VWS V14.00,2013-01-03 13:57:00,
2013-01-03 08:58:00,57.3,54.4,30.15,NNW,337,4.0,8.0,90,0.00,,---,0.01,46.00,VWS V14.00,2013-01-03 13:58:00,
2013-01-03 08:59:00,57.4,54.5,30.15,NNW,337,5.0,8.0,90,0.00,,---,0.01,47.00,VWS V14.00,2013-01-03 13:59:00,
2013-01-03 09:00:00,57.4,54.5,30.15,NNW,335,8.0,8.0,90,0.00,,---,0.01,49.00,VWS V14.00,2013-01-03 14:00:00,
2013-01-03 09:01:00,57.4,54.5,30.15,NNW,339,5.0,6.0,90,0.00,,---,0.01,51.00,VWS V14.00,2013-01-03 14:01:00,
2013-01-03 09:02:00,57.4,54.5,30.15,NNW,342,4.0,6.0,90,0.00,,---,0.01,56.00,VWS V14.00,2013-01-03 14:02:00,
2013-01-03 09:03:00,57.4,54.5,30.15,NNW,341,3.0,6.0,90,0.00,,---,0.01,58.00,VWS V14.00,2013-01-03 14:03:00,
2013-01-03 09:04:00,57.5,54.6,30.15,NNW,342,4.0,6.0,90,0.00,,---,0.01,60.00,VWS V14.00,2013-01-03 14:04:00,
2013-01-03 09:05:00,57.5,54.6,30.15,North,357,4.0,6.0,90,0.00,,---,0.01,60.00,VWS V14.00,2013-01-03 14:05:00,
2013-01-03 09:06:00,57.5,54.6,30.15,North,357,6.0,6.0,90,0.00,,---,0.01,62.00,VWS V14.00,2013-01-03 14:06:00,
2013-01-03 09:07:00,57.5,54.6,30.15,North,357,4.0,6.0,90,0.00,,---,0.01,63.00,VWS V14.00,2013-01-03 14:07:00,
2013-01-03 09:08:00,57.5,54.6,30.15,North,357,4.0,6.0,90,0.00,,---,0.01,63.00,VWS V14.00,2013-01-03 14:08:00,
2013-01-03 09:09:00,57.5,54.6,30.15,North,357,3.0,6.0,90,0.00,,---,0.01,62.00,VWS V14.00,2013-01-03 14:09:00,
2013-01-03 09:10:00,57.5,54.6,30.15,North,357,4.0,6.0,90,0.00,,---,0.01,63.00,VWS V14.00,2013-01-03 14:10:00,
2013-01-03 09:11:00,57.5,54.6,30.15,North,357,2.0,6.0,90,0.00,,---,0.01,72.00,VWS V14.00,2013-01-03 14:11:00,
2013-01-03 09:12:00,57.6,54.7,30.15,North,357,1.0,6.0,90,0.00,,---,0.01,74.00,VWS V14.00,2013-01-03 14:12:00,
2013-01-03 09:13:00,57.6,54.7,30.15,North,357,2.0,6.0,90,0.00,,---,0.01,76.00,VWS V14.00,2013-01-03 14:13:00,
2013-01-03 09:14:00,57.6,54.7,30.14,North,357,3.0,6.0,90,0.00,,---,0.01,70.00,VWS V14.00,2013-01-03 14:14:00,
2013-01-03 09:15:00,57.6,54.7,30.14,North,357,4.0,6.0,90,0.00,,---,0.01,65.00,VWS V14.00,2013-01-03 14:15:00,
2013-01-03 09:16:00,57.6,54.7,30.14,North,7,3.0,6.0,90,0.00,,---,0.01,65.00,VWS V14.00,2013-01-03 14:16:00,
2013-01-03 09:17:00,57.6,54.7,30.14,North,7,3.0,6.0,90,0.00,,---,0.01,77.00,VWS V14.00,2013-01-03 14:17:00,
2013-01-03 09:18:00,57.6,54.4,30.14,North,8,4.0,6.0,89,0.00,,---,0.01,91.00,VWS V14.00,2013-01-03 14:18:00,
2013-01-03 09:19:00,57.6,54.4,30.14,NNE,23,5.0,6.0,89,0.00,,---,0.01,109.00,VWS V14.00,2013-01-03 14:19:00,
2013-01-03 09:20:00,57.6,54.4,30.14,NNE,23,5.0,6.0,89,0.00,,---,0.01,125.00,VWS V14.00,2013-01-03 14:20:00,
2013-01-03 09:21:00,57.6,54.4,30.14,NNE,23,4.0,6.0,89,0.00,,---,0.01,141.00,VWS V14.00,2013-01-03 14:21:00,
2013-01-03 09:22:00,57.6,54.4,30.14,NNE,23,2.0,6.0,89,0.00,,---,0.01,155.00,VWS V14.00,2013-01-03 14:22:00,
2013-01-03 09:23:00,57.7,54.5,30.14,NNE,22,4.0,6.0,89,0.00,,---,0.01,160.00,VWS V14.00,2013-01-03 14:23:00,
2013-01-03 09:24:00,57.7,54.5,30.14,NNE,22,4.0,6.0,89,0.00,,---,0.01,165.00,VWS V14.00,2013-01-03 14:24:00,
2013-01-03 09:25:00,57.7,54.5,30.14,NNE,22,5.0,6.0,89,0.00,,---,0.01,167.00,VWS V14.00,2013-01-03 14:25:00,
2013-01-03 09:26:00,57.7,54.5,30.14,NNE,23,4.0,7.0,89,0.00,,---,0.01,165.00,VWS V14.00,2013-01-03 14:26:00,
2013-01-03 09:27:00,57.7,54.5,30.14,NNE,23,5.0,7.0,89,0.00,,---,0.01,158.00,VWS V14.00,2013-01-03 14:27:00,
2013-01-03 09:28:00,57.7,54.5,30.14,NNE,25,5.0,7.0,89,0.00,,---,0.01,134.00,VWS V14.00,2013-01-03 14:28:00,
2013-01-03 09:29:00,57.8,54.6,30.15,NNE,25,2.0,7.0,89,0.00,,---,0.01,135.00,VWS V14.00,2013-01-03 14:29:00,
2013-01-03 09:30:00,57.8,54.6,30.15,NNE,24,1.0,7.0,89,0.00,,---,0.01,141.00,VWS V14.00,2013-01-03 14:30:00,
2013-01-03 09:31:00,57.8,54.6,30.15,NNE,24,4.0,5.0,89,0.00,,---,0.01,144.00,VWS V14.00,2013-01-03 14:31:00,
2013-01-03 09:32:00,57.8,54.6,30.15,NNE,25,3.0,5.0,89,0.00,,---,0.01,148.00,VWS V14.00,2013-01-03 14:32:00,
2013-01-03 09:33:00,57.9,54.7,30.15,NNE,25,3.0,5.0,89,0.00,,---,0.01,149.00,VWS V14.00,2013-01-03 14:33:00,
2013-01-03 09:34:00,57.9,54.7,30.15,NNE,25,3.0,5.0,89,0.00,,---,0.01,153.00,VWS V14.00,2013-01-03 14:34:00,
2013-01-03 09:35:00,57.9,54.7,30.15,NNE,25,2.0,5.0,89,0.00,,---,0.01,148.00,VWS V14.00,2013-01-03 14:35:00,
2013-01-03 09:36:00,58.0,54.8,30.15,NNE,25,3.0,5.0,89,0.00,,---,0.01,141.00,VWS V14.00,2013-01-03 14:36:00,
2013-01-03 09:37:00,58.0,54.8,30.15,NNE,25,6.0,6.0,89,0.00,,---,0.01,139.00,VWS V14.00,2013-01-03 14:37:00,
2013-01-03 09:38:00,58.0,54.8,30.15,NNE,25,4.0,7.0,89,0.00,,---,0.01,142.00,VWS V14.00,2013-01-03 14:38:00,
2013-01-03 09:39:00,58.0,54.8,30.15,NE,39,4.0,7.0,89,0.00,,---,0.01,146.00,VWS V14.00,2013-01-03 14:39:00,
2013-01-03 09:40:00,58.1,54.9,30.15,NE,39,3.0,7.0,89,0.00,,---,0.01,151.00,VWS V14.00,2013-01-03 14:40:00,
2013-01-03 09:41:00,58.1,54.9,30.15,NE,39,5.0,7.0,89,0.00,,---,0.01,149.00,VWS V14.00,2013-01-03 14:41:00,
2013-01-03 09:42:00,58.1,54.9,30.15,NE,41,5.0,7.0,89,0.00,,---,0.01,149.00,VWS V14.00,2013-01-03 14:42:00,
2013-01-03 09:43:00,58.1,54.9,30.15,NE,41,6.0,7.0,89,0.00,,---,0.01,156.00,VWS V14.00,2013-01-03 14:43:00,
2013-01-03 09:44:00,58.2,55.0,30.14,NE,40,5.0,7.0,89,0.00,,---,0.01,162.00,VWS V14.00,2013-01-03 14:44:00,
2013-01-03 09:45:00,58.2,54.7,30.15,NNE,33,7.0,8.0,88,0.00,,---,0.01,162.00,VWS V14.00,2013-01-03 14:45:00,
2013-01-03 09:46:00,58.2,54.7,30.15,NNE,29,6.0,8.0,88,0.00,,---,0.01,181.00,VWS V14.00,2013-01-03 14:46:00,
2013-01-03 09:47:00,58.3,54.8,30.15,NNE,30,5.0,8.0,88,0.00,,---,0.01,193.00,VWS V14.00,2013-01-03 14:47:00,
2013-01-03 09:48:00,58.3,54.8,30.15,NNE,29,4.0,8.0,88,0.00,,---,0.01,199.00,VWS V14.00,2013-01-03 14:48:00,
2013-01-03 09:49:00,58.3,54.8,30.15,NNE,29,3.0,8.0,88,0.00,,---,0.01,183.00,VWS V14.00,2013-01-03 14:49:00,
2013-01-03 09:50:00,58.4,55.2,30.15,NNE,29,5.0,8.0,89,0.00,,---,0.01,162.00,VWS V14.00,2013-01-03 14:50:00,
2013-01-03 09:51:00,58.4,54.9,30.15,NNE,29,7.0,8.0,88,0.00,,---,0.01,141.00,VWS V14.00,2013-01-03 14:51:00,
2013-01-03 09:52:00,58.4,54.9,30.16,NE,39,5.0,8.0,88,0.00,,---,0.01,109.00,VWS V14.00,2013-01-03 14:52:00,
2013-01-03 09:53:00,58.4,54.9,30.16,NE,38,3.0,8.0,88,0.00,,---,0.01,98.00,VWS V14.00,2013-01-03 14:53:00,
2013-01-03 09:54:00,58.5,55.0,30.16,NE,38,4.0,8.0,88,0.00,,---,0.01,93.00,VWS V14.00,2013-01-03 14:54:00,
2013-01-03 09:55:00,58.5,55.0,30.16,NNE,16,5.0,9.0,88,0.00,,---,0.01,90.00,VWS V14.00,2013-01-03 14:55:00,
2013-01-03 09:56:00,58.5,55.0,30.16,NNE,16,7.0,9.0,88,0.00,,---,0.01,91.00,VWS V14.00,2013-01-03 14:56:00,
2013-01-03 09:57:00,58.5,55.0,30.15,NNE,32,7.0,9.0,88,0.00,,---,0.01,100.00,VWS V14.00,2013-01-03 14:57:00,
2013-01-03 09:58:00,58.5,54.7,30.15,NE,41,8.0,9.0,87,0.00,,---,0.01,121.00,VWS V14.00,2013-01-03 14:58:00,
2013-01-03 09:59:00,58.6,54.8,30.15,NNE,33,7.0,9.0,87,0.00,,---,0.01,128.00,VWS V14.00,2013-01-03 14:59:00,
2013-01-03 10:00:00,58.6,54.8,30.15,NNE,33,6.0,9.0,87,0.00,,---,0.01,132.00,VWS V14.00,2013-01-03 15:00:00,
2013-01-03 10:01:00,58.6,54.8,30.15,NNE,33,6.0,6.0,87,0.00,,---,0.01,134.00,VWS V14.00,2013-01-03 15:01:00,
2013-01-03 10:02:00,58.6,55.1,30.15,North,10,8.0,8.0,88,0.00,,---,0.01,139.00,VWS V14.00,2013-01-03 15:02:00,
2013-01-03 10:03:00,58.6,54.8,30.15,NNE,23,5.0,8.0,87,0.00,,---,0.01,144.00,VWS V14.00,2013-01-03 15:03:00,
2013-01-03 10:04:00,58.6,54.8,30.15,NE,35,4.0,8.0,87,0.00,,---,0.01,151.00,VWS V14.00,2013-01-03 15:04:00,
2013-01-03 10:05:00,58.6,54.8,30.15,North,4,7.0,8.0,87,0.00,,---,0.01,155.00,VWS V14.00,2013-01-03 15:05:00,
2013-01-03 10:06:00,58.7,54.8,30.15,NNE,14,6.0,8.0,87,0.00,,---,0.01,162.00,VWS V14.00,2013-01-03 15:06:00,
2013-01-03 10:07:00,58.7,54.8,30.15,NNE,14,6.0,8.0,87,0.00,,---,0.01,169.00,VWS V14.00,2013-01-03 15:07:00,
2013-01-03 10:08:00,58.7,54.8,30.15,NE,34,6.0,8.0,87,0.00,,---,0.01,174.00,VWS V14.00,2013-01-03 15:08:00,
2013-01-03 10:09:00,58.8,55.0,30.15,NNE,31,7.0,8.0,87,0.00,,---,0.01,163.00,VWS V14.00,2013-01-03 15:09:00,
2013-01-03 10:10:00,58.8,55.0,30.15,NNE,27,7.0,8.0,87,0.00,,---,0.01,153.00,VWS V14.00,2013-01-03 15:10:00,
2013-01-03 10:11:00,58.8,55.0,30.15,NNE,27,6.0,8.0,87,0.00,,---,0.01,155.00,VWS V14.00,2013-01-03 15:11:00,
2013-01-03 10:12:00,58.8,55.0,30.15,NNE,27,6.0,8.0,87,0.00,,---,0.01,155.00,VWS V14.00,2013-01-03 15:12:00,
2013-01-03 10:13:00,58.9,55.0,30.15,NNE,27,5.0,8.0,87,0.00,,---,0.01,149.00,VWS V14.00,2013-01-03 15:13:00,
2013-01-03 10:14:00,58.9,55.0,30.15,NNE,27,5.0,8.0,87,0.00,,---,0.01,155.00,VWS V14.00,2013-01-03 15:14:00,
2013-01-03 10:15:00,58.9,55.0,30.15,NNE,27,5.0,8.0,87,0.00,,---,0.01,151.00,VWS V14.00,2013-01-03 15:15:00,
2013-01-03 10:16:00,58.9,55.4,30.15,NNE,25,6.0,8.0,88,0.00,,---,0.01,146.00,VWS V14.00,2013-01-03 15:16:00,
2013-01-03 10:17:00,59.0,55.5,30.16,North,5,6.0,8.0,88,0.00,,---,0.01,144.00,VWS V14.00,2013-01-03 15:17:00,
2013-01-03 10:18:00,59.0,55.5,30.15,NNW,347,6.0,8.0,88,0.00,,---,0.01,141.00,VWS V14.00,2013-01-03 15:18:00,
2013-01-03 10:19:00,59.0,55.1,30.16,North,360,8.0,9.0,87,0.00,,---,0.01,141.00,VWS V14.00,2013-01-03 15:19:00,
2013-01-03 10:20:00,59.0,55.1,30.16,NNW,343,6.0,9.0,87,0.00,,---,0.01,146.00,VWS V14.00,2013-01-03 15:20:00,
2013-01-03 10:21:00,59.0,55.1,30.15,North,359,8.0,9.0,87,0.00,,---,0.01,153.00,VWS V14.00,2013-01-03 15:21:00,
2013-01-03 10:22:00,59.0,55.1,30.15,North,355,7.0,9.0,87,0.00,,---,0.01,153.00,VWS V14.00,2013-01-03 15:22:00,
2013-01-03 10:23:00,58.9,55.0,30.15,NNW,342,7.0,9.0,87,0.00,,---,0.01,158.00,VWS V14.00,2013-01-03 15:23:00,
2013-01-03 10:24:00,58.9,55.0,30.15,NNW,346,8.0,10.0,87,0.00,,---,0.01,163.00,VWS V14.00,2013-01-03 15:24:00,
2013-01-03 10:25:00,58.9,55.0,30.15,North,5,5.0,10.0,87,0.00,,---,0.01,167.00,VWS V14.00,2013-01-03 15:25:00,
2013-01-03 10:26:00,58.9,55.0,30.15,North,358,8.0,10.0,87,0.00,,---,0.01,171.00,VWS V14.00,2013-01-03 15:26:00,
2013-01-03 10:27:00,58.9,55.0,30.15,North,355,5.0,10.0,87,0.00,,---,0.01,186.00,VWS V14.00,2013-01-03 15:27:00,
2013-01-03 10:28:00,58.9,55.0,30.15,NNE,18,7.0,10.0,87,0.00,,---,0.01,181.00,VWS V14.00,2013-01-03 15:28:00,
2013-01-03 10:29:00,58.9,55.0,30.15,NNE,27,6.0,10.0,87,0.00,,---,0.01,176.00,VWS V14.00,2013-01-03 15:29:00,
2013-01-03 10:30:00,58.9,55.0,30.15,NNE,22,5.0,10.0,87,0.00,,---,0.01,174.00,VWS V14.00,2013-01-03 15:30:00,
2013-01-03 10:31:00,58.9,55.0,30.15,NNE,22,7.0,7.0,87,0.00,,---,0.01,165.00,VWS V14.00,2013-01-03 15:31:00,
2013-01-03 10:32:00,58.9,55.0,30.15,NNE,22,7.0,7.0,87,0.00,,---,0.01,165.00,VWS V14.00,2013-01-03 15:32:00,
2013-01-03 10:33:00,58.9,55.0,30.15,NNE,22,7.0,7.0,87,0.00,,---,0.01,165.00,VWS V14.00,2013-01-03 15:33:00,
2013-01-03 10:34:00,59.0,55.1,30.15,NNW,337,8.0,8.0,87,0.00,,---,0.01,186.00,VWS V14.00,2013-01-03 15:34:00,
2013-01-03 10:35:00,59.0,55.1,30.15,NNW,339,6.0,9.0,87,0.00,,---,0.01,214.00,VWS V14.00,2013-01-03 15:35:00,
2013-01-03 10:36:00,59.0,55.1,30.15,NNW,334,7.0,9.0,87,0.00,,---,0.01,195.00,VWS V14.00,2013-01-03 15:36:00,
2013-01-03 10:37:00,59.0,55.1,30.15,North,4,5.0,9.0,87,0.00,,---,0.01,178.00,VWS V14.00,2013-01-03 15:37:00,
2013-01-03 10:38:00,59.0,55.1,30.15,North,4,5.0,9.0,87,0.00,,---,0.01,153.00,VWS V14.00,2013-01-03 15:38:00,
2013-01-03 10:39:00,58.9,55.0,30.15,North,351,5.0,9.0,87,0.00,,---,0.01,84.00,VWS V14.00,2013-01-03 15:39:00,
2013-01-03 10:40:00,59.0,55.1,30.16,NNW,342,7.0,9.0,87,0.00,,---,0.01,67.00,VWS V14.00,2013-01-03 15:40:00,
2013-01-03 10:41:00,58.9,55.0,30.16,North,354,6.0,9.0,87,0.00,,---,0.01,60.00,VWS V14.00,2013-01-03 15:41:00,
2013-01-03 10:42:00,58.9,55.0,30.16,North,5,6.0,9.0,87,0.00,,---,0.01,54.00,VWS V14.00,2013-01-03 15:42:00,
2013-01-03 10:43:00,58.9,55.0,30.16,North,350,7.0,9.0,87,0.00,,---,0.01,53.00,VWS V14.00,2013-01-03 15:43:00,
2013-01-03 10:44:00,58.9,55.0,30.16,NNW,339,4.0,10.0,87,0.00,,---,0.01,51.00,VWS V14.00,2013-01-03 15:44:00,
2013-01-03 10:45:00,58.9,55.0,30.16,NNW,338,6.0,10.0,87,0.00,,---,0.01,46.00,VWS V14.00,2013-01-03 15:45:00,
2013-01-03 10:46:00,58.8,55.0,30.16,NNW,333,6.0,10.0,87,0.00,,---,0.01,44.00,VWS V14.00,2013-01-03 15:46:00,
2013-01-03 10:47:00,58.8,55.0,30.16,NNW,333,9.0,10.0,87,0.00,,---,0.01,44.00,VWS V14.00,2013-01-03 15:47:00,
2013-01-03 10:48:00,58.8,55.0,30.16,NNW,338,9.0,10.0,87,0.00,,---,0.01,44.00,VWS V14.00,2013-01-03 15:48:00,
2013-01-03 10:49:00,58.7,54.8,30.16,NNW,347,7.0,10.0,87,0.00,,---,0.01,44.00,VWS V14.00,2013-01-03 15:49:00,
2013-01-03 10:50:00,58.7,54.8,30.16,NNE,12,8.0,10.0,87,0.00,,---,0.01,46.00,VWS V14.00,2013-01-03 15:50:00,
2013-01-03 10:51:00,58.7,54.8,30.16,NNW,345,7.0,10.0,87,0.00,,---,0.01,44.00,VWS V14.00,2013-01-03 15:51:00,
2013-01-03 10:52:00,58.7,54.8,30.16,NNW,341,6.0,10.0,87,0.00,,---,0.01,46.00,VWS V14.00,2013-01-03 15:52:00,
2013-01-03 10:53:00,58.7,54.8,30.16,NNW,339,8.0,10.0,87,0.00,,---,0.01,47.00,VWS V14.00,2013-01-03 15:53:00,
2013-01-03 10:54:00,58.7,54.8,30.16,NNW,346,7.0,10.0,87,0.00,,---,0.01,49.00,VWS V14.00,2013-01-03 15:54:00,
2013-01-03 10:55:00,58.7,54.8,30.16,NNW,339,7.0,10.0,87,0.00,,---,0.01,49.00,VWS V14.00,2013-01-03 15:55:00,
2013-01-03 10:56:00,58.6,54.8,30.16,NNW,335,10.0,10.0,87,0.00,,---,0.01,49.00,VWS V14.00,2013-01-03 15:56:00,
2013-01-03 10:57:00,58.6,54.8,30.16,NNW,337,9.0,10.0,87,0.00,,---,0.01,47.00,VWS V14.00,2013-01-03 15:57:00,
2013-01-03 10:58:00,58.6,54.8,30.16,NNW,345,7.0,10.0,87,0.00,,---,0.01,44.00,VWS V14.00,2013-01-03 15:58:00,
2013-01-03 10:59:00,58.6,54.8,30.16,NNW,343,6.0,10.0,87,0.00,,---,0.01,42.00,VWS V14.00,2013-01-03 15:59:00,
2013-01-03 11:00:00,58.6,54.8,30.17,NNW,345,6.0,10.0,87,0.00,,---,0.01,39.00,VWS V14.00,2013-01-03 16:00:00,
2013-01-03 11:01:00,58.6,54.8,30.17,NNW,341,5.0,6.0,87,0.00,,---,0.01,39.00,VWS V14.00,2013-01-03 16:01:00,
2013-01-03 11:02:00,58.6,55.1,30.17,NNW,342,7.0,7.0,88,0.00,,---,0.01,33.00,VWS V14.00,2013-01-03 16:02:00,
2013-01-03 11:03:00,58.6,55.1,30.17,NNW,327,7.0,9.0,88,0.00,,---,0.01,33.00,VWS V14.00,2013-01-03 16:03:00,
2013-01-03 11:04:00,58.6,55.1,30.17,NNW,327,7.0,9.0,88,0.00,,---,0.01,32.00,VWS V14.00,2013-01-03 16:04:00,
2013-01-03 11:05:00,58.6,55.1,30.17,NW,326,7.0,9.0,88,0.00,,---,0.01,30.00,VWS V14.00,2013-01-03 16:05:00,
2013-01-03 11:06:00,58.6,55.1,30.17,NNW,338,9.0,9.0,88,0.00,,---,0.01,26.00,VWS V14.00,2013-01-03 16:06:00,
2013-01-03 11:07:00,58.5,55.0,30.17,NNW,329,8.0,10.0,88,0.00,,---,0.01,25.00,VWS V14.00,2013-01-03 16:07:00,
2013-01-03 11:08:00,58.5,54.7,30.17,NW,323,8.0,10.0,87,0.00,,---,0.01,23.00,VWS V14.00,2013-01-03 16:08:00,
2013-01-03 11:09:00,58.5,55.0,30.17,NW,314,7.0,10.0,88,0.00,,---,0.01,23.00,VWS V14.00,2013-01-03 16:09:00,
2013-01-03 11:10:00,58.5,55.0,30.17,NW,311,7.0,11.0,88,0.00,,---,0.01,25.00,VWS V14.00,2013-01-03 16:10:00,
2013-01-03 11:11:00,58.5,54.7,30.17,NW,325,9.0,11.0,87,0.00,,---,0.01,26.00,VWS V14.00,2013-01-03 16:11:00,
2013-01-03 11:12:00,58.4,54.5,30.17,NNW,346,6.0,11.0,87,0.00,,---,0.01,30.00,VWS V14.00,2013-01-03 16:12:00,
2013-01-03 11:13:00,58.4,54.5,30.17,NNW,348,5.0,11.0,87,0.00,,---,0.01,33.00,VWS V14.00,2013-01-03 16:13:00,
2013-01-03 11:14:00,58.4,54.5,30.17,North,351,5.0,11.0,87,0.00,,---,0.01,33.00,VWS V14.00,2013-01-03 16:14:00,
2013-01-03 11:15:00,58.4,54.5,30.17,NNW,344,6.0,11.0,87,0.00,,---,0.01,30.00,VWS V14.00,2013-01-03 16:15:00,
2013-01-03 11:16:00,58.4,54.5,30.17,NNW,335,6.0,11.0,87,0.00,,---,0.01,26.00,VWS V14.00,2013-01-03 16:16:00,
2013-01-03 11:17:00,58.4,54.9,30.17,NNW,333,7.0,11.0,88,0.00,,---,0.01,26.00,VWS V14.00,2013-01-03 16:17:00,
2013-01-03 11:18:00,58.4,54.9,30.17,NNW,330,6.0,11.0,88,0.00,,---,0.01,26.00,VWS V14.00,2013-01-03 16:18:00,
2013-01-03 11:19:00,58.4,54.9,30.17,NNW,330,7.0,11.0,88,0.00,,---,0.01,32.00,VWS V14.00,2013-01-03 16:19:00,
2013-01-03 11:20:00,58.4,54.9,30.17,NW,316,8.0,11.0,88,0.00,,---,0.01,46.00,VWS V14.00,2013-01-03 16:20:00,
2013-01-03 11:21:00,58.3,54.8,30.17,NW,324,7.0,11.0,88,0.00,,---,0.01,46.00,VWS V14.00,2013-01-03 16:21:00,
2013-01-03 11:22:00,58.3,54.8,30.17,NNW,328,7.0,11.0,88,0.00,,---,0.01,46.00,VWS V14.00,2013-01-03 16:22:00,
2013-01-03 11:23:00,58.3,54.8,30.17,NNW,332,7.0,11.0,88,0.00,,---,0.02,46.00,VWS V14.00,2013-01-03 16:23:00,
2013-01-03 11:24:00,58.2,54.7,30.17,NNW,338,7.0,11.0,88,0.00,,---,0.02,46.00,VWS V14.00,2013-01-03 16:24:00,
2013-01-03 11:25:00,58.2,54.7,30.17,NNW,338,8.0,11.0,88,0.00,,---,0.02,56.00,VWS V14.00,2013-01-03 16:25:00,
2013-01-03 11:26:00,58.1,54.6,30.17,NW,325,8.0,11.0,88,0.00,,---,0.02,58.00,VWS V14.00,2013-01-03 16:26:00,
2013-01-03 11:27:00,58.1,54.6,30.17,NNW,341,7.0,11.0,88,0.00,,---,0.02,54.00,VWS V14.00,2013-01-03 16:27:00,
2013-01-03 11:28:00,58.1,54.6,30.17,NNW,343,7.0,11.0,88,0.00,,---,0.02,51.00,VWS V14.00,2013-01-03 16:28:00,
2013-01-03 11:29:00,58.0,54.5,30.17,NNW,345,5.0,11.0,88,0.00,,---,0.02,54.00,VWS V14.00,2013-01-03 16:29:00,
2013-01-03 11:30:00,58.0,54.5,30.17,NNW,347,6.0,11.0,88,0.00,,---,0.02,62.00,VWS V14.00,2013-01-03 16:30:00,
2013-01-03 11:31:00,58.0,54.5,30.16,North,352,7.0,8.0,88,0.00,,---,0.02,63.00,VWS V14.00,2013-01-03 16:31:00,
2013-01-03 11:32:00,58.0,54.5,30.16,North,353,7.0,8.0,88,0.00,,---,0.02,63.00,VWS V14.00,2013-01-03 16:32:00,
2013-01-03 11:33:00,58.0,54.5,30.16,North,353,7.0,8.0,88,0.00,,---,0.02,63.00,VWS V14.00,2013-01-03 16:33:00,
2013-01-03 11:34:00,57.9,54.4,30.16,NNW,346,6.0,9.0,88,0.00,,---,0.02,63.00,VWS V14.00,2013-01-03 16:34:00,
2013-01-03 11:35:00,57.9,54.7,30.16,NNW,329,11.0,12.0,89,0.00,,---,0.02,62.00,VWS V14.00,2013-01-03 16:35:00,
2013-01-03 11:36:00,57.8,54.6,30.16,NNW,341,5.0,12.0,89,0.00,,---,0.02,65.00,VWS V14.00,2013-01-03 16:36:00,
2013-01-03 11:37:00,57.8,54.6,30.16,NNW,339,8.0,12.0,89,0.00,,---,0.02,69.00,VWS V14.00,2013-01-03 16:37:00,
2013-01-03 11:38:00,57.8,54.6,30.16,NNW,343,7.0,12.0,89,0.00,,---,0.02,72.00,VWS V14.00,2013-01-03 16:38:00,
2013-01-03 11:39:00,57.8,54.6,30.16,NNW,338,8.0,12.0,89,0.00,,---,0.02,84.00,VWS V14.00,2013-01-03 16:39:00,
2013-01-03 11:40:00,57.8,54.6,30.16,NNW,346,8.0,12.0,89,0.00,,---,0.02,90.00,VWS V14.00,2013-01-03 16:40:00,
2013-01-03 11:41:00,57.7,54.5,30.16,NNW,346,8.0,12.0,89,0.00,,---,0.02,86.00,VWS V14.00,2013-01-03 16:41:00,
2013-01-03 11:42:00,57.7,54.5,30.16,NNW,344,6.0,12.0,89,0.00,,---,0.02,81.00,VWS V14.00,2013-01-03 16:42:00,
2013-01-03 11:43:00,57.7,54.5,30.16,North,357,6.0,12.0,89,0.00,,---,0.02,81.00,VWS V14.00,2013-01-03 16:43:00,
2013-01-03 11:44:00,57.7,54.5,30.16,NNW,339,8.0,12.0,89,0.00,,---,0.02,74.00,VWS V14.00,2013-01-03 16:44:00,
2013-01-03 11:45:00,57.7,54.5,30.16,North,360,10.0,12.0,89,0.00,,---,0.02,65.00,VWS V14.00,2013-01-03 16:45:00,
2013-01-03 11:46:00,57.6,54.4,30.16,North,349,6.0,12.0,89,0.00,,---,0.02,63.00,VWS V14.00,2013-01-03 16:46:00,
2013-01-03 11:47:00,57.6,54.4,30.16,North,352,7.0,12.0,89,0.00,,---,0.02,67.00,VWS V14.00,2013-01-03 16:47:00,
2013-01-03 11:48:00,57.6,54.7,30.16,NNW,346,7.0,12.0,90,0.00,,---,0.02,63.00,VWS V14.00,2013-01-03 16:48:00,
2013-01-03 11:49:00,57.6,54.7,30.16,North,353,9.0,12.0,90,0.00,,---,0.02,49.00,VWS V14.00,2013-01-03 16:49:00,
2013-01-03 11:50:00,57.6,54.7,30.16,North,349,7.0,12.0,90,0.00,,---,0.02,51.00,VWS V14.00,2013-01-03 16:50:00,
2013-01-03 11:51:00,57.6,54.7,30.16,North,357,8.0,12.0,90,0.00,,---,0.02,51.00,VWS V14.00,2013-01-03 16:51:00,
2013-01-03 11:52:00,57.6,54.7,30.16,North,1,8.0,12.0,90,0.00,,---,0.02,46.00,VWS V14.00,2013-01-03 16:52:00,
2013-01-03 11:53:00,57.6,54.7,30.16,North,360,7.0,12.0,90,0.00,,---,0.02,44.00,VWS V14.00,2013-01-03 16:53:00,
2013-01-03 11:54:00,57.6,54.7,30.16,North,3,4.0,12.0,90,0.00,,---,0.02,40.00,VWS V14.00,2013-01-03 16:54:00,
2013-01-03 11:55:00,57.5,54.6,30.16,North,352,5.0,12.0,90,0.00,,---,0.02,30.00,VWS V14.00,2013-01-03 16:55:00,
2013-01-03 11:56:00,57.6,54.7,30.16,North,4,5.0,12.0,90,0.00,,---,0.02,32.00,VWS V14.00,2013-01-03 16:56:00,
2013-01-03 11:57:00,57.6,54.7,30.16,North,2,6.0,12.0,90,0.00,,---,0.02,32.00,VWS V14.00,2013-01-03 16:57:00,
2013-01-03 11:58:00,57.6,54.7,30.16,North,2,5.0,12.0,90,0.00,,---,0.02,35.00,VWS V14.00,2013-01-03 16:58:00,
2013-01-03 11:59:00,57.6,54.7,30.16,North,360,5.0,12.0,90,0.00,,---,0.02,37.00,VWS V14.00,2013-01-03 16:59:00,
2013-01-03 12:00:00,57.6,54.7,30.16,NNW,332,7.0,12.0,90,0.00,,---,0.02,39.00,VWS V14.00,2013-01-03 17:00:00,
2013-01-03 12:01:00,57.5,54.6,30.15,NNW,337,4.0,7.0,90,0.00,,---,0.02,35.00,VWS V14.00,2013-01-03 17:01:00,
2013-01-03 12:02:00,57.5,54.6,30.15,NNW,337,4.0,7.0,90,0.00,,---,0.02,37.00,VWS V14.00,2013-01-03 17:02:00,
2013-01-03 12:03:00,57.5,54.6,30.15,North,4,6.0,7.0,90,0.00,,---,0.02,49.00,VWS V14.00,2013-01-03 17:03:00,
2013-01-03 12:04:00,57.6,54.7,30.15,NNW,347,6.0,7.0,90,0.00,,---,0.02,60.00,VWS V14.00,2013-01-03 17:04:00,
2013-01-03 12:05:00,57.6,54.7,30.15,NNW,339,7.0,8.0,90,0.00,,---,0.02,63.00,VWS V14.00,2013-01-03 17:05:00,
2013-01-03 12:06:00,57.5,54.6,30.15,NNW,338,5.0,9.0,90,0.00,,---,0.02,53.00,VWS V14.00,2013-01-03 17:06:00,
2013-01-03 12:07:00,57.5,54.6,30.15,NNW,338,5.0,9.0,90,0.00,,---,0.02,54.00,VWS V14.00,2013-01-03 17:07:00,
2013-01-03 12:08:00,57.5,54.6,30.15,NNW,340,4.0,9.0,90,0.00,,---,0.02,58.00,VWS V14.00,2013-01-03 17:08:00,
2013-01-03 12:09:00,57.5,54.6,30.15,North,11,6.0,9.0,90,0.00,,---,0.02,54.00,VWS V14.00,2013-01-03 17:09:00,
2013-01-03 12:10:00,57.5,54.6,30.15,North,9,5.0,9.0,90,0.00,,---,0.02,56.00,VWS V14.00,2013-01-03 17:10:00,
2013-01-03 12:11:00,57.5,54.6,30.15,North,9,5.0,9.0,90,0.00,,---,0.02,56.00,VWS V14.00,2013-01-03 17:11:00,
2013-01-03 12:12:00,57.5,54.6,30.15,NNW,333,6.0,9.0,90,0.00,,---,0.02,56.00,VWS V14.00,2013-01-03 17:12:00,
2013-01-03 12:13:00,57.5,54.6,30.15,NNW,333,6.0,9.0,90,0.00,,---,0.02,56.00,VWS V14.00,2013-01-03 17:13:00,
2013-01-03 12:14:00,57.5,54.6,30.15,NNW,333,6.0,9.0,90,0.00,,---,0.02,69.00,VWS V14.00,2013-01-03 17:14:00,
2013-01-03 12:15:00,57.5,54.6,30.15,NNW,333,5.0,9.0,90,0.00,,---,0.02,69.00,VWS V14.00,2013-01-03 17:15:00,
2013-01-03 12:16:00,57.5,54.6,30.15,NNW,333,5.0,9.0,90,0.00,,---,0.02,69.00,VWS V14.00,2013-01-03 17:16:00,
2013-01-03 12:17:00,57.5,54.6,30.14,NNW,333,4.0,9.0,90,0.00,,---,0.02,65.00,VWS V14.00,2013-01-03 17:17:00,
2013-01-03 12:18:00,57.5,54.6,30.15,NNW,333,6.0,9.0,90,0.00,,---,0.02,60.00,VWS V14.00,2013-01-03 17:18:00,
2013-01-03 12:19:00,57.6,54.7,30.14,NNW,344,4.0,9.0,90,0.00,,---,0.02,62.00,VWS V14.00,2013-01-03 17:19:00,
2013-01-03 12:20:00,57.5,54.6,30.14,North,1,6.0,9.0,90,0.00,,---,0.02,60.00,VWS V14.00,2013-01-03 17:20:00,
2013-01-03 12:21:00,57.5,54.6,30.14,North,1,3.0,9.0,90,0.00,,---,0.02,67.00,VWS V14.00,2013-01-03 17:21:00,
2013-01-03 12:22:00,57.6,54.7,30.14,North,1,4.0,9.0,90,0.00,,---,0.02,69.00,VWS V14.00,2013-01-03 17:22:00,
2013-01-03 12:23:00,57.6,54.7,30.14,North,360,5.0,9.0,90,0.00,,---,0.02,62.00,VWS V14.00,2013-01-03 17:23:00,
2013-01-03 12:24:00,57.6,54.7,30.15,North,352,6.0,9.0,90,0.00,,---,0.02,56.00,VWS V14.00,2013-01-03 17:24:00,
2013-01-03 12:25:00,57.6,54.7,30.15,North,351,5.0,9.0,90,0.00,,---,0.02,58.00,VWS V14.00,2013-01-03 17:25:00,
2013-01-03 12:26:00,57.6,54.7,30.15,North,352,6.0,9.0,90,0.00,,---,0.02,58.00,VWS V14.00,2013-01-03 17:26:00,
2013-01-03 12:27:00,57.6,54.7,30.14,NNW,342,8.0,9.0,90,0.00,,---,0.02,60.00,VWS V14.00,2013-01-03 17:27:00,
2013-01-03 12:28:00,57.6,54.7,30.14,NNW,343,6.0,9.0,90,0.00,,---,0.02,65.00,VWS V14.00,2013-01-03 17:28:00,
2013-01-03 12:29:00,57.6,54.7,30.15,North,352,4.0,9.0,90,0.00,,---,0.02,70.00,VWS V14.00,2013-01-03 17:29:00,
2013-01-03 12:30:00,57.6,54.7,30.14,North,349,7.0,9.0,90,0.00,,---,0.02,67.00,VWS V14.00,2013-01-03 17:30:00,
2013-01-03 12:31:00,57.6,54.7,30.14,North,353,8.0,8.0,90,0.00,,---,0.02,63.00,VWS V14.00,2013-01-03 17:31:00,
2013-01-03 12:32:00,57.6,54.7,30.14,North,355,8.0,11.0,90,0.00,,---,0.02,65.00,VWS V14.00,2013-01-03 17:32:00,
2013-01-03 12:33:00,57.6,54.4,30.14,North,354,8.0,11.0,89,0.00,,---,0.02,65.00,VWS V14.00,2013-01-03 17:33:00,
2013-01-03 12:34:00,57.6,54.4,30.14,NNW,345,5.0,11.0,89,0.00,,---,0.02,65.00,VWS V14.00,2013-01-03 17:34:00,
2013-01-03 12:35:00,57.6,54.4,30.14,NNW,346,8.0,11.0,89,0.00,,---,0.02,67.00,VWS V14.00,2013-01-03 17:35:00,
2013-01-03 12:36:00,57.6,54.7,30.14,North,354,7.0,11.0,90,0.00,,---,0.02,60.00,VWS V14.00,2013-01-03 17:36:00,
2013-01-03 12:37:00,57.6,54.7,30.14,North,356,7.0,11.0,90,0.00,,---,0.02,56.00,VWS V14.00,2013-01-03 17:37:00,
2013-01-03 12:38:00,57.6,54.7,30.14,NNE,12,8.0,12.0,90,0.00,,---,0.02,58.00,VWS V14.00,2013-01-03 17:38:00,
2013-01-03 12:39:00,57.6,54.7,30.14,North,10,7.0,12.0,90,0.00,,---,0.02,62.00,VWS V14.00,2013-01-03 17:39:00,
2013-01-03 12:40:00,57.6,54.4,30.14,North,11,8.0,12.0,89,0.00,,---,0.02,63.00,VWS V14.00,2013-01-03 17:40:00,
2013-01-03 12:41:00,57.6,54.4,30.14,NNE,12,11.0,12.0,89,0.00,,---,0.02,63.00,VWS V14.00,2013-01-03 17:41:00,
2013-01-03 12:42:00,57.6,54.4,30.13,North,5,6.0,14.0,89,0.00,,---,0.02,72.00,VWS V14.00,2013-01-03 17:42:00,
2013-01-03 12:43:00,57.6,54.4,30.14,North,352,8.0,14.0,89,0.00,,---,0.02,70.00,VWS V14.00,2013-01-03 17:43:00,
2013-01-03 12:44:00,57.6,54.4,30.14,North,6,9.0,14.0,89,0.00,,---,0.02,76.00,VWS V14.00,2013-01-03 17:44:00,
2013-01-03 12:45:00,57.7,54.5,30.14,North,360,11.0,15.0,89,0.00,,---,0.02,74.00,VWS V14.00,2013-01-03 17:45:00,
2013-01-03 12:46:00,57.7,54.5,30.14,North,349,10.0,15.0,89,0.00,,---,0.02,67.00,VWS V14.00,2013-01-03 17:46:00,
2013-01-03 12:47:00,57.6,54.4,30.13,NNE,16,11.0,15.0,89,0.00,,---,0.02,67.00,VWS V14.00,2013-01-03 17:47:00,
2013-01-03 12:48:00,57.7,54.5,30.13,North,7,14.0,15.0,89,0.00,,---,0.02,65.00,VWS V14.00,2013-01-03 17:48:00,
2013-01-03 12:49:00,57.7,54.2,30.13,North,354,14.0,16.0,88,0.00,,---,0.02,58.00,VWS V14.00,2013-01-03 17:49:00,
2013-01-03 12:50:00,57.7,54.2,30.13,North,2,12.0,16.0,88,0.00,,---,0.02,60.00,VWS V14.00,2013-01-03 17:50:00,
2013-01-03 12:51:00,57.7,54.2,30.13,North,360,16.0,16.0,88,0.00,,---,0.02,53.00,VWS V14.00,2013-01-03 17:51:00,
2013-01-03 12:52:00,57.7,54.2,30.13,NNW,345,11.0,16.0,88,0.00,,---,0.02,56.00,VWS V14.00,2013-01-03 17:52:00,
2013-01-03 12:53:00,57.7,54.2,30.13,NNW,347,8.0,16.0,88,0.00,,---,0.02,60.00,VWS V14.00,2013-01-03 17:53:00,
2013-01-03 12:54:00,57.7,54.2,30.13,NNW,346,8.0,16.0,88,0.00,,---,0.02,62.00,VWS V14.00,2013-01-03 17:54:00,
2013-01-03 12:55:00,57.7,54.2,30.13,NNW,345,8.0,16.0,88,0.00,,---,0.02,63.00,VWS V14.00,2013-01-03 17:55:00,
2013-01-03 12:56:00,57.7,54.2,30.13,North,2,5.0,16.0,88,0.00,,---,0.02,69.00,VWS V14.00,2013-01-03 17:56:00,
2013-01-03 12:57:00,57.7,54.2,30.13,North,350,7.0,16.0,88,0.00,,---,0.02,67.00,VWS V14.00,2013-01-03 17:57:00,
2013-01-03 12:58:00,57.7,54.2,30.13,NNW,343,7.0,16.0,88,0.00,,---,0.02,63.00,VWS V14.00,2013-01-03 17:58:00,
2013-01-03 12:59:00,57.7,54.2,30.13,NNW,341,9.0,16.0,88,0.00,,---,0.02,58.00,VWS V14.00,2013-01-03 17:59:00,
2013-01-03 13:00:00,57.7,54.2,30.13,NNW,334,10.0,16.0,88,0.00,,---,0.02,56.00,VWS V14.00,2013-01-03 18:00:00,
2013-01-03 13:01:00,57.7,54.2,30.13,NNW,345,8.0,10.0,88,0.00,,---,0.02,54.00,VWS V14.00,2013-01-03 18:01:00,
2013-01-03 13:02:00,57.7,54.2,30.13,North,349,8.0,10.0,88,0.00,,---,0.02,54.00,VWS V14.00,2013-01-03 18:02:00,
2013-01-03 13:03:00,57.7,54.2,30.13,NNE,14,8.0,11.0,88,0.00,,---,0.02,53.00,VWS V14.00,2013-01-03 18:03:00,
2013-01-03 13:04:00,57.7,54.2,30.14,North,355,8.0,11.0,88,0.00,,---,0.02,53.00,VWS V14.00,2013-01-03 18:04:00,
2013-01-03 13:05:00,57.7,53.9,30.14,NNW,342,8.0,11.0,87,0.00,,---,0.02,53.00,VWS V14.00,2013-01-03 18:05:00,
2013-01-03 13:06:00,57.7,53.9,30.14,North,351,7.0,11.0,87,0.00,,---,0.02,54.00,VWS V14.00,2013-01-03 18:06:00,
2013-01-03 13:07:00,57.7,53.9,30.13,North,354,7.0,11.0,87,0.00,,---,0.02,56.00,VWS V14.00,2013-01-03 18:07:00,
2013-01-03 13:08:00,57.7,53.9,30.13,NNW,343,8.0,11.0,87,0.00,,---,0.02,60.00,VWS V14.00,2013-01-03 18:08:00,
2013-01-03 13:09:00,57.7,53.9,30.14,North,349,8.0,11.0,87,0.00,,---,0.02,63.00,VWS V14.00,2013-01-03 18:09:00,
2013-01-03 13:10:00,57.7,53.9,30.13,North,353,7.0,11.0,87,0.00,,---,0.02,67.00,VWS V14.00,2013-01-03 18:10:00,
2013-01-03 13:11:00,57.7,53.9,30.13,North,6,9.0,11.0,87,0.00,,---,0.02,69.00,VWS V14.00,2013-01-03 18:11:00,
2013-01-03 13:12:00,57.7,53.9,30.12,North,5,5.0,11.0,87,0.00,,---,0.02,76.00,VWS V14.00,2013-01-03 18:12:00,
2013-01-03 13:13:00,57.7,53.9,30.13,NNW,345,7.0,11.0,87,0.00,,---,0.02,79.00,VWS V14.00,2013-01-03 18:13:00,
2013-01-03 13:14:00,57.8,54.0,30.13,North,349,7.0,11.0,87,0.00,,---,0.02,81.00,VWS V14.00,2013-01-03 18:14:00,
2013-01-03 13:15:00,57.8,54.3,30.13,North,350,5.0,11.0,88,0.00,,---,0.02,81.00,VWS V14.00,2013-01-03 18:15:00,
2013-01-03 13:16:00,57.8,54.0,30.13,North,349,7.0,11.0,87,0.00,,---,0.02,79.00,VWS V14.00,2013-01-03 18:16:00,
2013-01-03 13:17:00,57.8,54.0,30.13,North,356,8.0,11.0,87,0.00,,---,0.02,65.00,VWS V14.00,2013-01-03 18:17:00,
2013-01-03 13:18:00,57.8,54.3,30.13,North,351,7.0,11.0,88,0.00,,---,0.02,58.00,VWS V14.00,2013-01-03 18:18:00,
2013-01-03 13:19:00,57.8,54.3,30.13,North,355,7.0,11.0,88,0.00,,---,0.02,54.00,VWS V14.00,2013-01-03 18:19:00,
2013-01-03 13:20:00,57.8,54.0,30.13,North,349,6.0,11.0,87,0.00,,---,0.02,49.00,VWS V14.00,2013-01-03 18:20:00,
2013-01-03 13:21:00,57.8,54.0,30.13,NNW,340,7.0,11.0,87,0.00,,---,0.02,47.00,VWS V14.00,2013-01-03 18:21:00,
2013-01-03 13:22:00,57.8,54.0,30.13,NNW,345,7.0,11.0,87,0.00,,---,0.02,49.00,VWS V14.00,2013-01-03 18:22:00,
2013-01-03 13:23:00,57.8,54.0,30.13,NNW,342,6.0,11.0,87,0.00,,---,0.02,54.00,VWS V14.00,2013-01-03 18:23:00,
2013-01-03 13:24:00,57.8,54.0,30.13,NNW,348,8.0,11.0,87,0.00,,---,0.02,62.00,VWS V14.00,2013-01-03 18:24:00,
2013-01-03 13:25:00,57.8,54.0,30.12,North,352,6.0,11.0,87,0.00,,---,0.02,67.00,VWS V14.00,2013-01-03 18:25:00,
2013-01-03 13:26:00,57.8,54.0,30.12,North,353,6.0,11.0,87,0.00,,---,0.02,76.00,VWS V14.00,2013-01-03 18:26:00,
2013-01-03 13:27:00,57.9,54.1,30.12,North,1,5.0,11.0,87,0.00,,---,0.02,84.00,VWS V14.00,2013-01-03 18:27:00,
2013-01-03 13:28:00,57.9,54.1,30.12,North,1,5.0,11.0,87,0.00,,---,0.02,93.00,VWS V14.00,2013-01-03 18:28:00,
2013-01-03 13:29:00,57.9,54.1,30.12,North,1,3.0,11.0,87,0.00,,---,0.02,88.00,VWS V14.00,2013-01-03 18:29:00,
2013-01-03 13:30:00,57.9,54.1,30.12,North,359,5.0,11.0,87,0.00,,---,0.02,79.00,VWS V14.00,2013-01-03 18:30:00,
2013-01-03 13:31:00,57.9,54.1,30.12,North,355,7.0,9.0,87,0.00,,---,0.02,72.00,VWS V14.00,2013-01-03 18:31:00,
2013-01-03 13:32:00,57.9,54.1,30.12,North,358,8.0,9.0,87,0.00,,---,0.02,69.00,VWS V14.00,2013-01-03 18:32:00,
2013-01-03 13:33:00,57.9,54.1,30.12,North,360,7.0,9.0,87,0.00,,---,0.02,69.00,VWS V14.00,2013-01-03 18:33:00,
2013-01-03 13:34:00,57.9,53.7,30.12,North,360,6.0,9.0,86,0.00,,---,0.02,69.00,VWS V14.00,2013-01-03 18:34:00,
2013-01-03 13:35:00,57.9,54.1,30.12,North,358,5.0,9.0,87,0.00,,---,0.02,77.00,VWS V14.00,2013-01-03 18:35:00,
2013-01-03 13:36:00,57.9,53.7,30.12,North,359,5.0,9.0,86,0.00,,---,0.02,86.00,VWS V14.00,2013-01-03 18:36:00,
2013-01-03 13:37:00,57.9,53.7,30.12,NNE,12,7.0,9.0,86,0.00,,---,0.02,93.00,VWS V14.00,2013-01-03 18:37:00,
2013-01-03 13:38:00,58.0,53.8,30.12,NNE,14,7.0,9.0,86,0.00,,---,0.02,97.00,VWS V14.00,2013-01-03 18:38:00,
2013-01-03 13:39:00,58.0,53.8,30.12,North,4,6.0,9.0,86,0.00,,---,0.02,95.00,VWS V14.00,2013-01-03 18:39:00,
2013-01-03 13:40:00,58.0,53.8,30.11,North,360,8.0,9.0,86,0.00,,---,0.02,90.00,VWS V14.00,2013-01-03 18:40:00,
2013-01-03 13:41:00,58.0,53.8,30.11,North,7,7.0,12.0,86,0.00,,---,0.02,91.00,VWS V14.00,2013-01-03 18:41:00,
2013-01-03 13:42:00,58.0,53.8,30.11,North,3,10.0,12.0,86,0.00,,---,0.02,98.00,VWS V14.00,2013-01-03 18:42:00,
2013-01-03 13:43:00,58.0,53.8,30.11,North,11,6.0,12.0,86,0.00,,---,0.02,104.00,VWS V14.00,2013-01-03 18:43:00,
2013-01-03 13:44:00,58.0,53.8,30.12,North,6,7.0,12.0,86,0.00,,---,0.02,100.00,VWS V14.00,2013-01-03 18:44:00,
2013-01-03 13:45:00,58.0,53.8,30.12,North,1,6.0,12.0,86,0.00,,---,0.02,93.00,VWS V14.00,2013-01-03 18:45:00,
2013-01-03 13:46:00,58.1,53.9,30.12,NNW,348,8.0,12.0,86,0.00,,---,0.02,77.00,VWS V14.00,2013-01-03 18:46:00,
2013-01-03 13:47:00,58.1,53.9,30.12,North,359,5.0,12.0,86,0.00,,---,0.02,65.00,VWS V14.00,2013-01-03 18:47:00,
2013-01-03 13:48:00,58.1,53.6,30.12,North,353,9.0,12.0,85,0.00,,---,0.02,58.00,VWS V14.00,2013-01-03 18:48:00,
2013-01-03 13:49:00,58.1,53.6,30.12,NNE,17,5.0,12.0,85,0.00,,---,0.02,54.00,VWS V14.00,2013-01-03 18:49:00,
2013-01-03 13:50:00,58.1,53.6,30.12,NNW,340,7.0,12.0,85,0.00,,---,0.02,51.00,VWS V14.00,2013-01-03 18:50:00,
2013-01-03 13:51:00,58.1,53.6,30.12,North,355,6.0,12.0,85,0.00,,---,0.02,46.00,VWS V14.00,2013-01-03 18:51:00,
2013-01-03 13:52:00,58.1,53.6,30.12,North,356,7.0,12.0,85,0.00,,---,0.02,40.00,VWS V14.00,2013-01-03 18:52:00,
2013-01-03 13:53:00,58.1,53.6,30.12,North,353,8.0,12.0,85,0.00,,---,0.02,40.00,VWS V14.00,2013-01-03 18:53:00,
2013-01-03 13:54:00,58.1,53.6,30.12,North,4,8.0,12.0,85,0.00,,---,0.02,44.00,VWS V14.00,2013-01-03 18:54:00,
2013-01-03 13:55:00,58.1,53.6,30.12,NNE,16,7.0,12.0,85,0.00,,---,0.02,46.00,VWS V14.00,2013-01-03 18:55:00,
2013-01-03 13:56:00,58.1,53.6,30.12,NNE,18,7.0,12.0,85,0.00,,---,0.02,46.00,VWS V14.00,2013-01-03 18:56:00,
2013-01-03 13:57:00,58.1,53.6,30.12,NNW,334,8.0,12.0,85,0.00,,---,0.02,47.00,VWS V14.00,2013-01-03 18:57:00,
2013-01-03 13:58:00,58.2,53.7,30.12,North,351,7.0,12.0,85,0.00,,---,0.02,54.00,VWS V14.00,2013-01-03 18:58:00,
2013-01-03 13:59:00,58.2,53.7,30.12,NNW,345,5.0,12.0,85,0.00,,---,0.02,62.00,VWS V14.00,2013-01-03 18:59:00,
2013-01-03 14:00:00,58.2,53.7,30.12,North,3,9.0,12.0,85,0.00,,---,0.02,67.00,VWS V14.00,2013-01-03 19:00:00,
2013-01-03 14:01:00,58.2,53.7,30.12,North,355,9.0,9.0,85,0.00,,---,0.02,67.00,VWS V14.00,2013-01-03 19:01:00,
2013-01-03 14:02:00,58.2,53.7,30.12,North,1,5.0,9.0,85,0.00,,---,0.02,63.00,VWS V14.00,2013-01-03 19:02:00,
2013-01-03 14:03:00,58.2,53.7,30.12,North,358,6.0,9.0,85,0.00,,---,0.02,56.00,VWS V14.00,2013-01-03 19:03:00,
2013-01-03 14:04:00,58.2,54.0,30.12,North,356,5.0,9.0,86,0.00,,---,0.02,54.00,VWS V14.00,2013-01-03 19:04:00,
2013-01-03 14:05:00,58.2,54.0,30.12,North,356,4.0,9.0,86,0.00,,---,0.02,49.00,VWS V14.00,2013-01-03 19:05:00,
2013-01-03 14:06:00,58.2,54.0,30.12,NNE,25,5.0,10.0,86,0.00,,---,0.02,47.00,VWS V14.00,2013-01-03 19:06:00,
2013-01-03 14:30:00,58.0,53.5,30.12,North,353,8.0,11.0,85,0.00,,---,0.03,37.00,VWS V14.00,2013-01-03 19:30:00,
2013-01-03 14:38:00,57.3,53.5,30.12,NNW,328,7.0,11.0,87,0.08,,---,0.04,47.00,VWS V14.00,2013-01-03 19:38:00,
2013-01-03 14:39:00,57.3,53.5,30.12,NNW,345,6.0,11.0,87,0.08,,---,0.04,51.00,VWS V14.00,2013-01-03 19:39:00,
2013-01-03 14:40:00,57.2,53.4,30.13,North,356,5.0,11.0,87,0.08,,---,0.04,54.00,VWS V14.00,2013-01-03 19:40:00,
2013-01-03 14:41:00,57.2,53.4,30.12,North,355,7.0,11.0,87,0.08,,---,0.04,62.00,VWS V14.00,2013-01-03 19:41:00,
2013-01-03 14:42:00,57.1,53.3,30.12,North,349,6.0,11.0,87,0.08,,---,0.04,67.00,VWS V14.00,2013-01-03 19:42:00,
2013-01-03 14:43:00,57.0,53.5,30.12,North,352,7.0,11.0,88,0.06,,---,0.04,72.00,VWS V14.00,2013-01-03 19:43:00,
2013-01-03 14:44:00,56.9,53.4,30.12,North,353,6.0,11.0,88,0.06,,---,0.04,74.00,VWS V14.00,2013-01-03 19:44:00,
2013-01-03 14:45:00,56.9,53.4,30.12,North,351,7.0,11.0,88,0.05,,---,0.04,77.00,VWS V14.00,2013-01-03 19:45:00,
2013-01-03 14:46:00,56.9,53.4,30.12,North,351,4.0,11.0,88,0.05,,---,0.04,79.00,VWS V14.00,2013-01-03 19:46:00,
2013-01-03 14:47:00,56.9,53.4,30.13,North,351,6.0,11.0,88,0.04,,---,0.04,79.00,VWS V14.00,2013-01-03 19:47:00,
2013-01-03 14:48:00,56.8,53.3,30.13,North,351,4.0,11.0,88,0.04,,---,0.04,77.00,VWS V14.00,2013-01-03 19:48:00,
2013-01-03 14:49:00,56.8,53.3,30.13,North,351,5.0,11.0,88,0.04,,---,0.04,77.00,VWS V14.00,2013-01-03 19:49:00,
2013-01-03 14:50:00,56.8,53.3,30.13,North,351,3.0,11.0,88,0.04,,---,0.04,74.00,VWS V14.00,2013-01-03 19:50:00,
2013-01-03 14:51:00,56.8,53.3,30.13,North,351,4.0,11.0,88,0.00,,---,0.04,62.00,VWS V14.00,2013-01-03 19:51:00,
2013-01-03 14:52:00,56.7,53.5,30.13,North,351,5.0,11.0,89,0.00,,---,0.04,56.00,VWS V14.00,2013-01-03 19:52:00,
2013-01-03 14:53:00,56.7,53.5,30.13,North,351,3.0,11.0,89,0.00,,---,0.04,51.00,VWS V14.00,2013-01-03 19:53:00,
2013-01-03 14:54:00,56.7,53.5,30.13,North,351,4.0,11.0,89,0.00,,---,0.04,46.00,VWS V14.00,2013-01-03 19:54:00,
2013-01-03 14:55:00,56.6,53.4,30.13,North,351,3.0,11.0,89,0.00,,---,0.04,40.00,VWS V14.00,2013-01-03 19:55:00,
2013-01-03 14:56:00,56.6,53.4,30.13,North,351,1.0,11.0,89,0.00,,---,0.04,33.00,VWS V14.00,2013-01-03 19:56:00,
2013-01-03 14:57:00,56.6,53.4,30.13,North,351,3.0,11.0,89,0.00,,---,0.04,33.00,VWS V14.00,2013-01-03 19:57:00,
2013-01-03 14:58:00,56.6,53.4,30.13,North,351,3.0,11.0,89,0.00,,---,0.04,35.00,VWS V14.00,2013-01-03 19:58:00,
2013-01-03 14:59:00,56.6,53.4,30.13,North,351,2.0,11.0,89,0.00,,---,0.04,40.00,VWS V14.00,2013-01-03 19:59:00,
2013-01-03 15:00:00,56.6,53.4,30.13,North,351,1.0,11.0,89,0.00,,---,0.04,44.00,VWS V14.00,2013-01-03 20:00:00,
2013-01-03 15:01:00,56.6,53.7,30.13,North,351,3.0,3.0,90,0.00,,---,0.04,46.00,VWS V14.00,2013-01-03 20:01:00,
2013-01-03 15:02:00,56.6,53.7,30.13,North,351,2.0,4.0,90,0.00,,---,0.04,47.00,VWS V14.00,2013-01-03 20:02:00,
2013-01-03 15:03:00,56.6,53.7,30.13,North,351,2.0,4.0,90,0.00,,---,0.04,44.00,VWS V14.00,2013-01-03 20:03:00,
2013-01-03 15:04:00,56.5,53.3,30.13,North,351,2.0,4.0,89,0.00,,---,0.04,46.00,VWS V14.00,2013-01-03 20:04:00,
2013-01-03 15:05:00,56.5,53.3,30.13,North,351,3.0,4.0,89,0.00,,---,0.04,49.00,VWS V14.00,2013-01-03 20:05:00,
2013-01-03 15:06:00,56.5,53.3,30.13,North,351,1.0,4.0,89,0.00,,---,0.04,56.00,VWS V14.00,2013-01-03 20:06:00,
2013-01-03 15:07:00,56.5,53.3,30.13,North,351,2.0,4.0,89,0.00,,---,0.04,63.00,VWS V14.00,2013-01-03 20:07:00,
2013-01-03 15:08:00,56.4,53.2,30.13,North,351,0.0,4.0,89,0.00,,---,0.04,69.00,VWS V14.00,2013-01-03 20:08:00,
2013-01-03 15:09:00,56.4,53.2,30.13,North,351,0.0,4.0,89,0.00,,---,0.04,69.00,VWS V14.00,2013-01-03 20:09:00,
2013-01-03 15:10:00,56.4,53.2,30.13,North,351,3.0,4.0,89,0.00,,---,0.04,63.00,VWS V14.00,2013-01-03 20:10:00,
2013-01-03 15:11:00,56.4,53.2,30.13,North,351,5.0,5.0,89,0.00,,---,0.04,56.00,VWS V14.00,2013-01-03 20:11:00,
2013-01-03 15:12:00,56.4,53.2,30.13,North,351,4.0,5.0,89,0.00,,---,0.05,56.00,VWS V14.00,2013-01-03 20:12:00,
2013-01-03 15:13:00,56.4,53.2,30.13,North,351,3.0,6.0,89,0.00,,---,0.05,56.00,VWS V14.00,2013-01-03 20:13:00,
2013-01-03 15:14:00,56.3,53.1,30.13,North,351,0.0,6.0,89,0.00,,---,0.05,56.00,VWS V14.00,2013-01-03 20:14:00,
2013-01-03 15:15:00,56.3,53.1,30.13,North,351,2.0,6.0,89,0.00,,---,0.05,56.00,VWS V14.00,2013-01-03 20:15:00,
2013-01-03 15:16:00,56.3,53.1,30.13,North,351,2.0,6.0,89,0.00,,---,0.05,58.00,VWS V14.00,2013-01-03 20:16:00,
2013-01-03 15:17:00,56.3,53.1,30.13,North,351,0.0,6.0,89,0.00,,---,0.05,62.00,VWS V14.00,2013-01-03 20:17:00,
2013-01-03 15:18:00,56.3,53.1,30.13,North,351,3.0,6.0,89,0.00,,---,0.05,63.00,VWS V14.00,2013-01-03 20:18:00,
2013-01-03 15:19:00,56.3,53.1,30.13,North,351,3.0,6.0,89,0.00,,---,0.05,65.00,VWS V14.00,2013-01-03 20:19:00,
2013-01-03 15:20:00,56.3,53.1,30.13,North,351,1.0,6.0,89,0.00,,---,0.05,67.00,VWS V14.00,2013-01-03 20:20:00,
2013-01-03 15:21:00,56.3,53.1,30.13,North,351,1.0,6.0,89,0.00,,---,0.05,67.00,VWS V14.00,2013-01-03 20:21:00,
2013-01-03 15:22:00,56.2,53.0,30.13,North,351,2.0,6.0,89,0.00,,---,0.05,65.00,VWS V14.00,2013-01-03 20:22:00,
2013-01-03 15:23:00,56.2,53.0,30.13,North,351,2.0,6.0,89,0.00,,---,0.05,58.00,VWS V14.00,2013-01-03 20:23:00,
2013-01-03 15:24:00,56.2,53.0,30.13,North,351,1.0,6.0,89,0.00,,---,0.05,49.00,VWS V14.00,2013-01-03 20:24:00,
2013-01-03 15:25:00,56.2,53.0,30.13,North,351,0.0,6.0,89,0.00,,---,0.05,42.00,VWS V14.00,2013-01-03 20:25:00,
2013-01-03 15:26:00,56.2,53.0,30.14,North,351,1.0,6.0,89,0.00,,---,0.05,32.00,VWS V14.00,2013-01-03 20:26:00,
2013-01-03 15:27:00,56.2,53.0,30.14,North,351,3.0,6.0,89,0.00,,---,0.05,30.00,VWS V14.00,2013-01-03 20:27:00,
2013-01-03 15:28:00,56.2,53.0,30.14,North,351,3.0,6.0,89,0.00,,---,0.05,26.00,VWS V14.00,2013-01-03 20:28:00,
2013-01-03 15:29:00,56.2,53.3,30.14,North,351,3.0,6.0,90,0.00,,---,0.05,25.00,VWS V14.00,2013-01-03 20:29:00,
2013-01-03 15:30:00,56.2,53.3,30.14,North,351,2.0,6.0,90,0.00,,---,0.05,23.00,VWS V14.00,2013-01-03 20:30:00,
2013-01-03 15:31:00,56.2,53.3,30.14,North,351,3.0,3.0,90,0.00,,---,0.05,25.00,VWS V14.00,2013-01-03 20:31:00,
2013-01-03 15:32:00,56.2,53.3,30.14,North,351,4.0,4.0,90,0.00,,---,0.05,30.00,VWS V14.00,2013-01-03 20:32:00,
2013-01-03 15:33:00,56.1,53.2,30.14,North,351,4.0,4.0,90,0.00,,---,0.05,33.00,VWS V14.00,2013-01-03 20:33:00,
2013-01-03 15:34:00,56.1,53.2,30.14,North,351,3.0,4.0,90,0.00,,---,0.05,33.00,VWS V14.00,2013-01-03 20:34:00,
2013-01-03 15:35:00,56.0,53.1,30.14,North,351,5.0,5.0,90,0.00,,---,0.05,28.00,VWS V14.00,2013-01-03 20:35:00,
2013-01-03 15:36:00,56.0,52.8,30.14,North,351,6.0,6.0,89,0.00,,---,0.05,26.00,VWS V14.00,2013-01-03 20:36:00,
2013-01-03 15:37:00,55.9,52.7,30.14,North,351,5.0,6.0,89,0.00,,---,0.05,26.00,VWS V14.00,2013-01-03 20:37:00,
2013-01-03 15:38:00,55.9,52.7,30.14,North,351,4.0,6.0,89,0.00,,---,0.05,30.00,VWS V14.00,2013-01-03 20:38:00,
2013-01-03 15:39:00,55.8,52.6,30.14,North,351,4.0,6.0,89,0.00,,---,0.05,30.00,VWS V14.00,2013-01-03 20:39:00,
2013-01-03 15:40:00,55.8,52.6,30.14,North,351,5.0,6.0,89,0.00,,---,0.05,30.00,VWS V14.00,2013-01-03 20:40:00,
2013-01-03 15:41:00,55.8,52.9,30.13,North,351,4.0,6.0,90,0.00,,---,0.05,30.00,VWS V14.00,2013-01-03 20:41:00,
2013-01-03 15:42:00,55.8,52.9,30.13,North,351,4.0,6.0,90,0.00,,---,0.05,32.00,VWS V14.00,2013-01-03 20:42:00,
2013-01-03 15:43:00,55.7,52.8,30.14,North,351,4.0,6.0,90,0.00,,---,0.05,32.00,VWS V14.00,2013-01-03 20:43:00,
2013-01-03 15:44:00,55.7,52.8,30.14,North,351,3.0,6.0,90,0.00,,---,0.05,30.00,VWS V14.00,2013-01-03 20:44:00,
2013-01-03 15:45:00,55.7,52.8,30.14,North,351,4.0,6.0,90,0.00,,---,0.06,26.00,VWS V14.00,2013-01-03 20:45:00,
2013-01-03 15:46:00,55.7,52.8,30.14,North,351,3.0,6.0,90,0.00,,---,0.06,25.00,VWS V14.00,2013-01-03 20:46:00,
2013-01-03 15:47:00,55.7,52.8,30.14,North,351,2.0,6.0,90,0.00,,---,0.06,23.00,VWS V14.00,2013-01-03 20:47:00,
2013-01-03 15:48:00,55.7,52.8,30.14,North,351,4.0,6.0,90,0.00,,---,0.06,25.00,VWS V14.00,2013-01-03 20:48:00,
2013-01-03 15:49:00,55.7,52.8,30.14,North,351,2.0,6.0,90,0.00,,---,0.06,28.00,VWS V14.00,2013-01-03 20:49:00,
2013-01-03 15:50:00,55.7,52.8,30.14,North,351,4.0,6.0,90,0.00,,---,0.06,44.00,VWS V14.00,2013-01-03 20:50:00,
2013-01-03 15:51:00,55.7,52.8,30.14,North,351,4.0,6.0,90,0.00,,---,0.06,53.00,VWS V14.00,2013-01-03 20:51:00,
2013-01-03 15:52:00,55.7,52.8,30.14,North,351,3.0,6.0,90,0.00,,---,0.06,60.00,VWS V14.00,2013-01-03 20:52:00,
2013-01-03 15:53:00,55.7,52.8,30.14,North,351,4.0,6.0,90,0.00,,---,0.06,62.00,VWS V14.00,2013-01-03 20:53:00,
2013-01-03 15:54:00,55.7,52.8,30.14,North,351,5.0,6.0,90,0.00,,---,0.06,62.00,VWS V14.00,2013-01-03 20:54:00,
2013-01-03 15:55:00,55.7,52.8,30.14,North,351,5.0,6.0,90,0.00,,---,0.06,58.00,VWS V14.00,2013-01-03 20:55:00,
2013-01-03 15:56:00,55.7,53.1,30.14,North,351,6.0,6.0,91,0.00,,---,0.06,47.00,VWS V14.00,2013-01-03 20:56:00,
2013-01-03 15:57:00,55.7,53.1,30.15,North,350,4.0,7.0,91,0.00,,---,0.06,44.00,VWS V14.00,2013-01-03 20:57:00,
2013-01-03 15:58:00,55.7,53.1,30.15,North,350,5.0,7.0,91,0.00,,---,0.06,46.00,VWS V14.00,2013-01-03 20:58:00,
2013-01-03 15:59:00,55.7,53.1,30.15,North,350,5.0,7.0,91,0.00,,---,0.06,47.00,VWS V14.00,2013-01-03 20:59:00,
2013-01-03 16:00:00,55.8,53.2,30.14,North,350,6.0,7.0,91,0.00,,---,0.06,47.00,VWS V14.00,2013-01-03 21:00:00,
2013-01-03 16:01:00,55.8,53.2,30.14,North,349,6.0,7.0,91,0.00,,---,0.06,47.00,VWS V14.00,2013-01-03 21:01:00,
2013-01-03 16:02:00,55.7,53.1,30.15,North,349,7.0,7.0,91,0.00,,---,0.06,46.00,VWS V14.00,2013-01-03 21:02:00,
2013-01-03 16:03:00,55.7,53.1,30.15,North,349,5.0,7.0,91,0.00,,---,0.06,44.00,VWS V14.00,2013-01-03 21:03:00,
2013-01-03 16:04:00,55.7,53.1,30.15,NNW,347,7.0,7.0,91,0.00,,---,0.06,40.00,VWS V14.00,2013-01-03 21:04:00,
2013-01-03 16:05:00,55.7,53.1,30.15,NNW,344,6.0,8.0,91,0.00,,---,0.06,40.00,VWS V14.00,2013-01-03 21:05:00,
2013-01-03 16:06:00,55.7,53.1,30.15,NNW,340,5.0,8.0,91,0.00,,---,0.06,42.00,VWS V14.00,2013-01-03 21:06:00,
2013-01-03 16:07:00,55.6,53.0,30.15,NNW,340,5.0,8.0,91,0.00,,---,0.06,42.00,VWS V14.00,2013-01-03 21:07:00,
2013-01-03 16:08:00,55.6,53.0,30.15,NNW,339,5.0,8.0,91,0.00,,---,0.06,37.00,VWS V14.00,2013-01-03 21:08:00,
2013-01-03 16:09:00,55.6,52.7,30.15,NNW,338,6.0,8.0,90,0.00,,---,0.06,30.00,VWS V14.00,2013-01-03 21:09:00,
2013-01-03 16:10:00,55.6,53.0,30.15,NNW,343,5.0,8.0,91,0.00,,---,0.06,26.00,VWS V14.00,2013-01-03 21:10:00,
2013-01-03 16:11:00,55.6,53.0,30.15,NNW,347,5.0,8.0,91,0.00,,---,0.06,23.00,VWS V14.00,2013-01-03 21:11:00,
2013-01-03 16:12:00,55.6,53.0,30.15,NNW,341,7.0,9.0,91,0.00,,---,0.06,23.00,VWS V14.00,2013-01-03 21:12:00,
2013-01-03 16:13:00,55.6,53.0,30.15,NNW,341,7.0,9.0,91,0.00,,---,0.06,19.00,VWS V14.00,2013-01-03 21:13:00,
2013-01-03 16:14:00,55.5,52.9,30.15,NNW,339,6.0,9.0,91,0.00,,---,0.06,18.00,VWS V14.00,2013-01-03 21:14:00,
2013-01-03 16:15:00,55.5,52.9,30.15,NNW,341,6.0,9.0,91,0.00,,---,0.06,18.00,VWS V14.00,2013-01-03 21:15:00,
2013-01-03 16:16:00,55.5,52.9,30.15,NNW,345,5.0,9.0,91,0.00,,---,0.06,18.00,VWS V14.00,2013-01-03 21:16:00,
2013-01-03 16:17:00,55.4,52.8,30.15,NNW,344,6.0,9.0,91,0.00,,---,0.06,18.00,VWS V14.00,2013-01-03 21:17:00,
2013-01-03 16:18:00,55.4,52.8,30.15,NNW,342,7.0,9.0,91,0.00,,---,0.06,18.00,VWS V14.00,2013-01-03 21:18:00,
2013-01-03 16:19:00,55.4,52.8,30.15,NNW,328,7.0,9.0,91,0.00,,---,0.06,21.00,VWS V14.00,2013-01-03 21:19:00,
2013-01-03 16:20:00,55.4,52.8,30.15,NNW,337,4.0,9.0,91,0.00,,---,0.06,23.00,VWS V14.00,2013-01-03 21:20:00,
2013-01-03 16:21:00,55.4,52.8,30.15,NNW,337,5.0,9.0,91,0.00,,---,0.06,25.00,VWS V14.00,2013-01-03 21:21:00,
2013-01-03 16:22:00,55.4,52.8,30.14,NNW,337,6.0,9.0,91,0.00,,---,0.06,26.00,VWS V14.00,2013-01-03 21:22:00,
2013-01-03 16:23:00,55.4,52.8,30.15,NNW,338,5.0,9.0,91,0.00,,---,0.06,26.00,VWS V14.00,2013-01-03 21:23:00,
2013-01-03 16:24:00,55.4,52.8,30.15,North,349,6.0,9.0,91,0.00,,---,0.06,19.00,VWS V14.00,2013-01-03 21:24:00,
2013-01-03 16:25:00,55.4,52.8,30.15,NNW,348,6.0,9.0,91,0.00,,---,0.06,14.00,VWS V14.00,2013-01-03 21:25:00,
2013-01-03 16:26:00,55.3,52.7,30.15,NNW,347,6.0,9.0,91,0.00,,---,0.06,14.00,VWS V14.00,2013-01-03 21:26:00,
2013-01-03 16:27:00,55.3,52.7,30.15,NNW,347,5.0,9.0,91,0.00,,---,0.06,14.00,VWS V14.00,2013-01-03 21:27:00,
2013-01-03 16:28:00,55.3,52.7,30.16,NNW,345,5.0,9.0,91,0.00,,---,0.06,12.00,VWS V14.00,2013-01-03 21:28:00,
2013-01-03 16:29:00,55.3,52.7,30.16,NNW,339,6.0,9.0,91,0.00,,---,0.06,12.00,VWS V14.00,2013-01-03 21:29:00,
2013-01-03 16:30:00,55.3,52.7,30.16,NW,326,7.0,9.0,91,0.00,,---,0.06,14.00,VWS V14.00,2013-01-03 21:30:00,
2013-01-03 16:31:00,55.3,52.7,30.16,NNW,328,7.0,9.0,91,0.00,,---,0.06,14.00,VWS V14.00,2013-01-03 21:31:00,
2013-01-03 16:32:00,55.3,52.7,30.16,NW,325,6.0,9.0,91,0.00,,---,0.06,14.00,VWS V14.00,2013-01-03 21:32:00,
2013-01-03 16:33:00,55.3,52.7,30.16,NNW,327,7.0,9.0,91,0.00,,---,0.06,14.00,VWS V14.00,2013-01-03 21:33:00,
2013-01-03 16:34:00,55.3,52.7,30.16,NNW,329,7.0,9.0,91,0.00,,---,0.06,16.00,VWS V14.00,2013-01-03 21:34:00,
2013-01-03 16:35:00,55.3,52.7,30.16,NNW,328,7.0,9.0,91,0.00,,---,0.06,18.00,VWS V14.00,2013-01-03 21:35:00,
2013-01-03 16:36:00,55.3,52.7,30.16,NNW,329,7.0,9.0,91,0.00,,---,0.06,16.00,VWS V14.00,2013-01-03 21:36:00,
2013-01-03 16:37:00,55.3,52.7,30.16,NNW,330,7.0,9.0,91,0.00,,---,0.06,16.00,VWS V14.00,2013-01-03 21:37:00,
2013-01-03 16:38:00,55.3,52.7,30.16,NNW,340,5.0,9.0,91,0.00,,---,0.06,16.00,VWS V14.00,2013-01-03 21:38:00,
2013-01-03 16:39:00,55.3,52.7,30.16,NNW,340,6.0,9.0,91,0.00,,---,0.06,14.00,VWS V14.00,2013-01-03 21:39:00,
2013-01-03 16:40:00,55.2,52.6,30.16,NNW,340,4.0,9.0,91,0.00,,---,0.06,14.00,VWS V14.00,2013-01-03 21:40:00,
2013-01-03 16:41:00,55.2,52.6,30.16,North,355,6.0,9.0,91,0.00,,---,0.06,14.00,VWS V14.00,2013-01-03 21:41:00,
2013-01-03 16:42:00,55.2,52.6,30.16,North,2,8.0,9.0,91,0.00,,---,0.06,14.00,VWS V14.00,2013-01-03 21:42:00,
2013-01-03 16:43:00,55.2,52.6,30.16,North,4,7.0,9.0,91,0.00,,---,0.06,14.00,VWS V14.00,2013-01-03 21:43:00,
2013-01-03 16:44:00,55.1,52.5,30.16,NNW,342,7.0,9.0,91,0.00,,---,0.06,12.00,VWS V14.00,2013-01-03 21:44:00,
2013-01-03 16:45:00,55.1,52.5,30.16,NNW,343,6.0,9.0,91,0.00,,---,0.06,12.00,VWS V14.00,2013-01-03 21:45:00,
2013-01-03 16:46:00,55.1,52.5,30.16,NNW,343,5.0,9.0,91,0.00,,---,0.06,11.00,VWS V14.00,2013-01-03 21:46:00,
2013-01-03 16:47:00,55.1,52.5,30.17,NNW,342,6.0,9.0,91,0.00,,---,0.06,11.00,VWS V14.00,2013-01-03 21:47:00,
2013-01-03 16:48:00,55.1,52.5,30.17,NNW,342,4.0,9.0,91,0.00,,---,0.06,9.00,VWS V14.00,2013-01-03 21:48:00,
2013-01-03 16:49:00,55.1,52.5,30.17,NNW,342,4.0,9.0,91,0.00,,---,0.06,9.00,VWS V14.00,2013-01-03 21:49:00,
2013-01-03 16:50:00,55.1,52.5,30.17,NNW,342,6.0,9.0,91,0.00,,---,0.06,9.00,VWS V14.00,2013-01-03 21:50:00,
2013-01-03 16:51:00,55.1,52.5,30.17,NNW,342,3.0,9.0,91,0.00,,---,0.06,9.00,VWS V14.00,2013-01-03 21:51:00,
2013-01-03 16:52:00,55.1,52.5,30.17,NNW,342,2.0,9.0,91,0.00,,---,0.06,9.00,VWS V14.00,2013-01-03 21:52:00,
2013-01-03 16:53:00,55.1,52.5,30.17,NNW,342,5.0,9.0,91,0.00,,---,0.06,11.00,VWS V14.00,2013-01-03 21:53:00,
2013-01-03 16:54:00,55.1,52.5,30.17,NNW,342,5.0,9.0,91,0.00,,---,0.06,11.00,VWS V14.00,2013-01-03 21:54:00,
2013-01-03 16:55:00,55.1,52.5,30.17,NNW,342,4.0,9.0,91,0.00,,---,0.06,12.00,VWS V14.00,2013-01-03 21:55:00,
2013-01-03 16:56:00,55.1,52.5,30.17,NNW,342,5.0,9.0,91,0.00,,---,0.06,14.00,VWS V14.00,2013-01-03 21:56:00,
2013-01-03 16:57:00,55.1,52.5,30.16,NNW,342,4.0,9.0,91,0.00,,---,0.06,14.00,VWS V14.00,2013-01-03 21:57:00,
2013-01-03 16:58:00,55.1,52.5,30.17,NNW,343,5.0,9.0,91,0.00,,---,0.06,12.00,VWS V14.00,2013-01-03 21:58:00,
2013-01-03 16:59:00,55.1,52.5,30.17,NNW,343,4.0,9.0,91,0.00,,---,0.06,12.00,VWS V14.00,2013-01-03 21:59:00,
2013-01-03 17:00:00,55.1,52.5,30.17,NNW,343,4.0,9.0,91,0.00,,---,0.06,11.00,VWS V14.00,2013-01-03 22:00:00,
2013-01-03 17:01:00,55.1,52.5,30.17,NNW,343,3.0,5.0,91,0.00,,---,0.06,9.00,VWS V14.00,2013-01-03 22:01:00,
2013-01-03 17:02:00,55.1,52.5,30.17,NNW,343,3.0,6.0,91,0.00,,---,0.06,9.00,VWS V14.00,2013-01-03 22:02:00,
2013-01-03 17:03:00,55.1,52.5,30.17,NNW,343,6.0,6.0,91,0.00,,---,0.06,7.00,VWS V14.00,2013-01-03 22:03:00,
2013-01-03 17:04:00,55.1,52.5,30.17,North,4,6.0,6.0,91,0.00,,---,0.06,7.00,VWS V14.00,2013-01-03 22:04:00,
2013-01-03 17:05:00,55.1,52.5,30.17,North,2,4.0,6.0,91,0.00,,---,0.06,5.00,VWS V14.00,2013-01-03 22:05:00,
2013-01-03 17:06:00,55.1,52.5,30.17,North,2,4.0,6.0,91,0.00,,---,0.06,5.00,VWS V14.00,2013-01-03 22:06:00,
2013-01-03 17:07:00,55.1,52.5,30.17,North,2,3.0,6.0,91,0.00,,---,0.06,0.00,VWS V14.00,2013-01-03 22:07:00,
2013-01-03 17:08:00,55.1,52.5,30.17,North,2,4.0,6.0,91,0.00,,---,0.06,0.00,VWS V14.00,2013-01-03 22:08:00,
2013-01-03 17:09:00,55.1,52.5,30.17,North,2,4.0,6.0,91,0.00,,---,0.06,0.00,VWS V14.00,2013-01-03 22:09:00,
2013-01-03 17:10:00,55.1,52.5,30.17,North,2,3.0,6.0,91,0.00,,---,0.06,0.00,VWS V14.00,2013-01-03 22:10:00,
2013-01-03 17:11:00,55.1,52.5,30.17,North,1,6.0,7.0,91,0.00,,---,0.06,0.00,VWS V14.00,2013-01-03 22:11:00,
2013-01-03 17:12:00,55.1,52.5,30.17,North,1,4.0,7.0,91,0.00,,---,0.06,0.00,VWS V14.00,2013-01-03 22:12:00,
2013-01-03 17:13:00,55.1,52.5,30.18,North,1,4.0,7.0,91,0.00,,---,0.06,0.00,VWS V14.00,2013-01-03 22:13:00,
2013-01-03 17:14:00,55.1,52.5,30.18,North,1,4.0,7.0,91,0.00,,---,0.06,0.00,VWS V14.00,2013-01-03 22:14:00,
2013-01-03 17:15:00,55.1,52.5,30.18,North,1,4.0,7.0,91,0.00,,---,0.06,0.00,VWS V14.00,2013-01-03 22:15:00,
2013-01-03 17:16:00,55.1,52.5,30.18,North,1,6.0,7.0,91,0.00,,---,0.06,0.00,VWS V14.00,2013-01-03 22:16:00,
2013-01-03 17:17:00,55.1,52.5,30.18,North,1,4.0,7.0,91,0.00,,---,0.06,0.00,VWS V14.00,2013-01-03 22:17:00,
2013-01-03 17:18:00,55.2,52.6,30.18,North,358,5.0,7.0,91,0.00,,---,0.06,0.00,VWS V14.00,2013-01-03 22:18:00,
2013-01-03 17:19:00,55.1,52.5,30.18,North,355,5.0,7.0,91,0.00,,---,0.06,0.00,VWS V14.00,2013-01-03 22:19:00,
2013-01-03 17:20:00,55.1,52.5,30.18,North,355,5.0,7.0,91,0.00,,---,0.06,0.00,VWS V14.00,2013-01-03 22:20:00,
2013-01-03 17:21:00,55.1,52.5,30.18,North,355,3.0,7.0,91,0.00,,---,0.07,0.00,VWS V14.00,2013-01-03 22:21:00,
2013-01-03 17:22:00,55.2,52.6,30.18,North,355,5.0,7.0,91,0.00,,---,0.07,0.00,VWS V14.00,2013-01-03 22:22:00,
2013-01-03 17:23:00,55.1,52.5,30.18,North,355,5.0,7.0,91,0.00,,---,0.07,0.00,VWS V14.00,2013-01-03 22:23:00,
2013-01-03 17:24:00,55.2,52.6,30.18,NW,304,7.0,8.0,91,0.00,,---,0.07,0.00,VWS V14.00,2013-01-03 22:24:00,
2013-01-03 17:25:00,55.2,52.9,30.18,NW,324,13.0,13.0,92,0.00,,---,0.07,0.00,VWS V14.00,2013-01-03 22:25:00,
2013-01-03 17:26:00,54.8,52.2,30.18,NW,307,10.0,15.0,91,0.00,,---,0.07,0.00,VWS V14.00,2013-01-03 22:26:00,
2013-01-03 17:27:00,54.5,51.9,30.18,NW,324,13.0,15.0,91,0.00,,---,0.07,0.00,VWS V14.00,2013-01-03 22:27:00,
2013-01-03 17:28:00,54.2,51.3,30.18,NW,318,11.0,16.0,90,0.00,,---,0.07,0.00,VWS V14.00,2013-01-03 22:28:00,
2013-01-03 17:29:00,54.0,51.1,30.18,NW,326,13.0,16.0,90,0.00,,---,0.07,0.00,VWS V14.00,2013-01-03 22:29:00,
2013-01-03 17:30:00,53.9,51.0,30.18,NNW,331,13.0,16.0,90,0.00,,---,0.07,0.00,VWS V14.00,2013-01-03 22:30:00,
2013-01-03 17:31:00,53.7,50.8,30.18,NNW,334,14.0,14.0,90,0.00,,---,0.07,0.00,VWS V14.00,2013-01-03 22:31:00,
2013-01-03 17:32:00,53.6,50.7,30.18,NNW,328,13.0,15.0,90,0.00,,---,0.07,0.00,VWS V14.00,2013-01-03 22:32:00,
2013-01-03 17:33:00,53.4,50.5,30.17,NNW,329,12.0,15.0,90,0.00,,---,0.07,0.00,VWS V14.00,2013-01-03 22:33:00,
2013-01-03 17:34:00,53.3,50.5,30.17,NW,324,13.0,15.0,90,0.00,,---,0.07,0.00,VWS V14.00,2013-01-03 22:34:00,
2013-01-03 17:35:00,53.2,50.3,30.18,NNW,328,13.0,15.0,90,0.00,,---,0.07,0.00,VWS V14.00,2013-01-03 22:35:00,
2013-01-03 17:36:00,53.1,50.2,30.18,NNW,333,13.0,15.0,90,0.00,,---,0.07,0.00,VWS V14.00,2013-01-03 22:36:00,
2013-01-03 17:37:00,53.0,50.2,30.18,NNW,328,13.0,15.0,90,0.00,,---,0.08,0.00,VWS V14.00,2013-01-03 22:37:00,
2013-01-03 17:38:00,52.9,50.0,30.18,NNW,327,12.0,15.0,90,0.04,,---,0.08,0.00,VWS V14.00,2013-01-03 22:38:00,
2013-01-03 17:39:00,52.8,50.0,30.18,NNW,333,14.0,15.0,90,0.04,,---,0.08,0.00,VWS V14.00,2013-01-03 22:39:00,
2013-01-03 17:40:00,52.7,50.2,30.18,NNW,329,11.0,16.0,91,0.04,,---,0.08,0.00,VWS V14.00,2013-01-03 22:40:00,
2013-01-03 17:41:00,52.6,50.0,30.18,NNW,336,13.0,16.0,91,0.04,,---,0.08,0.00,VWS V14.00,2013-01-03 22:41:00,
2013-01-03 17:42:00,52.5,50.0,30.18,NNW,336,11.0,16.0,91,0.04,,---,0.08,0.00,VWS V14.00,2013-01-03 22:42:00,
2013-01-03 17:43:00,52.4,49.8,30.18,North,355,13.0,16.0,91,0.04,,---,0.08,0.00,VWS V14.00,2013-01-03 22:43:00,
2013-01-03 17:44:00,52.3,49.5,30.18,NNW,334,12.0,16.0,90,0.04,,---,0.08,0.00,VWS V14.00,2013-01-03 22:44:00,
2013-01-03 17:45:00,52.2,49.4,30.18,NNW,332,14.0,17.0,90,0.04,,---,0.08,0.00,VWS V14.00,2013-01-03 22:45:00,
2013-01-03 17:46:00,52.1,49.3,30.18,NNW,335,14.0,17.0,90,0.04,,---,0.08,0.00,VWS V14.00,2013-01-03 22:46:00,
2013-01-03 17:47:00,52.0,49.5,30.18,NW,322,12.0,17.0,91,0.04,,---,0.08,0.00,VWS V14.00,2013-01-03 22:47:00,
2013-01-03 17:48:00,51.9,49.4,30.18,NNW,330,14.0,17.0,91,0.04,,---,0.08,0.00,VWS V14.00,2013-01-03 22:48:00,
2013-01-03 17:49:00,51.9,49.4,30.18,NW,325,15.0,17.0,91,0.04,,---,0.08,0.00,VWS V14.00,2013-01-03 22:49:00,
2013-01-03 17:50:00,51.9,49.4,30.18,NW,323,14.0,17.0,91,0.04,,---,0.08,0.00,VWS V14.00,2013-01-03 22:50:00,
2013-01-03 17:51:00,51.7,49.2,30.18,NW,326,16.0,17.0,91,0.04,,---,0.08,0.00,VWS V14.00,2013-01-03 22:51:00,
2013-01-03 17:52:00,51.6,49.1,30.18,NW,319,15.0,17.0,91,0.04,,---,0.08,0.00,VWS V14.00,2013-01-03 22:52:00,
2013-01-03 17:53:00,51.6,49.1,30.18,NNW,330,12.0,18.0,91,0.04,,---,0.08,0.00,VWS V14.00,2013-01-03 22:53:00,
2013-01-03 17:54:00,51.5,49.0,30.19,NNW,339,13.0,18.0,91,0.00,,---,0.08,0.00,VWS V14.00,2013-01-03 22:54:00,
2013-01-03 17:55:00,51.5,49.0,30.19,North,350,13.0,18.0,91,0.00,,---,0.08,0.00,VWS V14.00,2013-01-03 22:55:00,
2013-01-03 17:56:00,51.5,49.0,30.19,NNW,333,14.0,18.0,91,0.00,,---,0.08,0.00,VWS V14.00,2013-01-03 22:56:00,
2013-01-03 17:57:00,51.4,48.9,30.19,North,349,12.0,18.0,91,0.00,,---,0.08,0.00,VWS V14.00,2013-01-03 22:57:00,
2013-01-03 17:58:00,51.3,48.8,30.19,NNW,333,14.0,18.0,91,0.00,,---,0.08,0.00,VWS V14.00,2013-01-03 22:58:00,
2013-01-03 17:59:00,51.2,48.7,30.19,NW,323,14.0,18.0,91,0.00,,---,0.08,0.00,VWS V14.00,2013-01-03 22:59:00,
2013-01-03 18:00:00,51.0,48.2,30.19,NNW,333,11.0,18.0,90,0.00,,---,0.08,0.00,VWS V14.00,2013-01-03 23:00:00,
2013-01-03 18:01:00,51.1,48.3,30.20,NW,326,14.0,14.0,90,0.00,,---,0.08,0.00,VWS V14.00,2013-01-03 23:01:00,
2013-01-03 18:02:00,51.1,48.6,30.20,NW,321,9.0,14.0,91,0.00,,---,0.08,0.00,VWS V14.00,2013-01-03 23:02:00,
2013-01-03 18:03:00,51.0,48.5,30.20,NW,316,10.0,14.0,91,0.00,,---,0.08,0.00,VWS V14.00,2013-01-03 23:03:00,
2013-01-03 18:04:00,50.9,48.4,30.20,NW,321,12.0,14.0,91,0.00,,---,0.08,0.00,VWS V14.00,2013-01-03 23:04:00,
2013-01-03 18:05:00,50.9,48.4,30.21,NW,318,9.0,14.0,91,0.00,,---,0.08,0.00,VWS V14.00,2013-01-03 23:05:00,
2013-01-03 18:06:00,50.8,48.3,30.20,NW,316,7.0,14.0,91,0.00,,---,0.08,0.00,VWS V14.00,2013-01-03 23:06:00,
2013-01-03 18:07:00,50.8,48.3,30.21,WNW,303,5.0,14.0,91,0.00,,---,0.08,0.00,VWS V14.00,2013-01-03 23:07:00,
2013-01-03 18:08:00,50.7,48.2,30.21,WNW,297,10.0,14.0,91,0.00,,---,0.08,0.00,VWS V14.00,2013-01-03 23:08:00,
2013-01-03 18:09:00,50.6,48.1,30.21,WNW,293,9.0,14.0,91,0.00,,---,0.08,0.00,VWS V14.00,2013-01-03 23:09:00,
2013-01-03 18:10:00,50.5,48.0,30.20,NW,325,7.0,14.0,91,0.00,,---,0.08,0.00,VWS V14.00,2013-01-03 23:10:00,
2013-01-03 18:11:00,50.5,48.0,30.20,NW,320,10.0,14.0,91,0.00,,---,0.08,0.00,VWS V14.00,2013-01-03 23:11:00,
2013-01-03 18:12:00,50.4,47.6,30.20,NW,323,9.0,14.0,90,0.00,,---,0.08,0.00,VWS V14.00,2013-01-03 23:12:00,
2013-01-03 18:13:00,50.4,47.6,30.20,NNW,338,10.0,14.0,90,0.00,,---,0.08,0.00,VWS V14.00,2013-01-03 23:13:00,
2013-01-03 18:14:00,50.4,47.9,30.20,NW,326,14.0,14.0,91,0.00,,---,0.08,0.00,VWS V14.00,2013-01-03 23:14:00,
2013-01-03 18:15:00,50.5,48.0,30.20,NNW,347,10.0,14.0,91,0.00,,---,0.08,0.00,VWS V14.00,2013-01-03 23:15:00,
2013-01-03 18:16:00,50.4,47.9,30.20,NNW,341,10.0,14.0,91,0.00,,---,0.08,0.00,VWS V14.00,2013-01-03 23:16:00,
2013-01-03 18:17:00,50.3,47.8,30.20,NNW,333,10.0,14.0,91,0.00,,---,0.08,0.00,VWS V14.00,2013-01-03 23:17:00,
2013-01-03 18:18:00,50.3,47.8,30.20,NNW,335,11.0,14.0,91,0.00,,---,0.08,0.00,VWS V14.00,2013-01-03 23:18:00,
2013-01-03 18:19:00,50.2,47.7,30.20,NNW,331,13.0,14.0,91,0.00,,---,0.08,0.00,VWS V14.00,2013-01-03 23:19:00,
2013-01-03 18:20:00,50.2,47.7,30.20,NNW,347,9.0,14.0,91,0.00,,---,0.08,0.00,VWS V14.00,2013-01-03 23:20:00,
2013-01-03 18:21:00,50.2,47.7,30.20,NNW,338,12.0,14.0,91,0.00,,---,0.08,0.00,VWS V14.00,2013-01-03 23:21:00,
2013-01-03 18:22:00,50.2,47.7,30.20,NNW,334,11.0,16.0,91,0.00,,---,0.08,0.00,VWS V14.00,2013-01-03 23:22:00,
2013-01-03 18:23:00,50.2,47.7,30.20,NNW,337,9.0,16.0,91,0.00,,---,0.08,0.00,VWS V14.00,2013-01-03 23:23:00,
2013-01-03 18:24:00,50.2,47.7,30.20,NW,318,10.0,16.0,91,0.00,,---,0.08,0.00,VWS V14.00,2013-01-03 23:24:00,
2013-01-03 18:25:00,50.2,47.7,30.21,North,354,10.0,16.0,91,0.00,,---,0.08,0.00,VWS V14.00,2013-01-03 23:25:00,
2013-01-03 18:26:00,50.2,47.7,30.20,NNW,341,10.0,16.0,91,0.00,,---,0.08,0.00,VWS V14.00,2013-01-03 23:26:00,
2013-01-03 18:27:00,50.1,47.6,30.20,NNW,329,8.0,16.0,91,0.00,,---,0.08,0.00,VWS V14.00,2013-01-03 23:27:00,
2013-01-03 18:28:00,50.1,47.6,30.20,NNW,343,9.0,16.0,91,0.00,,---,0.08,0.00,VWS V14.00,2013-01-03 23:28:00,
2013-01-03 18:29:00,50.1,47.6,30.20,NNW,336,7.0,16.0,91,0.00,,---,0.08,0.00,VWS V14.00,2013-01-03 23:29:00,
2013-01-03 18:30:00,50.1,47.6,30.20,NNW,346,6.0,16.0,91,0.00,,---,0.08,0.00,VWS V14.00,2013-01-03 23:30:00,
2013-01-03 18:31:00,50.2,47.7,30.20,NNW,340,7.0,10.0,91,0.00,,---,0.08,0.00,VWS V14.00,2013-01-03 23:31:00,
2013-01-03 18:32:00,50.1,47.6,30.20,NNW,336,9.0,10.0,91,0.00,,---,0.08,0.00,VWS V14.00,2013-01-03 23:32:00,
2013-01-03 18:33:00,50.1,47.6,30.20,NNW,332,8.0,10.0,91,0.00,,---,0.08,0.00,VWS V14.00,2013-01-03 23:33:00,
2013-01-03 18:34:00,50.1,47.6,30.20,North,10,6.0,10.0,91,0.00,,---,0.08,0.00,VWS V14.00,2013-01-03 23:34:00,
2013-01-03 18:35:00,50.1,47.6,30.20,NNW,347,6.0,10.0,91,0.00,,---,0.08,0.00,VWS V14.00,2013-01-03 23:35:00,
2013-01-03 18:36:00,50.0,47.5,30.20,North,349,6.0,10.0,91,0.00,,---,0.08,0.00,VWS V14.00,2013-01-03 23:36:00,
2013-01-03 18:37:00,49.9,47.4,30.20,NNW,348,6.0,10.0,91,0.00,,---,0.08,0.00,VWS V14.00,2013-01-03 23:37:00,
2013-01-03 18:38:00,49.9,47.4,30.20,NNW,346,6.0,10.0,91,0.00,,---,0.08,0.00,VWS V14.00,2013-01-03 23:38:00,
2013-01-03 18:39:00,49.8,47.3,30.20,North,351,7.0,10.0,91,0.00,,---,0.08,0.00,VWS V14.00,2013-01-03 23:39:00,
2013-01-03 18:40:00,49.7,47.2,30.20,NNW,339,7.0,10.0,91,0.00,,---,0.08,0.00,VWS V14.00,2013-01-03 23:40:00,
2013-01-03 18:41:00,49.7,47.2,30.20,NNW,331,10.0,10.0,91,0.00,,---,0.08,0.00,VWS V14.00,2013-01-03 23:41:00,
2013-01-03 18:42:00,49.8,47.3,30.20,NNW,331,8.0,10.0,91,0.00,,---,0.08,0.00,VWS V14.00,2013-01-03 23:42:00,
2013-01-03 18:43:00,49.8,47.3,30.20,North,353,8.0,10.0,91,0.00,,---,0.08,0.00,VWS V14.00,2013-01-03 23:43:00,
2013-01-03 18:44:00,49.9,47.4,30.20,NNW,342,10.0,10.0,91,0.00,,---,0.08,0.00,VWS V14.00,2013-01-03 23:44:00,
2013-01-03 18:45:00,49.9,47.4,30.20,North,349,7.0,10.0,91,0.00,,---,0.08,0.00,VWS V14.00,2013-01-03 23:45:00,
2013-01-03 18:46:00,49.9,47.4,30.20,NNW,333,7.0,10.0,91,0.00,,---,0.08,0.00,VWS V14.00,2013-01-03 23:46:00,
2013-01-03 18:47:00,49.9,47.4,30.20,North,353,8.0,10.0,91,0.00,,---,0.08,0.00,VWS V14.00,2013-01-03 23:47:00,
2013-01-03 18:48:00,49.9,47.4,30.20,North,3,6.0,10.0,91,0.00,,---,0.08,0.00,VWS V14.00,2013-01-03 23:48:00,
2013-01-03 18:49:00,49.8,47.3,30.20,NNW,348,5.0,10.0,91,0.00,,---,0.08,0.00,VWS V14.00,2013-01-03 23:49:00,
2013-01-03 18:50:00,49.7,47.2,30.20,NNE,12,4.0,10.0,91,0.00,,---,0.08,0.00,VWS V14.00,2013-01-03 23:50:00,
2013-01-03 18:51:00,49.7,47.2,30.20,North,349,7.0,10.0,91,0.00,,---,0.09,0.00,VWS V14.00,2013-01-03 23:51:00,
2013-01-03 18:52:00,49.7,47.2,30.20,NNW,340,5.0,10.0,91,0.00,,---,0.09,0.00,VWS V14.00,2013-01-03 23:52:00,
2013-01-03 18:53:00,49.7,47.2,30.20,NNW,339,4.0,10.0,91,0.00,,---,0.09,0.00,VWS V14.00,2013-01-03 23:53:00,
2013-01-03 18:54:00,49.7,47.2,30.20,NNW,343,6.0,10.0,91,0.00,,---,0.09,0.00,VWS V14.00,2013-01-03 23:54:00,
2013-01-03 18:55:00,49.7,47.2,30.20,NNW,341,5.0,10.0,91,0.00,,---,0.09,0.00,VWS V14.00,2013-01-03 23:55:00,
2013-01-03 18:56:00,49.7,47.2,30.21,NNW,341,5.0,10.0,91,0.00,,---,0.09,0.00,VWS V14.00,2013-01-03 23:56:00,
2013-01-03 18:57:00,49.7,47.2,30.21,NNW,341,5.0,10.0,91,0.00,,---,0.09,0.00,VWS V14.00,2013-01-03 23:57:00,
2013-01-03 18:58:00,49.7,47.2,30.21,NNW,341,5.0,10.0,91,0.00,,---,0.09,0.00,VWS V14.00,2013-01-03 23:58:00,
2013-01-03 18:59:00,49.8,47.3,30.21,NNW,328,8.0,10.0,91,0.00,,---,0.09,0.00,VWS V14.00,2013-01-03 23:59:00,
2013-01-03 19:00:00,49.9,47.4,30.21,NNW,346,7.0,10.0,91,0.00,,---,0.09,0.00,VWS V14.00,2013-01-04 00:00:00,
2013-01-03 19:01:00,49.9,47.4,30.21,NNE,26,4.0,10.0,91,0.00,,---,0.09,0.00,VWS V14.00,2013-01-04 00:01:00,
2013-01-03 19:02:00,49.9,47.4,30.21,NNW,339,5.0,10.0,91,0.00,,---,0.09,0.00,VWS V14.00,2013-01-04 00:02:00,
2013-01-03 19:03:00,49.9,47.4,30.21,NNW,335,5.0,10.0,91,0.00,,---,0.09,0.00,VWS V14.00,2013-01-04 00:03:00,
2013-01-03 19:04:00,49.9,47.4,30.20,North,6,6.0,10.0,91,0.00,,---,0.09,0.00,VWS V14.00,2013-01-04 00:04:00,
2013-01-03 19:05:00,49.9,47.4,30.20,North,6,7.0,10.0,91,0.00,,---,0.09,0.00,VWS V14.00,2013-01-04 00:05:00,
2013-01-03 19:06:00,49.9,47.4,30.21,North,349,6.0,10.0,91,0.00,,---,0.09,0.00,VWS V14.00,2013-01-04 00:06:00,
2013-01-03 19:07:00,49.9,47.4,30.21,North,350,8.0,10.0,91,0.00,,---,0.09,0.00,VWS V14.00,2013-01-04 00:07:00,
2013-01-03 19:08:00,49.9,47.4,30.21,NNW,347,7.0,10.0,91,0.00,,---,0.09,0.00,VWS V14.00,2013-01-04 00:08:00,
2013-01-03 19:09:00,49.9,47.4,30.21,North,9,8.0,10.0,91,0.00,,---,0.09,0.00,VWS V14.00,2013-01-04 00:09:00,
2013-01-03 19:10:00,49.8,47.3,30.21,North,4,8.0,10.0,91,0.00,,---,0.09,0.00,VWS V14.00,2013-01-04 00:10:00,
2013-01-03 19:11:00,49.8,47.3,30.21,NNW,344,7.0,10.0,91,0.00,,---,0.09,0.00,VWS V14.00,2013-01-04 00:11:00,
2013-01-03 19:12:00,49.9,47.4,30.21,North,351,5.0,10.0,91,0.00,,---,0.09,0.00,VWS V14.00,2013-01-04 00:12:00,
2013-01-03 19:13:00,49.9,47.4,30.21,NNE,15,7.0,10.0,91,0.00,,---,0.09,0.00,VWS V14.00,2013-01-04 00:13:00,
2013-01-03 19:14:00,49.9,47.4,30.21,NNW,341,9.0,10.0,91,0.00,,---,0.09,0.00,VWS V14.00,2013-01-04 00:14:00,
2013-01-03 19:15:00,49.9,47.4,30.21,North,349,8.0,10.0,91,0.00,,---,0.09,0.00,VWS V14.00,2013-01-04 00:15:00,
2013-01-03 19:16:00,49.9,47.4,30.21,North,6,8.0,12.0,91,0.00,,---,0.09,0.00,VWS V14.00,2013-01-04 00:16:00,
2013-01-03 19:17:00,49.9,47.4,30.21,NNW,346,9.0,15.0,91,0.00,,---,0.09,0.00,VWS V14.00,2013-01-04 00:17:00,
2013-01-03 19:18:00,49.8,47.3,30.21,North,349,9.0,15.0,91,0.00,,---,0.09,0.00,VWS V14.00,2013-01-04 00:18:00,
2013-01-03 19:19:00,49.8,47.3,30.21,North,360,12.0,15.0,91,0.00,,---,0.09,0.00,VWS V14.00,2013-01-04 00:19:00,
2013-01-03 19:20:00,49.8,47.3,30.21,North,353,9.0,15.0,91,0.00,,---,0.09,0.00,VWS V14.00,2013-01-04 00:20:00,
2013-01-03 19:21:00,49.8,47.3,30.21,North,354,11.0,15.0,91,0.00,,---,0.09,0.00,VWS V14.00,2013-01-04 00:21:00,
2013-01-03 19:22:00,49.8,47.3,30.21,NW,322,11.0,15.0,91,0.00,,---,0.09,0.00,VWS V14.00,2013-01-04 00:22:00,
2013-01-03 19:23:00,49.9,47.4,30.21,NNW,343,13.0,15.0,91,0.00,,---,0.09,0.00,VWS V14.00,2013-01-04 00:23:00,
2013-01-03 19:24:00,49.9,47.4,30.21,North,357,13.0,15.0,91,0.00,,---,0.09,0.00,VWS V14.00,2013-01-04 00:24:00,
2013-01-03 19:25:00,49.9,47.4,30.21,NNW,345,12.0,15.0,91,0.00,,---,0.09,0.00,VWS V14.00,2013-01-04 00:25:00,
2013-01-03 19:26:00,49.8,47.3,30.21,North,354,11.0,15.0,91,0.00,,---,0.09,0.00,VWS V14.00,2013-01-04 00:26:00,
2013-01-03 19:27:00,49.7,47.2,30.21,NNW,346,16.0,16.0,91,0.00,,---,0.09,0.00,VWS V14.00,2013-01-04 00:27:00,
2013-01-03 19:28:00,49.7,47.2,30.21,North,354,12.0,16.0,91,0.00,,---,0.09,0.00,VWS V14.00,2013-01-04 00:28:00,
2013-01-03 19:29:00,49.6,46.8,30.21,NNW,345,10.0,16.0,90,0.00,,---,0.09,0.00,VWS V14.00,2013-01-04 00:29:00,
2013-01-03 19:30:00,49.6,46.8,30.21,North,358,14.0,16.0,90,0.00,,---,0.09,0.00,VWS V14.00,2013-01-04 00:30:00,
2013-01-03 19:31:00,49.5,46.7,30.21,North,2,10.0,15.0,90,0.00,,---,0.09,0.00,VWS V14.00,2013-01-04 00:31:00,
2013-01-03 19:32:00,49.4,46.6,30.22,NNW,345,9.0,15.0,90,0.00,,---,0.09,0.00,VWS V14.00,2013-01-04 00:32:00,
2013-01-03 19:33:00,49.4,46.6,30.22,North,4,11.0,15.0,90,0.00,,---,0.09,0.00,VWS V14.00,2013-01-04 00:33:00,
2013-01-03 19:34:00,49.3,46.5,30.21,NNW,344,8.0,15.0,90,0.00,,---,0.09,0.00,VWS V14.00,2013-01-04 00:34:00,
2013-01-03 19:35:00,49.3,46.2,30.21,NNW,341,10.0,15.0,89,0.00,,---,0.09,0.00,VWS V14.00,2013-01-04 00:35:00,
2013-01-03 19:36:00,49.3,46.5,30.21,North,4,11.0,15.0,90,0.00,,---,0.09,0.00,VWS V14.00,2013-01-04 00:36:00,
2013-01-03 19:37:00,49.3,46.2,30.21,North,356,12.0,15.0,89,0.00,,---,0.09,0.00,VWS V14.00,2013-01-04 00:37:00,
2013-01-03 19:38:00,49.2,46.1,30.21,NNW,343,12.0,16.0,89,0.00,,---,0.09,0.00,VWS V14.00,2013-01-04 00:38:00,
2013-01-03 19:39:00,49.2,46.1,30.21,NNW,339,13.0,16.0,89,0.00,,---,0.09,0.00,VWS V14.00,2013-01-04 00:39:00,
2013-01-03 19:40:00,49.2,46.1,30.21,North,8,10.0,16.0,89,0.00,,---,0.09,0.00,VWS V14.00,2013-01-04 00:40:00,
2013-01-03 19:41:00,49.2,46.1,30.21,NNW,347,8.0,16.0,89,0.00,,---,0.09,0.00,VWS V14.00,2013-01-04 00:41:00,
2013-01-03 19:42:00,49.2,46.1,30.21,NNW,345,9.0,16.0,89,0.00,,---,0.09,0.00,VWS V14.00,2013-01-04 00:42:00,
2013-01-03 19:43:00,49.2,46.1,30.21,NNW,345,9.0,16.0,89,0.00,,---,0.09,0.00,VWS V14.00,2013-01-04 00:43:00,
2013-01-03 19:44:00,49.2,46.1,30.21,NNW,345,9.0,16.0,89,0.00,,---,0.09,0.00,VWS V14.00,2013-01-04 00:44:00,
2013-01-03 19:45:00,49.2,46.4,30.21,NNW,337,10.0,16.0,90,0.00,,---,0.09,0.00,VWS V14.00,2013-01-04 00:45:00,
2013-01-03 19:46:00,49.2,46.1,30.21,North,2,7.0,16.0,89,0.00,,---,0.09,0.00,VWS V14.00,2013-01-04 00:46:00,
2013-01-03 19:47:00,49.2,46.4,30.21,North,350,8.0,16.0,90,0.00,,---,0.09,0.00,VWS V14.00,2013-01-04 00:47:00,
2013-01-03 19:48:00,49.2,46.4,30.21,North,353,7.0,16.0,90,0.00,,---,0.09,0.00,VWS V14.00,2013-01-04 00:48:00,
2013-01-03 19:49:00,49.2,46.4,30.22,NNW,337,8.0,16.0,90,0.00,,---,0.09,0.00,VWS V14.00,2013-01-04 00:49:00,
2013-01-03 19:50:00,49.2,46.4,30.22,NNW,340,5.0,16.0,90,0.00,,---,0.09,0.00,VWS V14.00,2013-01-04 00:50:00,
2013-01-03 19:56:00,49.3,46.5,30.21,North,358,6.0,6.0,90,0.00,,---,0.09,0.00,VWS V14.00,2013-01-04 00:56:00,
2013-01-03 19:57:00,49.3,46.5,30.21,NNW,332,7.0,8.0,90,0.00,,---,0.09,0.00,VWS V14.00,2013-01-04 00:57:00,
2013-01-03 19:58:00,49.3,46.5,30.21,NNW,328,7.0,10.0,90,0.00,,---,0.09,0.00,VWS V14.00,2013-01-04 00:58:00,
2013-01-03 19:59:00,49.3,46.5,30.22,North,357,5.0,10.0,90,0.00,,---,0.09,0.00,VWS V14.00,2013-01-04 00:59:00,
2013-01-03 20:00:00,49.3,46.5,30.22,NNW,332,7.0,10.0,90,0.00,,---,0.09,0.00,VWS V14.00,2013-01-04 01:00:00,
2013-01-03 20:01:00,49.3,46.5,30.22,North,355,7.0,9.0,90,0.00,,---,0.09,0.00,VWS V14.00,2013-01-04 01:01:00,
2013-01-03 20:02:00,49.3,46.5,30.22,North,353,5.0,9.0,90,0.00,,---,0.09,0.00,VWS V14.00,2013-01-04 01:02:00,
2013-01-03 20:03:00,49.3,46.5,30.22,North,351,4.0,9.0,90,0.00,,---,0.09,0.00,VWS V14.00,2013-01-04 01:03:00,
2013-01-03 20:04:00,49.3,46.5,30.22,NNW,348,6.0,9.0,90,0.00,,---,0.09,0.00,VWS V14.00,2013-01-04 01:04:00,
2013-01-03 20:05:00,49.3,46.5,30.22,North,350,5.0,9.0,90,0.00,,---,0.09,0.00,VWS V14.00,2013-01-04 01:05:00,
2013-01-03 20:06:00,49.3,46.5,30.22,North,2,6.0,9.0,90,0.00,,---,0.09,0.00,VWS V14.00,2013-01-04 01:06:00,
2013-01-03 20:07:00,49.3,46.5,30.22,North,360,6.0,9.0,90,0.00,,---,0.09,0.00,VWS V14.00,2013-01-04 01:07:00,
2013-01-03 20:08:00,49.3,46.5,30.22,North,360,4.0,9.0,90,0.00,,---,0.09,0.00,VWS V14.00,2013-01-04 01:08:00,
2013-01-03 20:09:00,49.2,46.4,30.21,North,360,6.0,9.0,90,0.00,,---,0.09,0.00,VWS V14.00,2013-01-04 01:09:00,
2013-01-03 20:10:00,49.2,46.1,30.22,North,360,4.0,9.0,89,0.00,,---,0.09,0.00,VWS V14.00,2013-01-04 01:10:00,
2013-01-03 20:11:00,49.2,46.4,30.22,North,360,5.0,9.0,90,0.00,,---,0.09,0.00,VWS V14.00,2013-01-04 01:11:00,
2013-01-03 20:12:00,49.2,46.4,30.22,North,360,2.0,9.0,90,0.00,,---,0.09,0.00,VWS V14.00,2013-01-04 01:12:00,
2013-01-03 20:13:00,49.2,46.4,30.22,North,360,2.0,9.0,90,0.00,,---,0.09,0.00,VWS V14.00,2013-01-04 01:13:00,
2013-01-03 20:14:00,49.2,46.4,30.22,North,360,4.0,9.0,90,0.00,,---,0.09,0.00,VWS V14.00,2013-01-04 01:14:00,
2013-01-03 20:15:00,49.2,46.4,30.22,North,360,3.0,9.0,90,0.00,,---,0.09,0.00,VWS V14.00,2013-01-04 01:15:00,
2013-01-03 20:16:00,49.2,46.4,30.22,North,360,3.0,9.0,90,0.00,,---,0.09,0.00,VWS V14.00,2013-01-04 01:16:00,
2013-01-03 20:17:00,49.3,46.5,30.22,North,360,3.0,9.0,90,0.00,,---,0.09,0.00,VWS V14.00,2013-01-04 01:17:00,
2013-01-03 20:18:00,49.3,46.5,30.22,North,360,2.0,9.0,90,0.00,,---,0.09,0.00,VWS V14.00,2013-01-04 01:18:00,
2013-01-03 20:19:00,49.3,46.5,30.22,North,360,2.0,9.0,90,0.00,,---,0.09,0.00,VWS V14.00,2013-01-04 01:19:00,
2013-01-03 20:20:00,49.3,46.5,30.22,North,360,4.0,9.0,90,0.00,,---,0.09,0.00,VWS V14.00,2013-01-04 01:20:00,
2013-01-03 20:21:00,49.3,46.5,30.22,North,360,2.0,9.0,90,0.00,,---,0.09,0.00,VWS V14.00,2013-01-04 01:21:00,
2013-01-03 20:22:00,49.3,46.5,30.22,North,360,5.0,9.0,90,0.00,,---,0.09,0.00,VWS V14.00,2013-01-04 01:22:00,
2013-01-03 20:23:00,49.3,46.5,30.22,North,360,3.0,9.0,90,0.00,,---,0.09,0.00,VWS V14.00,2013-01-04 01:23:00,
2013-01-03 20:24:00,49.3,46.5,30.22,North,360,5.0,9.0,90,0.00,,---,0.09,0.00,VWS V14.00,2013-01-04 01:24:00,
2013-01-03 20:25:00,49.3,46.5,30.22,North,360,4.0,9.0,90,0.00,,---,0.09,0.00,VWS V14.00,2013-01-04 01:25:00,
2013-01-03 20:26:00,49.3,46.5,30.22,North,360,3.0,9.0,90,0.00,,---,0.09,0.00,VWS V14.00,2013-01-04 01:26:00,
2013-01-03 20:27:00,49.3,46.5,30.22,North,360,4.0,9.0,90,0.00,,---,0.09,0.00,VWS V14.00,2013-01-04 01:27:00,
2013-01-03 20:28:00,49.3,46.5,30.22,North,360,3.0,9.0,90,0.00,,---,0.09,0.00,VWS V14.00,2013-01-04 01:28:00,
2013-01-03 20:29:00,49.4,46.6,30.22,North,360,3.0,9.0,90,0.00,,---,0.09,0.00,VWS V14.00,2013-01-04 01:29:00,
2013-01-03 20:30:00,49.4,46.6,30.22,North,0,4.0,9.0,90,0.00,,---,0.09,0.00,VWS V14.00,2013-01-04 01:30:00,
2013-01-03 21:00:00,50.1,47.3,30.25,NNW,337,7.0,8.0,90,0.00,,---,0.09,0.00,VWS V14.00,2013-01-04 02:00:00,
2013-01-03 21:13:00,49.4,46.6,30.22,North,0,4.0,9.0,90,0.00,,---,0.09,0.00,VWS V14.00,2013-01-04 02:13:00,
2013-01-03 21:14:00,50.0,47.2,30.24,NNW,330,6.0,6.0,90,0.00,,---,0.09,0.00,VWS V14.00,2013-01-04 02:14:00,
2013-01-03 21:15:00,50.0,47.2,30.24,NNW,330,6.0,6.0,90,0.00,,---,0.09,0.00,VWS V14.00,2013-01-04 02:15:00,
2013-01-03 21:16:00,50.0,47.2,30.24,NNW,330,6.0,6.0,90,0.00,,---,0.09,0.00,VWS V14.00,2013-01-04 02:16:00,
2013-01-03 21:17:00,50.0,47.2,30.24,NNW,330,6.0,6.0,90,0.00,,---,0.09,0.00,VWS V14.00,2013-01-04 02:17:00,
2013-01-03 21:18:00,50.0,47.2,30.24,NNW,330,6.0,6.0,90,0.00,,---,0.09,0.00,VWS V14.00,2013-01-04 02:18:00,
2013-01-03 21:19:00,50.1,47.3,30.24,NNW,330,8.0,9.0,90,0.00,,---,0.09,0.00,VWS V14.00,2013-01-04 02:19:00,
2013-01-03 21:20:00,50.1,47.3,30.25,NNW,328,8.0,10.0,90,0.00,,---,0.09,0.00,VWS V14.00,2013-01-04 02:20:00,
2013-01-03 21:21:00,50.1,47.3,30.25,NNW,342,7.0,10.0,90,0.00,,---,0.09,0.00,VWS V14.00,2013-01-04 02:21:00,
2013-01-03 21:22:00,50.1,47.3,30.24,NNW,343,5.0,10.0,90,0.00,,---,0.09,0.00,VWS V14.00,2013-01-04 02:22:00,
2013-01-03 21:23:00,50.1,47.0,30.24,NNW,337,7.0,10.0,89,0.00,,---,0.09,0.00,VWS V14.00,2013-01-04 02:23:00,
2013-01-03 21:24:00,50.1,47.0,30.24,NW,325,5.0,10.0,89,0.00,,---,0.09,0.00,VWS V14.00,2013-01-04 02:24:00,
2013-01-03 21:25:00,50.1,47.3,30.24,North,353,7.0,10.0,90,0.00,,---,0.09,0.00,VWS V14.00,2013-01-04 02:25:00,
2013-01-03 21:26:00,50.1,47.3,30.24,North,352,6.0,10.0,90,0.00,,---,0.09,0.00,VWS V14.00,2013-01-04 02:26:00,
2013-01-03 21:27:00,50.1,47.3,30.24,North,352,4.0,10.0,90,0.00,,---,0.09,0.00,VWS V14.00,2013-01-04 02:27:00,
2013-01-03 21:28:00,50.1,47.3,30.24,North,351,2.0,10.0,90,0.00,,---,0.09,0.00,VWS V14.00,2013-01-04 02:28:00,
2013-01-03 21:29:00,50.1,47.3,30.24,North,351,3.0,10.0,90,0.00,,---,0.09,0.00,VWS V14.00,2013-01-04 02:29:00,
2013-01-03 21:30:00,50.1,47.3,30.24,North,351,4.0,10.0,90,0.00,,---,0.09,0.00,VWS V14.00,2013-01-04 02:30:00,
2013-01-03 21:31:00,50.1,47.3,30.24,North,351,5.0,5.0,90,0.00,,---,0.09,0.00,VWS V14.00,2013-01-04 02:31:00,
2013-01-03 21:32:00,50.1,47.3,30.24,North,351,4.0,5.0,90,0.00,,---,0.09,0.00,VWS V14.00,2013-01-04 02:32:00,
2013-01-03 21:33:00,50.1,47.3,30.24,North,351,4.0,6.0,90,0.00,,---,0.09,0.00,VWS V14.00,2013-01-04 02:33:00,
2013-01-03 21:34:00,50.1,47.3,30.24,North,350,5.0,6.0,90,0.00,,---,0.09,0.00,VWS V14.00,2013-01-04 02:34:00,
2013-01-03 21:35:00,50.1,47.3,30.24,NNW,337,3.0,6.0,90,0.00,,---,0.09,0.00,VWS V14.00,2013-01-04 02:35:00,
2013-01-03 21:36:00,50.1,47.3,30.24,NNW,337,2.0,6.0,90,0.00,,---,0.09,0.00,VWS V14.00,2013-01-04 02:36:00,
2013-01-03 21:37:00,50.1,47.3,30.24,NNW,337,5.0,6.0,90,0.00,,---,0.09,0.00,VWS V14.00,2013-01-04 02:37:00,
2013-01-03 21:38:00,50.2,47.4,30.24,NNW,337,6.0,7.0,90,0.00,,---,0.09,0.00,VWS V14.00,2013-01-04 02:38:00,
2013-01-03 21:39:00,50.2,47.4,30.25,NW,314,1.0,7.0,90,0.00,,---,0.09,0.00,VWS V14.00,2013-01-04 02:39:00,
2013-01-03 21:40:00,50.3,47.5,30.25,NW,314,0.0,7.0,90,0.00,,---,0.09,0.00,VWS V14.00,2013-01-04 02:40:00,
2013-01-03 21:41:00,50.2,47.4,30.25,NW,314,0.0,7.0,90,0.00,,---,0.09,0.00,VWS V14.00,2013-01-04 02:41:00,
2013-01-03 21:42:00,50.3,47.5,30.25,NW,314,2.0,7.0,90,0.00,,---,0.09,0.00,VWS V14.00,2013-01-04 02:42:00,
2013-01-03 21:43:00,50.3,47.5,30.25,NW,314,3.0,7.0,90,0.00,,---,0.09,0.00,VWS V14.00,2013-01-04 02:43:00,
2013-01-03 21:44:00,50.3,47.5,30.25,NW,314,3.0,7.0,90,0.00,,---,0.09,0.00,VWS V14.00,2013-01-04 02:44:00,
2013-01-03 21:45:00,50.3,47.5,30.25,NW,314,4.0,7.0,90,0.00,,---,0.09,0.00,VWS V14.00,2013-01-04 02:45:00,
2013-01-03 21:46:00,50.2,47.4,30.25,NW,315,6.0,7.0,90,0.00,,---,0.09,0.00,VWS V14.00,2013-01-04 02:46:00,
2013-01-03 21:47:00,50.2,47.4,30.25,NW,320,4.0,7.0,90,0.00,,---,0.09,0.00,VWS V14.00,2013-01-04 02:47:00,
2013-01-03 21:48:00,50.1,47.3,30.25,NW,320,0.0,7.0,90,0.00,,---,0.09,0.00,VWS V14.00,2013-01-04 02:48:00,
2013-01-03 21:49:00,50.1,47.3,30.25,NW,320,3.0,7.0,90,0.00,,---,0.09,0.00,VWS V14.00,2013-01-04 02:49:00,
2013-01-03 21:50:00,50.2,47.4,30.25,NW,326,5.0,7.0,90,0.00,,---,0.09,0.00,VWS V14.00,2013-01-04 02:50:00,
2013-01-03 21:51:00,50.2,47.4,30.25,NNW,343,4.0,7.0,90,0.00,,---,0.09,0.00,VWS V14.00,2013-01-04 02:51:00,
2013-01-03 21:52:00,50.1,47.3,30.25,NNW,333,7.0,8.0,90,0.00,,---,0.09,0.00,VWS V14.00,2013-01-04 02:52:00,
2013-01-03 21:53:00,50.2,47.4,30.25,NNW,334,4.0,8.0,90,0.00,,---,0.09,0.00,VWS V14.00,2013-01-04 02:53:00,
2013-01-03 21:54:00,50.1,47.3,30.25,NNW,334,5.0,8.0,90,0.00,,---,0.09,0.00,VWS V14.00,2013-01-04 02:54:00,
2013-01-03 21:55:00,50.1,47.3,30.25,NNW,335,4.0,8.0,90,0.00,,---,0.09,0.00,VWS V14.00,2013-01-04 02:55:00,
2013-01-03 21:56:00,50.1,47.3,30.25,NNW,335,5.0,8.0,90,0.00,,---,0.09,0.00,VWS V14.00,2013-01-04 02:56:00,
2013-01-03 21:57:00,50.1,47.3,30.25,NNW,344,5.0,8.0,90,0.00,,---,0.09,0.00,VWS V14.00,2013-01-04 02:57:00,
2013-01-03 21:58:00,50.1,47.3,30.25,NNW,347,5.0,8.0,90,0.00,,---,0.09,0.00,VWS V14.00,2013-01-04 02:58:00,
2013-01-03 21:59:00,50.1,47.3,30.25,North,349,5.0,8.0,90,0.00,,---,0.09,0.00,VWS V14.00,2013-01-04 02:59:00,
2013-01-03 22:00:00,50.1,47.3,30.25,NNW,337,7.0,8.0,90,0.00,,---,0.09,0.00,VWS V14.00,2013-01-04 03:00:00,
2013-01-03 22:01:00,50.1,47.3,30.25,NNW,333,9.0,10.0,90,0.00,,---,0.09,0.00,VWS V14.00,2013-01-04 03:01:00,
2013-01-03 22:02:00,50.2,47.4,30.25,NNW,331,12.0,12.0,90,0.00,,---,0.09,0.00,VWS V14.00,2013-01-04 03:02:00,
2013-01-03 22:03:00,50.3,47.5,30.25,North,350,11.0,12.0,90,0.00,,---,0.09,0.00,VWS V14.00,2013-01-04 03:03:00,
2013-01-03 22:04:00,50.2,47.4,30.25,NNW,340,10.0,12.0,90,0.00,,---,0.09,0.00,VWS V14.00,2013-01-04 03:04:00,
2013-01-03 22:05:00,50.2,47.4,30.25,NNW,333,9.0,12.0,90,0.00,,---,0.09,0.00,VWS V14.00,2013-01-04 03:05:00,
2013-01-03 22:06:00,50.2,47.4,30.25,NNW,338,8.0,12.0,90,0.00,,---,0.09,0.00,VWS V14.00,2013-01-04 03:06:00,
2013-01-03 22:07:00,50.1,47.3,30.25,NW,322,13.0,13.0,90,0.00,,---,0.09,0.00,VWS V14.00,2013-01-04 03:07:00,
2013-01-03 22:08:00,50.2,47.4,30.25,NNW,330,10.0,13.0,90,0.00,,---,0.09,0.00,VWS V14.00,2013-01-04 03:08:00,
2013-01-03 22:09:00,50.1,47.3,30.25,NNW,333,9.0,13.0,90,0.00,,---,0.09,0.00,VWS V14.00,2013-01-04 03:09:00,
2013-01-03 22:10:00,50.0,47.2,30.25,NNW,334,9.0,13.0,90,0.00,,---,0.09,0.00,VWS V14.00,2013-01-04 03:10:00,
2013-01-03 22:11:00,50.0,47.2,30.25,NNW,330,10.0,13.0,90,0.00,,---,0.09,0.00,VWS V14.00,2013-01-04 03:11:00,
2013-01-03 22:12:00,50.0,47.2,30.25,NNW,343,8.0,13.0,90,0.00,,---,0.09,0.00,VWS V14.00,2013-01-04 03:12:00,
2013-01-03 22:13:00,50.0,47.5,30.25,NNW,344,6.0,13.0,91,0.00,,---,0.09,0.00,VWS V14.00,2013-01-04 03:13:00,
2013-01-03 22:14:00,49.9,47.4,30.25,NNW,341,5.0,13.0,91,0.00,,---,0.09,0.00,VWS V14.00,2013-01-04 03:14:00,
2013-01-03 22:15:00,49.9,47.4,30.25,NNW,345,7.0,13.0,91,0.00,,---,0.09,0.00,VWS V14.00,2013-01-04 03:15:00,
2013-01-03 22:16:00,49.9,47.4,30.25,NNW,329,7.0,13.0,91,0.00,,---,0.09,0.00,VWS V14.00,2013-01-04 03:16:00,
2013-01-03 22:17:00,49.9,47.4,30.25,NNW,337,6.0,13.0,91,0.00,,---,0.09,0.00,VWS V14.00,2013-01-04 03:17:00,
2013-01-03 22:18:00,49.9,47.4,30.25,NNW,335,4.0,13.0,91,0.00,,---,0.09,0.00,VWS V14.00,2013-01-04 03:18:00,
2013-01-03 22:19:00,49.9,47.4,30.25,NNW,343,9.0,13.0,91,0.00,,---,0.09,0.00,VWS V14.00,2013-01-04 03:19:00,
2013-01-03 22:20:00,49.8,47.3,30.25,NW,326,8.0,13.0,91,0.00,,---,0.09,0.00,VWS V14.00,2013-01-04 03:20:00,
2013-01-03 22:21:00,49.8,47.3,30.25,NNW,337,6.0,13.0,91,0.00,,---,0.09,0.00,VWS V14.00,2013-01-04 03:21:00,
2013-01-03 22:22:00,49.8,47.3,30.25,North,352,7.0,13.0,91,0.00,,---,0.09,0.00,VWS V14.00,2013-01-04 03:22:00,
2013-01-03 22:23:00,49.8,47.3,30.24,North,354,6.0,13.0,91,0.00,,---,0.09,0.00,VWS V14.00,2013-01-04 03:23:00,
2013-01-03 22:24:00,49.8,47.3,30.25,North,354,5.0,13.0,91,0.00,,---,0.09,0.00,VWS V14.00,2013-01-04 03:24:00,
2013-01-03 22:25:00,49.9,47.4,30.24,North,352,6.0,13.0,91,0.00,,---,0.09,0.00,VWS V14.00,2013-01-04 03:25:00,
2013-01-03 22:26:00,49.9,47.4,30.24,North,350,6.0,13.0,91,0.00,,---,0.09,0.00,VWS V14.00,2013-01-04 03:26:00,
2013-01-03 22:27:00,49.9,47.4,30.24,North,349,6.0,13.0,91,0.00,,---,0.09,0.00,VWS V14.00,2013-01-04 03:27:00,
2013-01-03 22:28:00,49.9,47.4,30.24,North,350,6.0,13.0,91,0.00,,---,0.09,0.00,VWS V14.00,2013-01-04 03:28:00,
2013-01-03 22:29:00,49.9,47.4,30.24,North,355,6.0,13.0,91,0.00,,---,0.09,0.00,VWS V14.00,2013-01-04 03:29:00,
2013-01-03 22:30:00,49.9,47.4,30.24,North,356,6.0,13.0,91,0.00,,---,0.09,0.00,VWS V14.00,2013-01-04 03:30:00,
2013-01-03 22:31:00,49.9,47.4,30.23,North,356,6.0,6.0,91,0.00,,---,0.09,0.00,VWS V14.00,2013-01-04 03:31:00,
2013-01-03 22:32:00,49.9,47.4,30.23,North,356,6.0,6.0,91,0.00,,---,0.09,0.00,VWS V14.00,2013-01-04 03:32:00,
2013-01-03 22:33:00,49.8,47.3,30.24,North,356,5.0,6.0,91,0.00,,---,0.09,0.00,VWS V14.00,2013-01-04 03:33:00,
2013-01-03 22:34:00,49.8,47.3,30.24,North,356,4.0,6.0,91,0.00,,---,0.09,0.00,VWS V14.00,2013-01-04 03:34:00,
2013-01-03 22:35:00,49.8,47.3,30.23,North,356,5.0,6.0,91,0.00,,---,0.09,0.00,VWS V14.00,2013-01-04 03:35:00,
2013-01-03 22:36:00,49.8,47.3,30.23,North,356,3.0,6.0,91,0.00,,---,0.09,0.00,VWS V14.00,2013-01-04 03:36:00,
2013-01-03 22:37:00,49.8,47.3,30.23,North,356,5.0,6.0,91,0.00,,---,0.09,0.00,VWS V14.00,2013-01-04 03:37:00,
2013-01-03 22:38:00,49.8,47.3,30.23,North,356,4.0,6.0,91,0.00,,---,0.09,0.00,VWS V14.00,2013-01-04 03:38:00,
2013-01-03 22:39:00,49.8,47.3,30.23,North,356,5.0,7.0,91,0.00,,---,0.09,0.00,VWS V14.00,2013-01-04 03:39:00,
2013-01-03 22:40:00,49.7,47.2,30.23,NNW,347,5.0,7.0,91,0.00,,---,0.09,0.00,VWS V14.00,2013-01-04 03:40:00,
2013-01-03 22:41:00,49.7,46.9,30.24,NNW,347,5.0,7.0,90,0.00,,---,0.09,0.00,VWS V14.00,2013-01-04 03:41:00,
2013-01-03 22:42:00,49.7,46.9,30.24,NNW,342,6.0,7.0,90,0.00,,---,0.09,0.00,VWS V14.00,2013-01-04 03:42:00,
2013-01-03 22:43:00,49.7,46.9,30.24,NNW,341,7.0,7.0,90,0.00,,---,0.09,0.00,VWS V14.00,2013-01-04 03:43:00,
2013-01-03 22:44:00,49.7,47.2,30.24,NNW,338,5.0,8.0,91,0.00,,---,0.09,0.00,VWS V14.00,2013-01-04 03:44:00,
2013-01-03 22:45:00,49.7,46.9,30.24,NNW,332,5.0,8.0,90,0.00,,---,0.09,0.00,VWS V14.00,2013-01-04 03:45:00,
2013-01-03 22:46:00,49.7,46.9,30.24,NNW,330,6.0,8.0,90,0.00,,---,0.09,0.00,VWS V14.00,2013-01-04 03:46:00,
2013-01-03 22:47:00,49.8,47.0,30.24,NNW,334,9.0,9.0,90,0.00,,---,0.09,0.00,VWS V14.00,2013-01-04 03:47:00,
2013-01-03 22:48:00,49.8,47.3,30.24,NNW,341,6.0,9.0,91,0.00,,---,0.09,0.00,VWS V14.00,2013-01-04 03:48:00,
2013-01-03 22:49:00,49.8,47.3,30.24,NNW,337,5.0,9.0,91,0.00,,---,0.09,0.00,VWS V14.00,2013-01-04 03:49:00,
2013-01-03 22:50:00,49.9,47.4,30.24,NNW,343,6.0,9.0,91,0.00,,---,0.09,0.00,VWS V14.00,2013-01-04 03:50:00,
2013-01-03 22:51:00,49.9,47.4,30.24,NNW,347,7.0,9.0,91,0.00,,---,0.09,0.00,VWS V14.00,2013-01-04 03:51:00,
2013-01-03 22:52:00,49.9,47.4,30.24,North,351,6.0,9.0,91,0.00,,---,0.09,0.00,VWS V14.00,2013-01-04 03:52:00,
2013-01-03 22:53:00,49.8,47.0,30.23,North,352,5.0,9.0,90,0.00,,---,0.09,0.00,VWS V14.00,2013-01-04 03:53:00,
2013-01-03 22:54:00,49.8,47.3,30.23,North,352,6.0,9.0,91,0.00,,---,0.09,0.00,VWS V14.00,2013-01-04 03:54:00,
2013-01-03 22:55:00,49.8,47.3,30.23,North,352,5.0,9.0,91,0.00,,---,0.09,0.00,VWS V14.00,2013-01-04 03:55:00,
2013-01-03 22:56:00,49.8,47.3,30.23,North,349,7.0,9.0,91,0.00,,---,0.09,0.00,VWS V14.00,2013-01-04 03:56:00,
2013-01-03 22:57:00,49.8,47.3,30.23,NNW,347,7.0,9.0,91,0.00,,---,0.09,0.00,VWS V14.00,2013-01-04 03:57:00,
2013-01-03 22:58:00,49.9,47.4,30.24,North,358,7.0,9.0,91,0.00,,---,0.09,0.00,VWS V14.00,2013-01-04 03:58:00,
2013-01-03 22:59:00,49.9,47.1,30.24,NNW,343,8.0,9.0,90,0.00,,---,0.09,0.00,VWS V14.00,2013-01-04 03:59:00,
2013-01-03 23:00:00,49.9,47.1,30.24,NNW,343,6.0,9.0,90,0.00,,---,0.09,0.00,VWS V14.00,2013-01-04 04:00:00,
2013-01-03 23:01:00,49.9,47.1,30.24,NNW,330,5.0,7.0,90,0.00,,---,0.09,0.00,VWS V14.00,2013-01-04 04:01:00,
2013-01-03 23:02:00,49.9,47.4,30.23,NNW,344,5.0,7.0,91,0.00,,---,0.09,0.00,VWS V14.00,2013-01-04 04:02:00,
2013-01-03 23:03:00,50.0,47.5,30.24,North,355,6.0,7.0,91,0.00,,---,0.09,0.00,VWS V14.00,2013-01-04 04:03:00,
2013-01-03 23:04:00,50.0,47.5,30.24,North,3,6.0,7.0,91,0.00,,---,0.09,0.00,VWS V14.00,2013-01-04 04:04:00,
2013-01-03 23:05:00,49.9,47.4,30.24,North,3,5.0,7.0,91,0.00,,---,0.09,0.00,VWS V14.00,2013-01-04 04:05:00,
2013-01-03 23:06:00,49.9,47.4,30.24,North,3,4.0,7.0,91,0.00,,---,0.09,0.00,VWS V14.00,2013-01-04 04:06:00,
2013-01-03 23:07:00,49.9,47.4,30.23,North,3,4.0,7.0,91,0.00,,---,0.09,0.00,VWS V14.00,2013-01-04 04:07:00,
2013-01-03 23:08:00,49.9,47.1,30.23,North,358,7.0,7.0,90,0.00,,---,0.09,0.00,VWS V14.00,2013-01-04 04:08:00,
2013-01-03 23:09:00,49.9,47.4,30.23,North,353,4.0,7.0,91,0.00,,---,0.09,0.00,VWS V14.00,2013-01-04 04:09:00,
2013-01-03 23:10:00,49.9,47.1,30.23,North,353,4.0,7.0,90,0.00,,---,0.09,0.00,VWS V14.00,2013-01-04 04:10:00,
2013-01-03 23:11:00,49.9,47.1,30.23,North,353,5.0,7.0,90,0.00,,---,0.09,0.00,VWS V14.00,2013-01-04 04:11:00,
2013-01-03 23:12:00,49.9,47.1,30.23,North,353,5.0,7.0,90,0.00,,---,0.09,0.00,VWS V14.00,2013-01-04 04:12:00,
2013-01-03 23:13:00,49.9,47.1,30.23,North,353,5.0,7.0,90,0.00,,---,0.09,0.00,VWS V14.00,2013-01-04 04:13:00,
2013-01-03 23:14:00,49.9,47.4,30.23,North,353,5.0,7.0,91,0.00,,---,0.09,0.00,VWS V14.00,2013-01-04 04:14:00,
2013-01-03 23:15:00,49.9,47.4,30.23,North,351,7.0,7.0,91,0.00,,---,0.09,0.00,VWS V14.00,2013-01-04 04:15:00,
2013-01-03 23:16:00,49.9,47.4,30.23,NNW,348,8.0,8.0,91,0.00,,---,0.09,0.00,VWS V14.00,2013-01-04 04:16:00,
2013-01-03 23:17:00,49.9,47.4,30.23,NNW,337,4.0,8.0,91,0.00,,---,0.09,0.00,VWS V14.00,2013-01-04 04:17:00,
2013-01-03 23:18:00,49.9,47.4,30.23,NNW,337,5.0,8.0,91,0.00,,---,0.09,0.00,VWS V14.00,2013-01-04 04:18:00,
2013-01-03 23:19:00,49.9,47.4,30.23,NNW,337,6.0,8.0,91,0.00,,---,0.09,0.00,VWS V14.00,2013-01-04 04:19:00,
2013-01-03 23:20:00,49.9,47.4,30.23,NNW,337,5.0,8.0,91,0.00,,---,0.09,0.00,VWS V14.00,2013-01-04 04:20:00,
2013-01-03 23:21:00,49.9,47.4,30.23,NNW,347,4.0,8.0,91,0.00,,---,0.09,0.00,VWS V14.00,2013-01-04 04:21:00,
2013-01-03 23:22:00,49.9,47.4,30.23,North,351,5.0,8.0,91,0.00,,---,0.09,0.00,VWS V14.00,2013-01-04 04:22:00,
2013-01-03 23:23:00,49.9,47.4,30.23,North,350,5.0,8.0,91,0.00,,---,0.09,0.00,VWS V14.00,2013-01-04 04:23:00,
2013-01-03 23:24:00,49.9,47.4,30.24,NNW,340,9.0,9.0,91,0.00,,---,0.09,0.00,VWS V14.00,2013-01-04 04:24:00,
2013-01-03 23:25:00,49.9,47.4,30.24,NNW,338,9.0,10.0,91,0.00,,---,0.09,0.00,VWS V14.00,2013-01-04 04:25:00,
2013-01-03 23:26:00,49.9,47.4,30.24,North,350,7.0,10.0,91,0.00,,---,0.09,0.00,VWS V14.00,2013-01-04 04:26:00,
2013-01-03 23:27:00,49.9,47.4,30.24,NNW,340,7.0,10.0,91,0.00,,---,0.09,0.00,VWS V14.00,2013-01-04 04:27:00,
2013-01-03 23:28:00,50.0,47.5,30.24,NNW,341,7.0,10.0,91,0.00,,---,0.09,0.00,VWS V14.00,2013-01-04 04:28:00,
2013-01-03 23:29:00,50.1,47.6,30.24,NW,324,8.0,10.0,91,0.00,,---,0.09,0.00,VWS V14.00,2013-01-04 04:29:00,
2013-01-03 23:30:00,50.1,47.6,30.24,NNW,327,6.0,10.0,91,0.00,,---,0.09,0.00,VWS V14.00,2013-01-04 04:30:00,
2013-01-03 23:31:00,50.1,47.6,30.24,NNW,342,7.0,8.0,91,0.00,,---,0.09,0.00,VWS V14.00,2013-01-04 04:31:00,
2013-01-03 23:32:00,50.1,47.6,30.24,NNW,346,6.0,9.0,91,0.00,,---,0.09,0.00,VWS V14.00,2013-01-04 04:32:00,
2013-01-03 23:33:00,50.2,47.7,30.24,NNW,337,8.0,9.0,91,0.00,,---,0.09,0.00,VWS V14.00,2013-01-04 04:33:00,
2013-01-03 23:34:00,50.2,47.7,30.24,NNW,348,5.0,9.0,91,0.00,,---,0.09,0.00,VWS V14.00,2013-01-04 04:34:00,
2013-01-03 23:35:00,50.3,47.8,30.23,NNW,337,7.0,9.0,91,0.00,,---,0.09,0.00,VWS V14.00,2013-01-04 04:35:00,
2013-01-03 23:36:00,50.3,47.8,30.23,NNW,341,9.0,10.0,91,0.00,,---,0.09,0.00,VWS V14.00,2013-01-04 04:36:00,
2013-01-03 23:37:00,50.2,47.7,30.24,North,351,6.0,10.0,91,0.00,,---,0.09,0.00,VWS V14.00,2013-01-04 04:37:00,
2013-01-03 23:38:00,50.1,47.6,30.24,North,359,8.0,10.0,91,0.00,,---,0.09,0.00,VWS V14.00,2013-01-04 04:38:00,
2013-01-03 23:39:00,50.1,47.6,30.24,North,353,7.0,10.0,91,0.00,,---,0.09,0.00,VWS V14.00,2013-01-04 04:39:00,
2013-01-03 23:40:00,50.1,47.6,30.24,NNW,331,9.0,12.0,91,0.00,,---,0.09,0.00,VWS V14.00,2013-01-04 04:40:00,
2013-01-03 23:41:00,50.1,47.6,30.24,NNW,333,11.0,14.0,91,0.00,,---,0.09,0.00,VWS V14.00,2013-01-04 04:41:00,
2013-01-03 23:42:00,50.2,47.7,30.24,NNW,329,10.0,14.0,91,0.00,,---,0.09,0.00,VWS V14.00,2013-01-04 04:42:00,
2013-01-03 23:43:00,50.3,47.8,30.24,NNW,343,10.0,14.0,91,0.00,,---,0.09,0.00,VWS V14.00,2013-01-04 04:43:00,
2013-01-03 23:44:00,50.3,47.8,30.24,NNW,332,11.0,14.0,91,0.00,,---,0.09,0.00,VWS V14.00,2013-01-04 04:44:00,
2013-01-03 23:45:00,50.3,47.8,30.24,NNW,343,10.0,14.0,91,0.00,,---,0.09,0.00,VWS V14.00,2013-01-04 04:45:00,
2013-01-03 23:46:00,50.3,47.8,30.24,NNW,345,8.0,14.0,91,0.00,,---,0.09,0.00,VWS V14.00,2013-01-04 04:46:00,
2013-01-03 23:48:00,50.3,47.8,30.23,North,358,9.0,14.0,91,0.00,,---,0.09,0.00,VWS V14.00,2013-01-04 04:48:00,
2013-01-03 23:49:00,50.3,47.8,30.23,NNW,346,9.0,14.0,91,0.00,,---,0.09,0.00,VWS V14.00,2013-01-04 04:49:00,
2013-01-03 23:50:00,50.2,47.7,30.23,North,6,10.0,14.0,91,0.00,,---,0.09,0.00,VWS V14.00,2013-01-04 04:50:00,
2013-01-03 23:51:00,50.1,47.6,30.23,North,4,8.0,14.0,91,0.00,,---,0.09,0.00,VWS V14.00,2013-01-04 04:51:00,
2013-01-03 23:52:00,50.1,47.6,30.23,North,353,7.0,14.0,91,0.00,,---,0.09,0.00,VWS V14.00,2013-01-04 04:52:00,
2013-01-03 23:53:00,50.0,47.5,30.23,North,3,7.0,14.0,91,0.00,,---,0.09,0.00,VWS V14.00,2013-01-04 04:53:00,
2013-01-03 23:54:00,50.0,47.5,30.23,North,3,5.0,14.0,91,0.00,,---,0.09,0.00,VWS V14.00,2013-01-04 04:54:00,
2013-01-03 23:55:00,50.1,47.6,30.23,North,353,8.0,14.0,91,0.00,,---,0.09,0.00,VWS V14.00,2013-01-04 04:55:00,
2013-01-03 23:56:00,50.0,47.5,30.23,North,360,11.0,14.0,91,0.00,,---,0.09,0.00,VWS V14.00,2013-01-04 04:56:00,
2013-01-03 23:57:00,50.0,47.5,30.23,North,356,8.0,14.0,91,0.00,,---,0.09,0.00,VWS V14.00,2013-01-04 04:57:00,
2013-01-03 23:58:00,50.0,47.5,30.24,NNW,330,9.0,14.0,91,0.00,,---,0.09,0.00,VWS V14.00,2013-01-04 04:58:00,
2013-01-03 23:59:00,50.0,47.5,30.23,North,5,10.0,14.0,91,0.00,,---,0.09,0.00,VWS V14.00,2013-01-04 04:59:00,